     2              OBSERVATION DATA    G (GPS)             RINEX VERSION / TYPE
ASRINEXO V2.4.4 UX USGS 20-AUG-96 14:41                     PGM / RUN BY / DATE
Crustal Strain Project                                      COMMENT
U.S. Geological Survey, Menlo Park, California 94025        COMMENT
345 Middlefield Road, MS/977                                COMMENT
Contact: kwendt@isdmnl.wr.usgs.gov (Ph: 415-329-4866)       COMMENT
HI's are vertical to base of antenna                        COMMENT
earn                                                        MARKER NAME
GDH USGS                                                    OBSERVER / AGENCY
143 ASHTECH Z-XII3 1F00                                     REC # / TYPE / VERS
11401 ASH700718B NONE                                       ANT # / TYPE
 -2424170.0000 -4287759.0000  4040650.0000                  APPROX POSITION XYZ
        1.1389        0.0000        0.0000                  ANTENNA: DELTA H/E/N
     1     1                                                WAVELENGTH FACT L1/2
     5    C1    L1    L2    P1    P2                        # / TYPES OF OBSERV
    30                                                      INTERVAL
  1996     7    10     0     0    0.000000                  TIME OF FIRST OBS
                                                            END OF HEADER
 96  7 10  0  0  0.0020000  0  9 17 26  3  1  9 23 31 28 21
  21749996.894   -24233002.00449 -18866713.40549  21750000.7564   21750006.3574
  24669784.413    -6204449.88049  -4813060.31549  24669788.4574   24669794.8824
  22116067.751   -21562394.33949 -16789441.88849  22116069.7804   22116075.4354
  23668288.969   -11144333.89049  -8643201.18449  23668290.7524   23668297.8914
  25058002.833    -4582927.44449  -3555880.96749  25058005.8554   25058011.6064
  21436737.401   -25319722.42249 -19717225.13749  21436740.2034   21436745.3094
  24456760.423    -5600067.29449  -4350151.98949  24456763.6654   24456769.6064
  21301135.021   -27550383.637 9 -21202774.188 9  21301136.970    21301141.861
  21674956.961   -24988973.99249 -19185999.98849  21674959.3094   21674964.9284
 96  7 10  0  0 30.0020000  0  9 17 26  3  1  9 23 31 28 21
  21759197.135   -24184659.40849 -18829043.87049  21759199.8294   21759205.2604
  24687298.907    -6112412.15349  -4741342.62849  24687302.3364   24687308.2074
  22107990.261   -21604835.44849 -16822512.88449  22107993.4354   22107999.0564
  23647869.429   -11251640.89149  -8726816.97849  23647870.8814   23647878.3584
  25046788.729    -4641855.99049  -3601799.28949  25046792.3024   25046798.9374
  21442237.243   -25290821.80849 -19694705.18149  21442239.6744   21442244.7534
  24439259.167    -5692045.95749  -4421823.65449  24439260.0674   24439267.1684
  21306977.893   -27519676.554 9 -21178846.607 9  21306980.210    21306985.083
  21667147.615   -25030010.21849 -19217976.25249  21667150.3844   21667155.7624
 96  7 10  0  1  0.0020000  0  9 17 26  3  1  9 23 31 28 21
  21768460.467   -24135980.03849 -18791111.90349  21768463.3274   21768469.0314
  24704870.248    -6020092.81749  -4669405.52049  24704870.5324   24704876.6094
  22100021.602   -21646708.23849 -16855141.03049  22100025.4384   22100030.9224
  23627487.788   -11358748.02949  -8810277.02349  23627489.0234   23627495.6814
  25035638.496    -4700455.33449  -3647461.07049  25035641.2014   25035646.5234
  21447788.990   -25261649.01649 -19671973.13949  21447790.9684   21447796.2694
  24421817.611    -5783694.34649  -4493237.92949  24421820.6644   24421825.7544
  21312937.978   -27488356.356 9 -21154441.271 9  21312940.192    21312945.361
  21659395.095   -25070750.96649 -19249722.26949  21659397.6794   21659403.6364
 96  7 10  0  1 30.0020000  0  9 17 26  3  1  9 23 31 28 21
  21777788.551   -24086959.72649 -18752914.27549  21777791.4524   21777797.1194
  24722491.272    -5927485.18849  -4597243.76049  24722493.3394   24722498.7924
  22092159.757   -21688026.95949 -16887337.43849  22092162.6144   22092168.0424
  23607141.621   -11465661.41449  -8893586.10549  23607144.0294   23607151.1134
  25024549.543    -4758737.16449  -3692875.42149  25024550.2394   25024556.5604
  21453393.218   -25232195.63949 -19649022.45949  21453395.9534   21453401.2124
  24404438.442    -5875023.06049  -4564403.12849  24404442.9584   24404447.0994
  21319013.413   -27456429.487 9 -21129563.210 9  21319015.659    21319020.758
  21651694.360   -25111218.06349 -19281255.06049  21651696.9674   21651702.6524
 96  7 10  0  2  0.0020000  0  9 17 26  3  1  9 23 31 28 21
  21787182.747   -24037594.44249 -18714447.83949  21787185.2094   21787190.7864
  24740172.028    -5834562.12249  -4524836.21849  24740176.4704   24740182.1634
  22084404.430   -21728781.45849 -16919094.18849  22084407.3224   22084412.9904
  23586833.372   -11572379.51049  -8976743.00849  23586835.9284   23586843.1924
  25013517.374    -4816705.45249  -3738045.47549  25013518.8434   25013525.5504
  21459051.145   -25202466.18549 -19625856.65949  21459053.0854   21459058.0824
  24387120.749    -5966035.81549  -4635322.12649  24387121.9424   24387128.5634
  21325203.643   -27423895.711 9 -21104212.228 9  21325206.696    21325211.571
  21644045.608   -25151409.99149 -19312573.43349  21644048.4804   21644054.2054
 96  7 10  0  2 30.0020000  0  9 17 26  3  1  9 23 31 28 21
  21796645.055   -23987867.28349 -18675699.42149  21796648.3574   21796653.8644
  24757913.980    -5741333.41449  -4452190.51149  24757916.8114   24757922.3844
  22076758.145   -21768960.75549 -16950402.73149  22076761.3234   22076767.0314
  23566568.574   -11678875.95049  -9059727.19749  23566570.7554   23566577.5624
  25002543.666    -4874363.74449  -3782973.96449  25002546.7884   25002553.3824
  21464759.862   -25172463.07049 -19602477.61349  21464762.4524   21464767.5254
  24369863.306    -6056720.82549  -4705985.74749  24369865.8394   24369870.9534
  21331510.534   -27390757.604 9 -21078390.338 9  21331512.639    21331517.371
  21636447.951   -25191338.27549 -19343686.37049  21636450.5314   21636455.9824
 96  7 10  0  3  0.0020000  0  9 17 26  3  1  9 23 31 28 21
  21806179.366   -23937769.24949 -18636662.00949  21806181.3224   21806186.8904
  24775707.273    -5647820.46949  -4379323.31349  24775712.2304   24775716.7964
  22069223.966   -21808555.42449 -16981255.71449  22069226.8184   22069232.3904
  23546345.763   -11785145.23949  -9142534.39449  23546348.6914   23546355.1824
  24991634.825    -4931698.46149  -3827650.31749  24991636.9314   24991643.0194
  21470520.016   -25142192.74249 -19578890.35449  21470522.7904   21470528.0604
  24352668.625    -6147067.58649  -4776385.79649  24352673.6844   24352679.0464
  21337930.896   -27357018.396 9 -21052100.058 9  21337932.944    21337937.791
  21628900.631   -25230994.36149 -19374587.20949  21628904.1634   21628909.6954
 96  7 10  0  3 30.0020000  0  9 17 26  3  1  9 23 31 28 21
  21815780.959   -23887304.50149 -18597338.84649  21815784.6454   21815790.0854
  24793556.262    -5554040.36549  -4306247.93149  24793557.9994   24793562.7314
  22061804.521   -21847543.44549 -17011635.99249  22061807.6204   22061813.2404
  23526163.503   -11891200.71749  -9225174.96949  23526166.1994   23526173.1814
  24980787.039    -4988703.67949  -3872069.91849  24980788.3784   24980795.8844
  21476328.053   -25111674.52349 -19555109.93549  21476330.2774   21476335.5534
  24335542.059    -6237074.64949  -4846521.13749  24335545.1514   24335551.1694
  21344465.477   -27322679.234 9 -21025342.283 9  21344467.518    21344472.274
  21621410.880   -25270357.67649 -19405259.91349  21621413.4674   21621419.3714
 96  7 10  0  4  0.0020000  0  9 17 26  3  1  9 23 31 28 21
  21825454.109   -23836476.23949 -18557732.42949  21825456.9584   21825462.2994
  24811449.764    -5460002.74649  -4232971.90249  24811452.4614   24811457.7084
  22054504.482   -21885907.05449 -17041529.71549  22054507.1904   22054512.9844
  23506026.021   -11997023.14049  -9307633.93949  23506029.0704   23506036.0794
  24970002.151    -5045367.12449  -3916223.20049  24970005.3054   24970011.9024
  21482181.451   -25080913.94049 -19531140.65349  21482183.6634   21482189.0244
  24318481.259    -6326731.04849  -4916383.23549  24318484.6284   24318489.6914
  21351114.899   -27287734.186 9 -20998112.385 9  21351117.385    21351122.083
  21613979.762   -25309408.67549 -19435689.24949  21613982.2894   21613988.0024
 96  7 10  0  4 30.0020000  0  9 17 26  3  1  9 23 31 28 21
  21835191.295   -23785306.00549 -18517859.54149  21835194.2384   21835199.9394
  24829389.495    -5365723.38749  -4159507.50449  24829393.0534   24829398.6064
  22047319.766   -21923658.96849 -17070946.79749  22047323.2034   22047329.0524
  23485931.230   -12102619.93049  -9389917.08949  23485934.4484   23485941.0994
  24959285.174    -5101683.11849  -3960105.74649  24959288.9744   24959295.1534
  21488081.895   -25049904.18149 -19506977.21449  21488084.8724   21488089.9924
  24301488.109    -6416036.24149  -4985971.65849  24301490.5934   24301496.7264
  21357878.775   -27252190.469 9 -20970415.995 9  21357881.126    21357885.940
  21606606.960   -25348153.93349 -19465880.34849  21606609.1954   21606615.1984
 96  7 10  0  5  0.0020000  0  9 17 26  3  1  9 23 31 28 21
  21844993.071   -23733796.37149 -18477722.18749  21844996.4924   21845001.9184
  24847378.408    -5271189.69249  -4085844.91649  24847381.9544   24847387.6384
  22040254.136   -21960791.81549 -17099881.48649  22040257.0154   22040262.7974
  23465878.630   -12207994.41949  -9472027.02249  23465882.2964   23465889.3904
  24948642.453    -5157634.21349  -4003703.96049  24948641.8094   24948648.7544
  21494034.349   -25018625.17749 -19482603.97149  21494036.7654   21494042.3614
  24284562.519    -6504983.72549  -5055281.36649  24284563.6784   24284569.9114
  21364758.896   -27216037.107 9 -20942244.556 9  21364761.050    21364765.839
  21599294.455   -25386580.63749 -19495823.22349  21599296.7664   21599302.7534
 96  7 10  0  5 30.0020000  0  9 17 26  3  1  9 23 31 28 21
  21854853.321   -23681978.96349 -18437345.00149  21854856.5814   21854862.4714
  24865413.794    -5176418.21649  -4011997.05049  24865416.7974   24865421.7274
  22033301.828   -21997327.61149 -17128350.93849  22033304.5084   22033310.1714
  23445868.052   -12313155.87849  -9553970.96749  23445871.1034   23445877.7864
  24938060.409    -5213249.22749  -4047040.29049  24938059.0924   24938066.0144
  21500036.661   -24987084.29349 -19458026.66749  21500039.0924   21500044.4414
  24267701.460    -6593580.64149  -5124317.89349  24267704.4464   24267712.3854
  21371750.762   -27179292.733 9 -20913612.593 9  21371753.166    21371758.052
  21592036.926   -25424718.34949 -19525540.90949  21592039.5714   21592045.4554
 96  7 10  0  6  0.0020000  0  9 17 26  3  1  9 23 31 28 21
  21864774.421   -23629840.09449 -18396717.33249  21864778.4274   21864783.8654
  24883493.960    -5081403.64349  -3937959.74249  24883498.1234   24883504.5854
  22026459.289   -22033279.26449 -17156365.21049  22026463.1634   22026468.8384
  23425901.595   -12418076.02249  -9635726.87449  23425904.9964   23425912.5944
  24927537.550    -5268526.45749  -4090113.42349  24927539.8194   24927546.7064
  21506089.754   -24955274.51649 -19433239.83449  21506092.1974   21506097.4734
  24250915.900    -6681796.59249  -5193057.56649  24250917.0284   24250923.4394
  21378856.801   -27141952.678 9 -20884516.461 9  21378858.867    21378863.776
  21584834.589   -25462571.31649 -19555036.71049  21584836.3444   21584841.9494
 96  7 10  0  6 30.0020000  0  9 17 26  3  1  9 23 31 28 21
  21874761.041   -23577369.79449 -18355831.39749  21874763.0374   21874768.7244
  24901623.808    -4986143.40849  -3863731.02349  24901625.6534   24901629.8074
  22019730.979   -22068639.73149 -17183918.82649  22019734.0854   22019740.0724
  23405985.176   -12522742.18249  -9717284.87249  23405987.8434   23405995.0014
  24917080.907    -5323461.75249  -4132920.08649  24917085.5824   24917092.1014
  21512194.327   -24923193.39849 -19408241.56549  21512196.9664   21512202.2764
  24234202.990    -6769620.79149  -5261491.97349  24234205.2884   24234211.5874
  21386075.365   -27104014.895 9 -20854954.569 9  21386078.076    21386083.025
  21577680.969   -25500155.60649 -19584323.16149  21577684.2754   21577689.8174
 96  7 10  0  7  0.0020000  0  9 17 26  3  1  9 23 31 28 21
  21884805.667   -23524582.04949 -18314698.10849  21884808.4754   21884814.2544
  24919789.700    -4890662.09649  -3789330.05049  24919794.8584   24919799.9664
  22013113.793   -22103418.97049 -17211019.53449  22013116.1184   22013121.9484
  23386114.256   -12627161.46549  -9798650.49649  23386117.1674   23386124.1364
  24906694.027    -5378077.07649  -4175477.43849  24906693.1364   24906699.3284
  21518345.348   -24890868.99549 -19383053.72949  21518348.0254   21518353.7124
  24217558.505    -6857075.14649  -5329638.19449  24217562.5274   24217568.3004
  21393404.473   -27065500.499 9 -20824943.370 9  21393407.158    21393412.064
  21570577.304   -25537489.63449 -19613414.60049  21570579.8734   21570585.5184
 96  7 10  0  7 30.0020000  0  9 17 26  3  1  9 23 31 28 21
  21894912.743   -23471467.75049 -18273310.35649  21894915.5954   21894920.9114
  24938005.707    -4794952.63049  -3714751.27749  24938007.9754   24938014.1134
  22006606.144   -22137610.47349 -17237662.26049  22006609.8794   22006615.7364
  23366294.413   -12731321.13049  -9879813.81949  23366296.9064   23366303.1434
  24896357.267    -5432368.46349  -4217782.37849  24896361.0174   24896369.0304
  21524542.596   -24858305.65249 -19357679.70549  21524544.6624   21524550.0804
  24200988.416    -6944159.43249  -5397496.04449  24200991.0014   24200997.6254
  21400843.865   -27026406.743 9 -20794480.723 9  21400846.394    21400851.568
  21563521.598   -25574565.99249 -19642305.26249  21563524.3344   21563530.1504
 96  7 10  0  8  0.0020000  0  9 17 26  3  1  9 23 31 28 21
  21905081.160   -23418032.13049 -18231672.22549  21905084.0434   21905090.0394
  24956258.549    -4699019.64049  -3639998.33649  24956263.7414   24956268.4084
  22000211.709   -22171217.31449 -17263849.40749  22000214.7844   22000220.3924
  23346520.155   -12835236.49749  -9960786.77949  23346522.3934   23346529.1714
  24886095.995    -5486326.45149  -4259827.53149  24886093.9764   24886100.1194
  21530782.120   -24825512.13349 -19332126.31749  21530784.8254   21530790.3464
  24184482.486    -7030898.95249  -5465085.23549  24184485.0654   24184490.6684
  21408392.713   -26986738.606 9 -20763570.503 9  21408394.975    21408400.216
  21556516.568   -25611375.05449 -19670987.63449  21556519.8654   21556525.7184
 96  7 10  0  8 30.0020000  0  9 17 26  3  1  9 23 31 28 21
  21915311.060   -23364273.58149 -18189782.47249  21915313.9124   21915319.9154
  24974561.766    -4602842.76449  -3565055.34449  24974565.7924   24974569.5314
  21993932.548   -22204214.61149 -17289561.58949  21993935.3874   21993941.2384
  23326791.759   -12938900.95049 -10041564.20749  23326794.9004   23326802.3204
  24875892.641    -5539916.52249  -4301586.00149  24875895.2414   24875902.2634
  21537070.972   -24792463.86749 -19306374.43149  21537073.8384   21537079.4614
  24168043.358    -7117291.29949  -5532403.92349  24168044.8334   24168050.8884
  21416053.829   -26946479.430 9 -20732199.737 9  21416056.026    21416061.184
  21549568.316   -25647891.54249 -19699442.03349  21549571.0404   21549576.7924
 96  7 10  0  9  0.0020000  0  9 17 26  3  1  9 23 31 28 21
  21925602.428   -23310192.91149 -18147641.70349  21925605.2674   21925611.2814
  24992907.755    -4506431.63149  -3489929.82549  24992911.4954   24992916.1824
  21987765.720   -22236620.62649 -17314813.03049  21987768.7584   21987774.7104
  23307109.966   -13042335.92949 -10122162.81949  23307112.4974   23307119.6934
  24865765.754    -5593150.37149  -4343066.89749  24865765.1024   24865772.4014
  21543405.981   -24759175.02249 -19280435.07849  21543408.3324   21543414.2164
  24151667.270    -7203345.60049  -5599459.17349  24151670.3074   24151674.8474
  21423824.133   -26905641.652 9 -20700378.109 9  21423827.190    21423832.458
  21542677.423   -25684102.71049 -19727658.52249  21542680.5334   21542685.8344
 96  7 10  0  9 30.0020000  0  9 17 26  3  1  9 23 31 28 21
  21935958.336   -23255770.26649 -18105234.47349  21935961.5364   21935967.3174
  25011300.743    -4409780.92349  -3414617.61849  25011303.2584   25011309.3354
  21981713.464   -22268425.00249 -17339595.66549  21981716.4924   21981722.1824
  23287471.944   -13145535.12249 -10202577.70949  23287474.1114   23287481.2754
  24855701.249    -5646022.47049  -4384265.89749  24855704.3024   24855711.3294
  21549786.376   -24725646.31349 -19254308.82349  21549788.9834   21549794.6584
  24135359.875    -7289039.20849  -5666233.38949  24135362.9674   24135368.0204
  21431708.088   -26864215.297 9 -20668097.857 9  21431710.378    21431715.545
  21535847.985   -25719994.45149 -19755626.10749  21535850.4504   21535855.7004
 96  7 10  0 10  0.0020000  0  9 17 26  3  1  9 23 31 28 21
  21946376.950   -23201020.51349 -18062572.34349  21946380.1774   21946385.9924
  25029734.050    -4312908.87749  -3339132.93449  25029737.1594   25029744.0834
  21975770.775   -22299651.17949 -17363927.75149  21975774.2184   21975780.1584
  23267875.436   -13248514.87049 -10282821.60749  23267877.9804   23267884.4894
  24845702.947    -5698545.95949  -4425193.24949  24845710.4894   24845716.6404
  21556207.715   -24691903.66349 -19228015.85449  21556209.9344   21556215.3584
  24119119.604    -7374373.38849  -5732727.52049  24119123.9734   24119129.6444
  21439698.741   -26822222.970 9 -20635376.580 9  21439701.186    21439706.423
  21529076.942   -25755575.31749 -19783351.44449  21529079.5894   21529085.1724
 96  7 10  0 10 30.0020000  0  9 17 26  3  1  9 23 31 28 21
  21956862.114   -23145923.84849 -18019639.89049  21956864.5774   21956870.5834
  25048209.852    -4215815.03449  -3263475.44549  25048214.8054   25048218.7654
  21969939.774   -22330292.12949 -17387803.81949  21969943.4294   21969949.3164
  23248324.164   -13351255.12949 -10362878.88949  23248326.6204   23248333.6084
  24835778.200    -5750723.97849  -4465851.41249  24835779.9854   24835786.6064
  21562671.323   -24657935.64149 -19201547.27549  21562673.9444   21562679.1984
  24102953.814    -7459328.61349  -5798926.35749  24102957.8174   24102964.4164
  21447798.131   -26779661.635 9 -20602211.926 9  21447800.452    21447805.527
  21522364.248   -25790849.37849 -19810837.71249  21522367.1494   21522372.9954
 96  7 10  0 11  0.0020000  0  9 17 26  3  1  9 23 31 28 21
  21967413.872   -23090470.52849 -17976429.53049  21967417.0684   21967423.3264
  25066727.783    -4118502.50549  -3187647.52449  25066731.3024   25066738.4624
  21964223.261   -22360335.99749 -17411214.63149  21964226.1844   21964232.4164
  23228821.783   -13453744.51349 -10442740.69549  23228824.0824   23228830.5204
  24825914.067    -5802558.77749  -4506242.12949  24825916.1884   24825922.7264
  21569178.842   -24623738.69049 -19174900.30349  21569181.2164   21569186.5224
  24086861.395    -7543894.47949  -5864821.80449  24086865.3714   24086870.9544
  21456006.021   -26736527.094 9 -20568600.611 9  21456008.603    21456013.761
  21515710.135   -25825816.29249 -19838084.64449  21515712.9434   21515719.0794
 96  7 10  0 11 30.0020000  0  9 17 26  3  1  9 23 31 28 21
  21978028.474   -23034695.13049 -17932968.20349  21978031.2604   21978037.0844
  25085287.536    -4020980.16649  -3111656.11849  25085288.5384   25085294.1994
  21958618.534   -22389789.40349 -17434165.34249  21958621.4044   21958627.2954
  23209364.921   -13555985.30449 -10522408.78449  23209367.7574   23209374.8544
  24816117.349    -5854042.74149  -4546359.45749  24816120.0284   24816124.5254
  21575730.967   -24589308.96949 -19148071.95749  21575733.1884   21575738.1974
  24070844.076    -7628077.07149  -5930418.61249  24070846.3734   24070852.2224
  21464322.240   -26692826.701 9 -20534548.380 9  21464324.569    21464329.690
  21509110.434   -25860499.09849 -19865110.19449  21509112.8924   21509118.9764
 96  7 10  0 12  0.0020000  0  9 17 26  3  1  9 23 31 28 21
  21988700.891   -22978606.71049 -17889262.96249  21988704.3304   21988710.2164
  25103887.547    -3923238.28949  -3035493.66949  25103889.8904   25103894.7974
  21953127.803   -22418643.88449 -17456649.35649  21953131.0084   21953136.6914
  23189960.022   -13657965.69549 -10601873.96449  23189961.2214   23189968.1254
  24806384.666    -5905152.59149  -4586185.27749  24806393.4454   24806399.7494
  21582331.934   -24554621.25449 -19121042.57649  21582333.8924   21582339.1694
  24054896.452    -7711875.09549  -5995715.74549  24054899.3314   24054905.0994
  21472746.529   -26648556.770 9 -20500052.348 9  21472748.962    21472753.922
  21502563.568   -25894905.09649 -19891920.04949  21502565.7284   21502571.8724
 96  7 10  0 12 30.0010000  0  9 17 26  3  1  9 23 31 28 21
  21999432.493   -22922206.51749 -17845314.77849  21999436.5114   21999443.1024
  25122526.107    -3825283.86349  -2959165.59349  25122529.8594   25122533.9634
  21947754.822   -22446882.31049 -17478653.32849  21947757.4554   21947762.9104
  23170602.955   -13759681.58149 -10681133.03949  23170605.1954   23170612.6464
  24796737.185    -5955872.65749  -4625707.38949  24796742.1124   24796747.1604
  21588982.128   -24519672.53649 -19093809.81349  21588984.3834   21588989.7374
  24039023.598    -7795291.86249  -6060715.79749  24039025.8384   24039031.4524
  21481279.458   -26603715.786 9 -20465111.343 9  21481281.947    21481287.003
  21496064.670   -25929053.72649 -19918529.35949  21496067.5494   21496073.7114
 96  7 10  0 13  0.0010000  0  9 17 26  3  1  9 23 31 28 21
  22010224.508   -22865502.57849 -17801129.91149  22010227.2984   22010233.6794
  25141210.468    -3727107.87449  -2882664.84649  25141212.5474   25141217.8004
  21942497.460   -22474507.16849 -17500179.19849  21942500.5714   21942506.0464
  23151295.759   -13861144.97649 -10760195.38149  23151297.5984   23151304.6514
  24787159.115    -6006191.94649  -4664917.18949  24787166.8034   24787172.9074
  21595679.281   -24484478.75449 -19066386.09349  21595681.8614   21595686.7734
  24023219.722    -7878333.90649  -6125423.86049  24023223.1604   24023229.2794
  21489921.612   -26558301.604 9 -20429723.685 9  21489924.002    21489928.904
  21489614.573   -25962951.11349 -19944942.89449  21489617.2394   21489622.7534
 96  7 10  0 13 30.0010000  0  9 17 26  3  1  9 23 31 28 21
  22021074.214   -22808488.30549 -17756703.22349  22021076.8324   22021083.1744
  25159931.079    -3628708.71949  -2805990.22049  25159936.7454   25159942.5804
  21937358.213   -22501513.93649 -17521223.44049  21937361.3974   21937367.0204
  23132036.329   -13962351.58049 -10839057.61549  23132039.1714   23132045.5984
  24777669.084    -6056094.07649  -4703801.93349  24777670.6074   24777676.5884
  21602420.692   -24449054.23149 -19038782.56949  21602422.7984   21602427.9164
  24007491.905    -7960988.82849  -6189830.26149  24007494.6104   24007500.6334
  21498672.914   -26512314.516 9 -20393889.611 9  21498675.054    21498679.885
  21483211.753   -25996597.46449 -19971160.82149  21483214.3874   21483220.1024
 96  7 10  0 14  0.0010000  0  9 17 26  3  1  9 23 31 28 21
  22031986.782   -22751142.63549 -17712018.31149  22031989.3984   22031995.2894
  25178697.664    -3530099.16849  -2729151.62749  25178701.1004   25178706.0414
  21932337.220   -22527900.41849 -17541784.34349  21932340.2834   21932345.7114
  23112824.319   -14063310.33349 -10917726.72049  23112826.6404   23112833.6364
  24768249.171    -6105590.54849  -4742370.58949  24768251.5624   24768258.1254
  21609199.757   -24413430.08049 -19011023.49949  21609201.7774   21609207.0844
  23991835.991    -8043260.66449  -6253938.16649  23991838.7724   23991843.9444
  21507530.893   -26465765.633 9 -20357617.773 9  21507532.950    21507537.839
  21476857.510   -26029989.20249 -19997180.34849  21476860.1244   21476865.8714
 96  7 10  0 14 30.0010000  0  9 17 26  3  1  9 23 31 28 21
  22042965.059   -22693452.65349 -17667065.10249  22042967.2794   22042973.3254
  25197500.355    -3431294.85349  -2652161.30849  25197503.2884   25197509.7394
  21927432.680   -22553671.08949 -17561865.39249  21927436.1884   21927441.5434
  23093660.269   -14164019.50849 -10996201.34849  23093662.3974   23093668.7694
  24758901.759    -6154692.16149  -4780631.55849  24758907.8764   24758914.1474
  21616013.615   -24377622.12249 -18983121.20349  21616015.6354   21616021.1544
  23976254.766    -8125141.08649  -6317741.06549  23976257.7664   23976262.7724
  21516495.251   -26418654.383 9 -20320907.730 9  21516497.911    21516502.857
  21470555.491   -26063104.44049 -20022984.41949  21470558.6134   21470564.4644
 96  7 10  0 15  0.0010000  0  9 17 26  3  1  9 23 31 28 21
  22054008.301   -22635417.41949 -17621842.86149  22054011.6014   22054017.4874
  25216336.182    -3332310.26249  -2575030.47449  25216338.7214   25216344.0254
  21922644.512   -22578835.41549 -17581473.96249  21922647.7284   21922653.2274
  23074543.898   -14264471.91649 -11074475.90449  23074547.6034   23074553.8134
  24749627.159    -6203415.97449  -4818598.12349  24749635.8044   24749641.7834
  21622864.804   -24341618.19349 -18955066.19849  21622867.2644   21622872.4484
  23960749.097    -8206621.02749  -6381231.89549  23960752.2624   23960759.1204
  21525567.472   -26370979.692 9 -20283758.642 9  21525570.046    21525575.067
  21464310.583   -26095920.35849 -20048555.25149  21464313.7264   21464319.5534
 96  7 10  0 15 30.0010000  0  9 17 26  3  1  9 23 31 28 21
  22065118.320   -22577029.00349 -17576345.41549  22065121.9054   22065128.1724
  25235203.035    -3233160.52249  -2497771.00349  25235207.6114   25235213.5454
  21917971.258   -22603393.24249 -17600609.93549  21917974.5104   21917980.1054
  23055477.941   -14364664.49849 -11152547.99949  23055480.8684   23055487.6054
  24740430.737    -6251775.49549  -4856280.84049  24740434.2264   24740439.6234
  21629756.372   -24305403.02649 -18926846.59149  21629758.4854   21629764.0804
  23945322.183    -8287695.85049  -6444407.05949  23945324.6564   23945330.1194
  21534746.036   -26322746.368 9 -20246174.259 9  21534748.607    21534753.534
  21458124.228   -26128430.03449 -20073887.45549  21458127.3874   21458133.1024
 96  7 10  0 16  0.0010000  0  9 17 26  3  1  9 23 31 28 21
  22076297.005   -22518287.94949 -17530573.19049  22076299.8834   22076306.2614
  25254100.926    -3133848.52949  -2420385.07549  25254105.1644   25254111.6514
  21913412.462   -22627347.02149 -17619275.22649  21913416.4114   21913421.8154
  23036467.578   -14464568.67749 -11230395.36349  23036469.5884   23036476.7074
  24731296.088    -6299780.05449  -4893686.95349  24731298.2444   24731304.0284
  21636692.638   -24268951.30449 -18898442.65749  21636695.1804   21636700.4514
  23929969.942    -8368371.38249  -6507271.08249  23929972.2414   23929978.9294
  21544031.400   -26273952.352 9 -20208152.968 9  21544033.855    21544038.661
  21451998.410   -26160622.50149 -20098972.48449  21452001.1894   21452007.2654
 96  7 10  0 16 30.0010000  0  9 17 26  3  1  9 23 31 28 21
  22087535.759   -22459226.77749 -17484551.51949  22087538.4924   22087544.9344
  25273028.239    -3034393.45649  -2342887.64149  25273030.8354   25273036.5694
  21908964.441   -22650721.82849 -17637489.36349  21908968.1334   21908973.4484
  23017511.586   -14564179.45549 -11308014.10949  23017514.4774   23017521.4864
  24722224.530    -6347436.02949  -4930821.43349  24722229.1184   24722236.2064
  21643677.077   -24232253.62249 -18869847.06649  21643678.6574   21643683.5674
  23914689.509    -8448663.79149  -6569836.57049  23914693.1434   23914699.7324
  21553420.895   -26224610.725 9 -20169704.966 9  21553423.293    21553428.043
  21445929.350   -26192518.75949 -20123826.70049  21445931.9214   21445937.2614
 96  7 10  0 17  0.0010000  0  9 17 26  3  1  9 23 31 28 21
  22098836.572   -22399836.91149 -17438273.72349  22098840.3264   22098846.5674
  25291983.021    -2934772.57349  -2265261.03349  25291986.9404   25291994.7554
  21904630.376   -22673500.36149 -17655238.86649  21904633.3194   21904638.9834
  22998614.905   -14663484.35249 -11385394.50049  22998617.0064   22998624.1944
  24713228.291    -6394716.21749  -4967663.08749  24713232.7024   24713239.3184
  21650709.545   -24195291.37249 -18841045.31349  21650712.1774   21650717.2964
  23899488.783    -8528559.71949  -6632093.11449  23899489.7104   23899495.6334
  21562915.514   -26174716.998 9 -20130826.760 9  21562917.735    21562922.678
  21439913.360   -26224132.84249 -20148461.03849  21439916.0704   21439921.8334
 96  7 10  0 17 30.0010000  0  9 17 26  3  1  9 23 31 28 21
  22110201.820   -22340115.26649 -17391737.40049  22110205.0244   22110211.3184
  25310980.254    -2834954.56949  -2187480.80549  25310983.1204   25310988.6124
  21900412.011   -22695667.23049 -17672511.75549  21900415.0824   21900421.0724
  22979778.983   -14762466.66249 -11462523.52849  22979781.4774   22979788.3914
  24704311.005    -6441597.08949  -5004193.60549  24704311.6384   24704317.3554
  21657790.413   -24158080.28749 -18812049.66349  21657793.0934   21657798.4824
  23884359.362    -8608050.81949  -6694034.20849  23884362.0954   23884367.4164
  21572514.816   -26124270.192 9 -20091517.580 9  21572517.441    21572522.498
  21433950.308   -26255466.52549 -20172876.88649  21433953.2024   21433959.0514
 96  7 10  0 18  0.0010000  0  9 17 26  3  1  9 23 31 28 21
  22121627.377   -22280073.83949 -17344951.89849  22121630.6134   22121636.8404
  25330011.677    -2734928.32449  -2109538.31949  25330016.9094   25330023.1114
  21896308.320   -22717233.09049 -17689316.31749  21896311.3634   21896316.6404
  22961003.081   -14861135.69449 -11539408.43949  22961005.3574   22961012.0664
  24695463.368    -6488066.98249  -5040403.87049  24695467.8224   24695474.3844
  21664916.030   -24120637.08249 -18782873.14449  21664918.4504   21664923.6044
  23869309.980    -8687137.82849  -6755660.43649  23869312.9904   23869319.7304
  21582218.547   -26073276.810 9 -20051782.497 9  21582221.265    21582226.300
  21428040.772   -26286524.09649 -20197077.58449  21428043.0944   21428048.8164
 96  7 10  0 18 30.0010000  0  9 17 26  3  1  9 23 31 28 21
  22133113.684   -22219714.57849 -17297918.73649  22133116.6834   22133123.2654
  25349088.413    -2634701.14149  -2031439.26249  25349089.5774   25349097.0124
  21892318.469   -22738197.87649 -17705652.51649  21892321.9164   21892327.3004
  22942279.661   -14959524.98549 -11616075.37849  22942282.4424   22942289.5084
  24686702.537    -6534123.25749  -5076291.83649  24686704.1544   24686710.1514
  21672081.415   -24082980.20149 -18753530.12849  21672084.2154   21672089.5984
  23854341.734    -8765801.17449  -6816956.53249  23854344.8104   23854349.3464
  21592025.051   -26021743.843 9 -20011626.962 9  21592027.671    21592032.660
  21422181.881   -26317310.41749 -20221066.91849  21422184.7464   21422190.3464
 96  7 10  0 19  0.0010000  0  9 17 26  3  1  9 23 31 28 21
  22144659.977   -22159035.88849 -17250636.66249  22144663.3984   22144669.4534
  25368198.039    -2534272.17949  -1953182.97949  25368200.5844   25368207.9214
  21888447.581   -22758538.76649 -17721502.56049  21888451.0784   21888456.6074
  22923606.129   -15057655.20049 -11692540.44049  22923609.0454   22923615.6564
  24678019.007    -6579775.45649  -5111864.95349  24678016.4164   24678023.5944
  21679283.851   -24045131.38349 -18724037.54549  21679286.7634   21679292.2394
  23839451.640    -8844042.66149  -6877923.88649  23839455.1404   23839460.9624
  21601933.204   -25969675.721 9 -19971054.424 9  21601935.938    21601940.933
  21416376.051   -26347821.93549 -20244842.12249  21416378.4104   21416384.2194
 96  7 10  0 19 30.0010000  0  9 17 26  3  1  9 23 31 28 21
  22156265.820   -22098048.40049 -17203113.97049  22156268.9154   22156275.2874
  25387342.474    -2433664.16349  -1874787.16849  25387345.3504   25387351.6894
  21884695.045   -22778261.30849 -17736870.77349  21884697.9504   21884703.6274
  22904981.393   -15155528.00349 -11768804.91649  22904984.3264   22904990.8734
  24669402.626    -6625030.58149  -5147128.66849  24669405.0894   24669411.2244
  21686521.967   -24007097.34949 -18694400.64149  21686524.2844   21686529.7524
  23824642.870    -8921866.66849  -6938565.94849  23824645.2054   23824651.6584
  21611943.614   -25917073.128 9 -19930065.411 9  21611945.842    21611950.941
  21410624.805   -26378043.34049 -20268391.26449  21410627.5614   21410633.2364
 96  7 10  0 20  0.0010000  0  9 17 26  3  1  9 23 31 28 21
  22167931.870   -22036746.26249 -17155346.09349  22167934.7074   22167940.6794
  25406519.206    -2332898.99549  -1796268.89049  25406521.5224   25406527.9174
  21881060.926   -22797361.40549 -17751753.97249  21881063.5534   21881069.0514
  22886407.194   -15253140.33449 -11844866.43249  22886409.5064   22886415.2194
  24660870.225    -6669884.76249  -5182079.95649  24660869.9474   24660875.5964
  21693799.750   -23968851.38049 -18664598.59549  21693801.9994   21693807.6964
  23809913.920    -8999263.54649  -6998875.17649  23809917.6564   23809923.3034
  21622057.329   -25863924.626 9 -19888651.017 9  21622059.644    21622064.882
  21404929.672   -26407971.05249 -20291711.54949  21404932.4344   21404938.0454
 96  7 10  0 20 30.0010000  0  9 17 26  3  1  9 23 31 28 21
  22179655.950   -21975135.51949 -17107337.74049  22179658.5954   22179664.7294
  25425716.789    -2232005.27949  -1717650.46349  25425719.9484   25425726.0944
  21877544.606   -22815836.77149 -17766150.36149  21877547.7724   21877552.8234
  22867882.350   -15350489.29549 -11920722.71649  22867884.1974   22867891.1944
  24652396.644    -6714361.56149  -5216737.15849  24652404.9154   24652409.6964
  21701116.522   -23930400.94349 -18634637.22049  21701118.9994   21701124.5324
  23795265.486    -9076244.93349  -7058860.65249  23795268.3774   23795273.7814
  21632273.025   -25810241.120 9 -19846819.740 9  21632275.194    21632280.424
  21399287.097   -26437624.80849 -20314818.35949  21399289.4884   21399295.2164
 96  7 10  0 21  0.0010000  0  9 17 26  3  1  9 23 31 28 21
  22191436.839   -21913223.27749 -17059094.45549  22191440.4974   22191446.2654
  25444940.907    -2130989.17849  -1638936.64849  25444943.0304   25444949.9214
  21874145.373   -22833702.81649 -17780071.95749  21874148.0444   21874153.1554
  22849410.231   -15447555.94749 -11996359.01649  22849413.1594   22849419.8184
  24644010.068    -6758459.44149  -5251099.10649  24644014.2284   24644019.6494
  21708472.806   -23891744.06949 -18604514.98449  21708475.1314   21708480.5764
  23780692.505    -9152824.38049  -7118532.92549  23780695.6054   23780701.9434
  21642588.439   -25756031.872 9 -19804578.791 9  21642590.964    21642596.000
  21393693.361   -26467019.82249 -20337723.56049  21393695.8564   21393701.4794
 96  7 10  0 21 30.0010000  0  9 17 26  3  1  9 23 31 28 21
  22203277.182   -21851003.69949 -17010611.69049  22203280.3994   22203286.1184
  25464187.760    -2029844.21249  -1560122.43949  25464190.3834   25464197.3114
  21870855.101   -22850989.08849 -17793541.78449  21870858.4824   21870863.8444
  22830996.708   -15544320.01149 -12071759.54149  22831000.0734   22831005.9994
  24635689.740    -6802169.31949  -5285158.72749  24635696.1004   24635701.5904
  21715871.303   -23852864.40149 -18574219.14549  21715873.9664   21715879.2154
  23766199.084    -9228985.25449  -7177879.03849  23766202.4004   23766209.0394
  21653003.671   -25701296.826 9 -19761928.128 9  21653006.540    21653011.622
  21388148.008   -26496160.75949 -20360430.77349  21388150.6444   21388156.1814
 96  7 10  0 22  0.0010000  0  8 17  3  1  9 23 31 28 21
  22215179.286   -21788460.39449 -16961876.68549  22215181.9174   22215188.3074
  21867679.251   -22867680.75049 -17806548.28249  21867682.1544   21867687.7994
  22812641.705   -15640771.19049 -12146916.25549  22812645.6924   22812651.5464
  24627455.305    -6845474.10749  -5318902.67149  24627455.0354   24627461.1034
  21723313.294   -23813756.29849 -18543745.30849  21723315.7574   21723320.8794
  23751788.570    -9304716.15149  -7236890.10549  23751791.1564   23751796.9194
  21663520.692   -25646034.240 9 -19718866.394 9  21663522.812    21663527.877
  21382650.904   -26525047.13449 -20382939.62849  21382653.6924   21382659.1834
 96  7 10  0 22 30.0010000  0  8 17  3  1  9 23 31 28 21
  22227142.806   -21725587.98149 -16912885.21949  22227146.1904   22227152.5564
  21864617.451   -22883769.51249 -17819084.98649  21864620.7534   21864626.3384
  22794351.227   -15736902.68149 -12221823.86749  22794352.4604   22794358.9034
  24619291.473    -6888357.95849  -5352318.62249  24619295.3304   24619300.2994
  21730797.725   -23774425.77349 -18513098.16049  21730800.4274   21730805.5094
  23737460.848    -9380011.37849  -7295561.69449  23737463.1904   23737469.9854
  21674136.073   -25590247.262 9 -19675396.044 9  21674138.656    21674143.677
  21377204.563   -26553669.63349 -20405242.87049  21377207.0874   21377212.6614
 96  7 10  0 23  0.0010000  0  8 17  3  1  9 23 31 28 21
  22239171.810   -21662380.55649 -16863632.70149  22239174.3124   22239180.4494
  21861672.018   -22899247.59849 -17831145.83249  21861675.3574   21861680.7184
  22776116.470   -15832713.72849 -12296481.77349  22776119.9764   22776126.4954
  24611216.210    -6930790.25449  -5385382.70949  24611220.1874   24611226.2904
  21738323.926   -23734876.84949 -18482280.82349  21738326.4504   21738331.7184
  23723218.928    -9454860.20049  -7353885.43049  23723220.9504   23723224.5864
  21684853.314   -25533929.346 9 -19631511.969 9  21684855.789    21684860.687
  21371810.839   -26582009.69249 -20427326.03149  21371813.7774   21371819.6224
 96  7 10  0 23 30.0010000  0  8 17  3  1  9 23 31 28 21
  22251261.916   -21598844.16749 -16814123.85049  22251265.2084   22251271.0944
  21858846.861   -22914096.42549 -17842716.35849  21858849.3444   21858855.4834
  22757945.781   -15928210.82349 -12370895.04549  22757947.6404   22757953.4914
  24603227.800    -6972765.65549  -5418090.76849  24603233.9234   24603238.7664
  21745888.428   -23695121.32149 -18451302.50149  21745891.4674   21745896.8794
  23709057.116    -9529270.64549  -7411867.58049  23709059.5414   23709066.8834
  21695670.154   -25477082.883 9 -19587216.047 9  21695673.153    21695678.378
  21366473.345   -26610061.45549 -20449184.54949  21366475.9954   21366481.5234
 96  7 10  0 24  0.0010000  0  8 17  3  1  9 23 31 28 21
  22263415.982   -21534970.18049 -16764351.94149  22263419.4884   22263426.0704
  21856146.595   -22928282.85049 -17853770.72549  21856149.7714   21856155.8684
  22739834.837   -16023382.60849 -12445054.83349  22739836.8354   22739843.6684
  24595333.772    -7014267.33849  -5450429.71549  24595336.5014   24595341.3784
  21753493.234   -23655160.36849 -18420164.10549  21753495.9404   21753501.0684
  23694981.958    -9603231.40549  -7469499.32249  23694985.8194   23694992.0844
  21706592.658   -25419691.561 9 -19542495.560 9  21706594.385    21706599.608
  21361194.259   -26637801.13549 -20470799.87849  21361197.4014   21361202.6494
 96  7 10  0 24 30.0010000  0  8 17  3  1  9 23 31 28 21
  22275630.900   -21470785.01549 -16714337.55149  22275634.0074   22275639.8544
  21853567.413   -22941837.09749 -17864332.48649  21853570.5324   21853576.5064
  22721782.315   -16118251.48949 -12518978.59449  22721783.9124   22721790.1004
  24587521.461    -7055328.90649  -5482425.74049  24587521.0734   24587526.8884
  21761132.485   -23615019.53849 -18388885.55149  21761134.6104   21761139.8594
  23680990.576    -9676761.87449  -7526795.77249  23680993.0794   23681000.0674
  21717612.781   -25361776.212 9 -19497366.737 9  21717615.392    21717620.504
  21355972.091   -26665246.89849 -20492186.17749  21355974.4654   21355980.0054
 96  7 10  0 25  0.0010000  0  8 17  3  1  9 23 31 28 21
  22287903.129   -21406289.08449 -16664081.00849  22287906.4434   22287912.8834
  21851110.518   -22954750.38349 -17874394.79549  21851113.3604   21851118.9164
  22703787.386   -16212808.07249 -12592659.00849  22703790.5884   22703796.7944
  24579785.217    -7095954.20249  -5514081.75949  24579790.5904   24579795.7094
  21768805.652   -23574693.71449 -18357462.84149  21768808.1884   21768813.5374
  23667082.330    -9749851.26549  -7583748.53049  23667086.0924   23667090.4284
  21728733.990   -25303335.527 9 -19451828.562 9  21728736.342    21728741.502
  21350805.086   -26692397.24549 -20513342.28549  21350807.7924   21350813.5324
 96  7 10  0 25 30.0010000  0  8 17  3  1  9 23 31 28 21
  22300236.036   -21341487.61049 -16613586.38249  22300237.9294   22300244.2084
  21848772.424   -22967037.08049 -17883968.85749  21848775.3694   21848780.7954
  22685854.481   -16307045.31549 -12666090.58149  22685857.5204   22685864.1214
  24572134.974    -7136163.02549  -5545413.28349  24572139.3724   24572145.2834
  21776516.367   -23534175.18349 -18325889.97749  21776518.8794   21776524.1244
  23653258.809    -9822499.71449  -7640357.69149  23653260.1924   23653267.4734
  21739953.060   -25244377.725 9 -19405887.435 9  21739955.651    21739960.797
  21345691.720   -26719269.32649 -20534281.56049  21345694.2374   21345699.8294
 96  7 10  0 26  0.0010000  0  8 17  3  1  9 23 31 28 21
  22312626.126   -21276372.49049 -16562847.35749  22312629.3284   22312635.5164
  21846552.324   -22978699.00649 -17893056.08349  21846556.2954   21846561.7934
  22667985.069   -16400953.15849 -12739265.47749  22667987.4424   22667993.9764
  24564566.674    -7175953.00149  -5576418.41849  24564566.7014   24564573.4774
  21784265.643   -23493452.76649 -18294158.23649  21784267.5654   21784273.3904
  23639520.577    -9894686.13449  -7696606.83849  23639523.9514   23639528.8994
  21751271.908   -25184896.058 9 -19359538.106 9  21751274.565    21751279.837
  21340631.704   -26745859.48049 -20555001.15549  21340634.1164   21340639.9984
 96  7 10  0 26 30.0010000  0  8 17  3  1  9 23 31 28 21
  22325076.664   -21210946.54749 -16511866.13849  22325079.2124   22325085.1674
  21844452.318   -22989737.10649 -17901657.20949  21844455.6874   21844461.3874
  22650178.011   -16494530.96649 -12812183.20249  22650180.3834   22650186.4704
  24557069.907    -7215330.01749  -5607101.78549  24557074.5504   24557079.6284
  21792054.942   -23452519.08949 -18262261.87549  21792057.5034   21792062.7234
  23625871.583    -9966413.52549  -7752498.30249  23625874.8244   23625881.0234
  21762687.379   -25124904.651 9 -19312791.578 9  21762690.525    21762695.790
  21335621.683   -26772189.18649 -20575517.80649  21335624.2174   21335629.6624
 96  7 10  0 27  0.0010000  0  8 17  3  1  9 23 31 28 21
  22337587.896   -21145203.14149 -16460637.54249  22337590.0034   22337595.7464
  21842471.998   -23000144.62649 -17909766.97649  21842475.1084   21842480.8524
  22632435.034   -16587768.06049 -12884835.44349  22632437.4174   22632444.2394
  24549660.276    -7254282.96849  -5637454.70249  24549661.6904   24549666.1644
  21799887.426   -23411359.13149 -18230189.19249  21799889.6574   21799895.0494
  23612311.479   -10037674.82749  -7808026.57549  23612314.7814   23612320.0564
  21774200.846   -25064404.922 9 -19265648.955 9  21774203.356    21774208.515
  21330658.324   -26798271.63549 -20595841.78949  21330660.8984   21330666.2294
 96  7 10  0 27 30.0010000  0  8 17  3  1  9 23 31 28 21
  22350158.327   -21079136.34849 -16409156.95049  22350162.2594   22350167.9064
  21840610.548   -23009926.28449 -17917389.06149  21840613.7134   21840619.4534
  22614757.164   -16680664.21249 -12957222.01449  22614760.1734   22614766.2354
  24542324.945    -7292795.74549  -5667464.64949  24542332.7434   24542337.2444
  21807765.088   -23369961.29349 -18197931.14749  21807767.3224   21807772.8904
  23598840.283   -10108468.31049  -7863190.31649  23598843.0324   23598849.3024
  21785811.970   -25003388.154 9 -19218103.447 9  21785814.493    21785819.703
  21325742.489   -26824102.98249 -20615970.10449  21325745.1964   21325750.5604
 96  7 10  0 28  0.0010000  0  8 17  3  1  9 23 31 28 21
  22362791.118   -21012755.86149 -16357431.93249  22362794.0674   22362799.7314
  21838867.870   -23019082.52649 -17924523.80849  21838871.0994   21838877.1564
  22597141.709   -16773234.41249 -13029354.60549  22597144.6254   22597150.6814
  24535081.725    -7330869.07049  -5697132.14649  24535088.3464   24535092.6634
  21815685.978   -23328337.84849 -18165497.30449  21815688.0524   21815693.7254
  23585456.047   -10178800.01749  -7917994.23249  23585458.6534   23585464.6174
  21797519.649   -24941864.512 9 -19170162.966 9  21797521.857    21797527.119
  21320875.062   -26849679.45049 -20635899.80849  21320877.8814   21320883.7874
 96  7 10  0 28 30.0010000  0  8 17  3  1  9 23 31 28 21
  22375484.586   -20946047.70449 -16305451.58249  22375487.7484   22375494.0924
  21837245.951   -23027608.19649 -17931167.20349  21837249.0624   21837254.6334
  22579589.499   -16865469.63949 -13101226.18249  22579592.6704   22579598.9684
  24527931.541    -7368487.51949  -5726445.20749  24527929.8924   24527933.8184
  21823650.448   -23286482.06249 -18132882.42049  21823652.9914   21823658.5124
  23572160.079   -10248667.40549  -7972436.35549  23572163.1334   23572169.4794
  21809323.817   -24879830.641 9 -19121824.913 9  21809326.661    21809331.845
  21316058.658   -26874990.94149 -20655623.04149  21316061.3344   21316066.9664
 96  7 10  0 29  0.0010000  0  8 17  3  1  9 23 31 28 21
  22388237.642   -20879027.51549 -16253228.08449  22388241.6164   22388247.9064
  21835738.212   -23035530.28349 -17937340.26949  21835741.3474   21835747.0224
  22562099.068   -16957385.00349 -13172848.50649  22562101.5084   22562108.0744
  24520854.855    -7405653.76449  -5755405.87249  24520856.5104   24520861.4654
  21831654.627   -23244422.39149 -18100108.66149  21831656.7284   21831661.8434
  23558950.318   -10318088.91249  -8026531.02649  23558953.4824   23558958.8904
  21821224.251   -24817296.014 9 -19073096.659 9  21821226.584    21821231.983
  21311293.572   -26900031.28849 -20675134.98949  21311296.1824   21311302.0384
 96  7 10  0 29 30.0010000  0  8 17  3  1  9 23 31 28 21
  22401047.113   -20811714.25649 -16200776.21849  22401050.4254   22401057.0804
  21834342.536   -23042866.20949 -17943056.58849  21834345.2974   21834351.1254
  22544665.581   -17048997.01949 -13244234.46049  22544668.3804   22544674.7934
  24513866.809    -7442378.57049  -5784022.57149  24513867.9294   24513874.1424
  21839690.266   -23202192.68549 -18067202.40649  21839692.9784   21839698.0354
  23545822.135   -10387084.00349  -8080293.43149  23545824.0804   23545829.8724
  21833216.649   -24754275.295 9 -19023989.637 9  21833219.134    21833224.401
  21306581.754   -26924792.00749 -20694429.04949  21306584.2244   21306590.2024
 96  7 10  0 30  0.0010000  0  8 17  3  1  9 23 31 28 21
  22413919.941   -20744074.34549 -16148069.82549  22413922.0764   22413928.7994
  21833063.831   -23049584.78449 -17948291.85349  21833066.9434   21833072.3184
  22527296.176   -17140272.14949 -13315357.90749  22527299.3864   22527305.9054
  24506968.894    -7478648.27849  -5812284.65649  24506965.8884   24506972.1714
  21847759.457   -23159788.45649 -18034160.15749  21847762.0374   21847767.5524
  23532779.114   -10455627.52449  -8133703.96049  23532780.0844   23532786.4844
  21845305.240   -24690752.054 9 -18974491.033 9  21845307.173    21845312.386
  21301927.921   -26949246.73849 -20713484.67049  21301930.7164   21301936.3754
 96  7 10  0 30 30.0010000  0  8 17  3  1  9 23 31 28 21
  22426852.979   -20676113.42049 -16095113.29049  22426854.5884   22426861.2164
  21831899.667   -23055704.83449 -17953060.73449  21831902.3524   21831907.8344
  22509989.392   -17231224.41449 -13386229.76849  22509991.7284   22509998.0534
  24500154.000    -7514471.63449  -5840198.91649  24500148.8334   24500154.7184
  21855858.445   -23117228.31949 -18000996.42049  21855861.0094   21855866.2064
  23519818.799   -10523727.54649  -8186768.90449  23519820.7254   23519827.2874
  21857485.766   -24626740.830 9 -18924612.185 9  21857488.177    21857493.272
  21297329.650   -26973411.32749 -20732314.21249  21297332.3044   21297338.2384
 96  7 10  0 31  0.0010000  0  8 17  3  1  9 23 31 28 21
  22439844.898   -20607837.09349 -16041910.98949  22439847.2254   22439853.4834
  21830848.499   -23061226.93249 -17957363.67749  21830851.6934   21830857.3644
  22492742.245   -17321857.86249 -13456853.20949  22492744.7284   22492750.9394
  24493413.755    -7549856.88249  -5867771.80149  24493416.4764   24493421.8004
  21863988.671   -23074504.26249 -17967704.95549  21863990.8914   21863996.2584
  23506945.917   -10591373.88649  -8239480.32749  23506949.0214   23506954.6104
  21869758.787   -24562244.907 9 -18874355.648 9  21869761.351    21869766.597
  21292787.411   -26997283.82349 -20750916.15349  21292789.7234   21292795.5004
 96  7 10  0 31 30.0010000  0  8 17  3  1  9 23 31 28 21
  22452896.593   -20539238.13449 -15988457.28649  22452901.3494   22452908.1224
  21829916.585   -23066125.60049 -17961180.83349  21829919.5524   21829924.8864
  22475557.255   -17412162.64449 -13527220.53449  22475560.2244   22475566.6764
  24486757.108    -7584804.56449  -5895003.71249  24486765.8264   24486771.1004
  21872152.607   -23031599.40249 -17934272.60749  21872155.4304   21872160.7114
  23494164.043   -10658545.57549  -8291821.88849  23494165.8404   23494171.9974
  21882124.688   -24497262.637 9 -18823720.137 9  21882127.196    21882132.311
  21288298.787   -27020870.26749 -20769295.19249  21288301.4254   21288306.9424
 96  7 10  0 32  0.0010000  0  8 17  3  1  9 23 31 28 21
  22466017.304   -20470298.35049 -15934738.00849  22466020.4634   22466026.6994
  21829104.247   -23070393.65949 -17964506.59849  21829107.1534   21829113.2624
  22458438.611   -17502124.54549 -13597320.68649  22458441.1914   22458447.5384
  24480205.715    -7619302.21949  -5921884.99349  24480200.7184   24480207.1364
  21880354.963   -22988497.51049 -17900686.72449  21880357.6424   21880362.7954
  23481476.600   -10725217.35349  -8343773.91849  23481478.9954   23481484.4874
  21894584.508   -24431786.960 9 -18772700.157 9  21894586.691    21894591.974
  21283863.973   -27044174.09149 -20787454.00649  21283866.8434   21283872.5304
 96  7 10  0 32 30.0010000  0  8 17  3  1  9 23 31 28 21
  22479200.145   -20401026.49549 -15880759.96549  22479202.3754   22479208.8334
  21828411.338   -23074032.50149 -17967342.06749  21828414.9804   21828420.6844
  22441384.490   -17591743.08649 -13667153.28149  22441387.2234   22441393.4734
  24473717.479    -7653343.85549  -5948410.91449  24473723.3734   24473728.1694
  21888597.516   -22945183.90749 -17866935.87049  21888599.7894   21888605.3454
  23468884.731   -10791385.36549  -8395333.38249  23468887.1174   23468893.1714
  21907137.786   -24365818.591 9 -18721296.261 9  21907140.182    21907145.397
  21279483.278   -27067195.36749 -20805392.65349  21279486.0334   21279491.5524
 96  7 10  0 33  0.0010000  0  8 17  3  1  9 23 31 28 21
  22492442.203   -20331437.00949 -15826534.42349  22492444.0784   22492450.8874
  21827842.416   -23077024.94949 -17969673.85249  21827845.5524   21827851.2074
  22424400.010   -17680999.40249 -13736703.62249  22424402.3934   22424408.9854
  24467327.950    -7686927.13149  -5974579.66649  24467332.4054   24467337.5494
  21896879.803   -22901659.72349 -17833020.92949  21896882.3664   21896887.4594
  23456386.704   -10857059.64749  -8446508.13249  23456390.3594   23456395.1824
  21919783.690   -24299361.102 9 -18669511.234 9  21919786.629    21919791.750
  21275153.211   -27089947.10649 -20823121.28049  21275156.6024   21275162.2024
 96  7 10  0 33 30.0010000  0  8 17  3  1  9 23 31 28 21
  22505746.607   -20261521.93049 -15772055.16849  22505749.3614   22505755.5774
  21827397.436   -23079362.93949 -17971495.66849  21827400.5054   21827406.3384
  22407486.738   -17769878.70149 -13805960.18149  22407489.2154   22407495.5964
  24461028.512    -7720043.18949  -6000384.35949  24461030.4564   24461037.1274
  21905197.893   -22857946.65249 -17798958.80249  21905200.7594   21905205.8244
  23443983.361   -10922244.88249  -8497301.80449  23443986.1304   23443991.8734
  21932523.531   -24232416.095 9 -18617346.321 9  21932525.789    21932531.025
  21270873.719   -27112439.58049 -20840647.88049  21270876.2414   21270882.2294
 96  7 10  0 34  0.0010000  0  8 17  3  1  9 23 31 28 21
  22519111.110   -20191284.76049 -15717324.94449  22519114.4054   22519121.3004
  21827075.530   -23081054.88849 -17972814.07649  21827078.2614   21827084.2074
  22390646.177   -17858376.30349 -13874919.31149  22390648.4884   22390655.3474
  24454816.832    -7752682.36549  -6025817.48049  24454819.7664   24454825.1124
  21913552.135   -22814047.81049 -17764751.91949  21913554.6974   21913559.7094
  23431671.704   -10986945.23149  -8547717.65449  23431673.0414   23431678.5494
  21945355.112   -24164986.828 9 -18564804.065 9  21945357.127    21945362.520
  21266643.514   -27134668.42149 -20857969.05449  21266646.1524   21266652.1484
 96  7 10  0 34 30.0010000  0  8 17  3  1  9 23 31 28 21
  22532537.577   -20120734.80149 -15662350.97749  22532539.9554   22532546.2804
  21826879.375   -23082084.19849 -17973616.14549  21826882.3724   21826888.4314
  22373879.468   -17946483.36049 -13943574.12549  22373882.2114   22373888.7254
  24448707.564    -7784825.81849  -6050864.29149  24448702.1444   24448709.5174
  21921941.242   -22769960.80649 -17730398.42049  21921943.9454   21921949.0194
  23419451.593   -11051160.83449  -8597755.76749  23419453.1804   23419459.5494
  21958278.928   -24097070.569 9 -18511882.334 9  21958281.067    21958286.530
  21262463.859   -27156629.81949 -20875081.82649  21262467.0874   21262472.9464
 96  7 10  0 35  0.0010000  0  8 17  3  1  9 23 31 28 21
  22546019.007   -20049887.67749 -15607145.45049  22546021.8774   22546027.8894
  21826804.878   -23082477.73849 -17973922.81049  21826807.8604   21826813.8774
  22357184.766   -18034217.33749 -14011938.22249  22357187.0464   22357193.7254
  24442672.137    -7816485.26549  -6075533.96249  24442677.8814   24442683.2954
  21930362.766   -22725709.05049 -17695916.54249  21930364.9084   21930369.8904
  23407321.795   -11114900.34149  -8647422.90249  23407325.0824   23407330.2254
  21971291.576   -24028686.649 9 -18458596.192 9  21971294.216    21971299.572
  21258334.046   -27178334.35949 -20891994.44949  21258336.6054   21258342.8094
 96  7 10  0 35 30.0010000  0  8 17  3  1  9 23 31 28 21
  22559559.921   -19978731.98849 -15551699.48349  22559562.5834   22559568.7744
  21826847.287   -23082254.11849 -17973748.57149  21826850.1254   21826856.0124
  22340559.037   -18121588.54249 -14080019.64549  22340561.0204   22340567.3014
  24436745.234    -7847664.58249  -6099829.51549  24436743.8094   24436750.4514
  21938814.458   -22681290.37249 -17661304.59349  21938817.1044   21938822.3404
  23395288.456   -11178143.80449  -8696703.51249  23395289.4054   23395295.2034
  21984394.815   -23959832.742 9 -18404943.823 9  21984396.751    21984402.095
  21254255.396   -27199767.18649 -20908695.34749  21254258.2404   21254264.1764
 96  7 10  0 36  0.0010000  0  8 17  3  1  9 23 31 28 21
  22573155.900   -19907277.53549 -15496020.71849  22573159.7534   22573165.9274
  21827005.029   -23081423.46249 -17973101.32149  21827008.2734   21827013.9774
  22324001.302   -18208596.97449 -14147818.38949  22324003.7734   22324010.0054
  24430899.644    -7878359.15049  -6123747.34649  24430902.9304   24430909.3084
  21947300.861   -22636695.61949 -17626555.44749  21947303.1884   21947308.5454
  23383347.391   -11240887.42049  -8745594.61349  23383350.5554   23383355.9544
  21997587.091   -23890506.832 9 -18350923.663 9  21997589.054    21997594.311
  21250232.580   -27220910.01349 -20925170.27849  21250234.8504   21250240.8684
 96  7 10  0 36 30.0010000  0  8 17  3  1  9 23 31 28 21
  22586811.637   -19835524.90249 -15440109.60449  22586814.0804   22586819.8404
  21827276.564   -23079997.95549 -17971990.54549  21827279.7324   21827285.0794
  22307511.515   -18295249.42449 -14215339.74749  22307514.1574   22307520.5284
  24425151.031    -7908581.60549  -6147297.29349  24425152.9074   24425158.2524
  21955819.294   -22591928.18849 -17591671.74749  21955822.5924   21955827.5704
  23371500.997   -11303140.34749  -8794103.37549  23371503.8104   23371509.7744
  22010866.817   -23820718.457 9 -18296543.141 9  22010869.364    22010874.491
  21246262.147   -27241773.00849 -20941427.15049  21246264.8264   21246270.8294
 96  7 10  0 37  0.0010000  0  8 17  3  1  9 23 31 28 21
  22600524.520   -19763454.11649 -15383950.58049  22600528.1894   22600534.9114
  21827662.055   -23077971.68949 -17970411.64749  21827665.1204   21827670.8024
  22291092.294   -18381536.52549 -14282576.41649  22291094.3614   22291100.5014
  24419480.843    -7938337.20649  -6170483.44249  24419490.9494   24419495.9874
  21964375.825   -22546968.35049 -17556638.12249  21964377.8174   21964383.3614
  23359746.648   -11364906.66049  -8842232.96349  23359749.7344   23359755.9134
  22024237.167   -23750458.067 9 -18241794.815 9  22024239.532    22024244.638
  21242346.693   -27262347.85149 -20957459.49749  21242349.5354   21242355.6454
 96  7 10  0 37 30.0010000  0  8 17  3  1  9 23 31 28 21
  22614301.221   -19691071.46649 -15327548.53449  22614302.2194   22614308.2704
  21828161.177   -23075348.22749 -17968367.40749  21828164.3264   21828170.1844
  22274740.165   -18467467.31549 -14349535.44349  22274742.2524   22274748.4364
  24413914.998    -7967628.76649  -6193308.00849  24413915.8964   24413921.7264
  21972965.611   -22501827.54949 -17521463.48349  21972967.8144   21972973.4464
  23348082.581   -11426207.78149  -8890000.04949  23348084.8874   23348091.3084
  22037695.718   -23679735.348 9 -18186686.230 9  22037697.685    22037702.752
  21238482.659   -27282656.33149 -20973284.28649  21238485.0394   21238490.6914
 96  7 10  0 38  0.0010000  0  8 17  3  1  9 23 31 28 21
  22628131.342   -19618384.18849 -15270909.11449  22628134.4184   22628139.9984
  21828774.687   -23072125.26949 -17965856.02149  21828777.5314   21828782.9924
  22258456.075   -18553036.70949 -14416212.86249  22258458.8634   22258464.9724
  24408431.370    -7996437.00449  -6215755.96249  24408434.5994   24408439.6914
  21981590.209   -22456503.13649 -17486145.76949  21981592.8244   21981598.3074
  23336502.540   -11487056.23549  -8937414.41049  23336505.2124   23336511.4674
  22051240.497   -23608555.602 9 -18131221.521 9  22051242.889    22051247.610
  21234666.830   -27302707.99249 -20988908.95549  21234669.3584   21234675.0744
 96  7 10  0 38 30.0010000  0  8 17  3  1  9 23 31 28 21
  22642024.863   -19545378.77149 -15214021.80749  22642027.2594   22642032.9904
  21829507.600   -23068271.55349 -17962853.13849  21829511.0384   21829516.3484
  22242244.716   -18638229.92449 -14482597.15749  22242247.6554   22242253.0424
  24403051.383    -8024743.78349  -6237813.17149  24403047.5544   24403053.5774
  21990253.939   -22410978.53049 -17450672.06549  21990255.8374   21990261.3074
  23325013.669   -11547423.23149  -8984453.61649  23325017.5294   23325023.3454
  22064874.483   -23536906.991 9 -18075391.463 9  22064877.174    22064882.064
  21230899.970   -27322500.48649 -21004331.67949  21230902.6644   21230908.4194
 96  7 10  0 39  0.0010000  0  8 17  3  1  9 23 31 28 21
  22655973.044   -19472071.26949 -15156899.10049  22655977.1034   22655982.9024
  21830361.629   -23063786.45649 -17959358.27349  21830364.7644   21830370.1044
  22226105.267   -18723041.22749 -14548683.85649  22226108.0144   22226113.8764
  24397753.776    -8052552.92749  -6259482.62249  24397755.8164   24397761.8904
  21998952.512   -22365267.10049 -17415052.78449  21998954.6554   21998960.0584
  23313622.774   -11607293.24949  -9031105.55749  23313624.9424   23313630.1284
  22078597.543   -23464793.561 9 -18019199.212 9  22078599.696    22078604.921
  21227183.140   -27342034.32349 -21019552.84849  21227186.0664   21227191.6004
 96  7 10  0 39 30.0010000  0  8 17  3  1  9 23 31 28 21
  22669980.633   -19398465.83149 -15099544.24249  22669983.6784   22669989.6574
  21831335.833   -23058665.81449 -17955368.18049  21831338.8754   21831344.6354
  22210043.166   -18807448.43349 -14614455.67549  22210045.9054   22210051.6834
  24392559.529    -8079844.55149  -6280748.79949  24392561.2414   24392567.5064
  22007684.525   -22319378.44149 -17379295.40249  22007686.8364   22007692.3764
  23302332.660   -11666626.55049  -9077339.29349  23302334.4264   23302340.8494
  22092408.139   -23392217.192 9 -17962646.230 9  22092410.686    22092415.913
  21223517.486   -27361297.43149 -21034563.06549  21223520.0154   21223525.9644
 96  7 10  0 40  0.0010000  0  8 17  3  1  9 23 31 28 21
  22684038.042   -19324597.10049 -15041984.21549  22684040.1024   22684046.4124
  21832427.938   -23052928.03449 -17950897.20149  21832431.0204   21832436.6344
  22194057.092   -18891457.19449 -14679917.01749  22194059.6864   22194065.5714
  24387457.407    -8106656.66549  -6301641.34049  24387458.9984   24387464.3154
  22016447.551   -22273329.24149 -17343412.92449  22016450.0494   22016455.3884
  23291141.362   -11725432.33749  -9123161.96149  23291144.1014   23291149.7804
  22106301.759   -23319207.670 9 -17905755.729 9  22106304.056    22106309.225
  21219900.672   -27380304.46249 -21049373.73649  21219903.0154   21219909.0014
 96  7 10  0 40 30.0010000  0  8 17  3  1  9 23 31 28 21
  22698152.001   -19250428.40249 -14984190.44749  22698154.4234   22698160.3784
  21833645.422   -23046530.25749 -17945911.94049  21833648.5644   21833654.1274
  22178154.287   -18975027.52449 -14745036.72149  22178156.7484   22178162.5124
  24382445.612    -8132962.85149  -6322139.64749  24382453.0004   24382459.7944
  22025246.445   -22227091.62949 -17307383.63149  22025248.5504   22025254.2414
  23280060.558   -11783668.60149  -9168540.85549  23280062.4264   23280068.0024
  22120282.944   -23245734.279 9 -17848503.765 9  22120285.590    22120290.739
  21216341.251   -27399008.48649 -21063948.29549  21216343.8114   21216349.8454
 96  7 10  0 41  0.0010000  0  8 17  3  1  9 23 31 28 21
  22712322.088   -19175959.46249 -14926162.72649  22712325.2094   22712331.5074
  21834981.803   -23039508.96849 -17940440.82149  21834984.7394   21834990.2894
  22162329.866   -19058184.82649 -14809834.58949  22162332.3684   22162338.3964
  24377533.940    -8158778.45349  -6342255.67949  24377541.4334   24377546.8734
  22034077.874   -22180679.24849 -17271218.15349  22034080.5544   22034086.0544
  23269081.570   -11841362.81849  -9213497.37549  23269083.8174   23269088.6674
  22134348.903   -23171817.432 9 -17790906.255 9  22134351.428    22134356.754
  21212837.993   -27417419.29149 -21078294.36949  21212840.6404   21212846.2384
 96  7 10  0 41 30.0010000  0  8 17  3  1  9 23 31 28 21
  22726552.860   -19101169.59549 -14867884.93149  22726557.4564   22726563.3164
  21836436.686   -23031861.20149 -17934481.54049  21836439.9544   21836445.4644
  22146581.498   -19140943.77349 -14874322.04449  22146583.7294   22146589.4534
  24372721.296    -8184092.61749  -6361980.97849  24372724.2584   24372729.8954
  22042945.273   -22134082.31049 -17234908.86649  22042947.5404   22042953.3104
  23258203.647   -11898522.93549  -9258037.71449  23258205.8504   23258212.0334
  22148499.527   -23097454.124 9 -17732960.852 9  22148502.276    22148507.455
  21209392.105   -27435528.20749 -21092405.20349  21209394.4464   21209400.0904
 96  7 10  0 42  0.0010000  0  8 17  3  1  9 23 31 28 21
  22740848.565   -19026052.06749 -14809351.81349  22740851.4964   22740857.7224
  21838011.093   -23023586.47949 -17928033.72349  21838014.4854   21838020.1834
  22130901.901   -19223339.51049 -14938526.48549  22130904.5144   22130910.2404
  24367994.739    -8208923.16849  -6381329.43549  24367999.2134   24368005.8314
  22051848.173   -22087296.81249 -17198452.64249  22051850.3644   22051856.1424
  23247424.618   -11955164.27049  -9302173.80849  23247427.6964   23247433.8044
  22162735.706   -23022648.598 9 -17674670.865 9  22162737.338    22162742.738
  21206001.714   -27453344.32749 -21106287.89149  21206004.2374   21206009.9334
 96  7 10  0 42 30.0010000  0  8 17  3  1  9 23 31 28 21
  22755207.346   -18950592.35449 -14750552.05349  22755210.8144   22755217.9744
  21839704.554   -23014687.19949 -17921099.23549  21839708.0344   21839713.8174
  22115287.888   -19305391.63049 -15002463.17449  22115290.5594   22115295.8544
  24363368.148    -8233253.42149  -6400288.05449  24363369.0944   24363375.3514
  22060786.384   -22040325.27149 -17161851.45049  22060788.7814   22060794.1754
  23236746.413   -12011282.94849  -9345902.63849  23236748.1564   23236755.1894
  22177054.475   -22947399.512 9 -17616035.250 9  22177056.660    22177062.079
  21202665.078   -27470876.36949 -21119949.20949  21202668.1184   21202673.3924
 96  7 10  0 43  0.0010000  0  8 17  3  1  9 23 31 28 21
  22769629.123   -18874806.45949 -14691498.14249  22769632.5514   22769639.1334
  21841514.967   -23005176.50149 -17913688.31749  21841517.7824   21841523.6194
  22099736.462   -19387116.72249 -15066145.03749  22099738.8784   22099744.6954
  24358829.130    -8257115.79149  -6418882.08049  24358828.9534   24358834.3344
  22069758.118   -21993181.22949 -17125115.84549  22069760.0084   22069765.7994
  23226163.436   -12066894.70449  -9389236.47049  23226166.4444   23226172.1484
  22191453.943   -22871727.882 9 -17557070.380 9  22191456.342    22191461.973
  21199375.716   -27488164.67649 -21133420.61649  21199378.4804   21199383.9094
 96  7 10  0 43 30.0010000  0  8 17  3  1  9 23 31 28 21
  22784111.966   -18798699.15649 -14632193.78449  22784115.2974   22784121.7764
  21843447.401   -22995022.67449 -17905776.26249  21843450.3094   21843456.0524
  22084252.578   -19468480.11949 -15129545.05649  22084255.7774   22084261.5234
  24354385.850    -8280493.09349  -6437098.15549  24354379.9444   24354386.3044
  22078762.718   -21945858.44249 -17088240.95749  22078765.3274   22078770.6024
  23215681.161   -12121978.84049  -9432159.16349  23215683.7124   23215690.0114
  22205935.818   -22795623.729 9 -17497768.479 9  22205938.535    22205944.111
  21196133.534   -27505201.82449 -21146696.31549  21196136.2124   21196141.6434
 96  7 10  0 44  0.0010000  0  8 17  3  1  9 23 31 28 21
  22798655.271   -18722278.49749 -14572645.25349  22798657.5824   22798663.9284
  21845502.977   -22984218.61349 -17897357.52749  21845506.2004   21845511.7184
  22068845.570   -19549448.48849 -15192637.26149  22068848.0984   22068853.6854
  24350018.899    -8303364.80849  -6454920.25349  24350028.2574   24350033.4064
  22087803.025   -21898352.32449 -17051223.20949  22087805.4194   22087810.6764
  23205300.779   -12176533.73949  -9474669.46249  23205302.4714   23205307.7014
  22220500.967   -22719087.470 9 -17438129.865 9  22220503.110    22220508.430
  21192937.771   -27521993.68449 -21159780.87349  21192940.8014   21192946.2114
 96  7 10  0 44 30.0010000  0  8 17  3  1  9 23 31 28 21
  22813254.210   -18645555.01749 -14512860.75049  22813257.0034   22813264.0844
  21847680.104   -22972776.16749 -17888441.34749  21847683.6294   21847689.1904
  22053518.251   -19629995.54549 -15255401.17749  22053520.3744   22053526.1424
  24345772.894    -8325717.48749  -6472337.91849  24345774.1444   24345780.0984
  22096875.462   -21850674.30249 -17014071.52049  22096878.2624   22096883.6374
  23195016.508   -12230572.07549  -9516777.25649  23195019.2824   23195024.8114
  22235146.640   -22642121.536 9 -17378156.446 9  22235149.170    22235154.588
  21189791.636   -27538528.83449 -21172665.40549  21189794.1944   21189799.4844
 96  7 10  0 45  0.0010000  0  8 17  3  1  9 23 31 28 21
  22827907.687   -18568553.11249 -14452859.29149  22827910.6264   22827917.3324
  21849975.810   -22960713.70249 -17879042.04149  21849978.9294   21849984.5924
  22038271.608   -19710114.56949 -15317831.55649  22038274.0514   22038280.0834
  24341621.752    -8347556.41349  -6489355.24349  24341617.8044   24341623.9014
  22105979.929   -21802832.52249 -16976792.21649  22105982.3854   22105987.7204
  23184829.160   -12284109.21949  -9558494.50349  23184831.5064   23184837.4444
  22249873.044   -22564734.095 9 -17317854.570 9  22249875.756    22249880.977
  21186696.252   -27554794.51249 -21185339.94849  21186698.9124   21186704.5174
 96  7 10  0 45 30.0010000  0  8 17  3  1  9 23 31 28 21
  22842611.449   -18491289.11349 -14392653.60049  22842613.8884   22842620.0694
  21852384.468   -22948058.04549 -17869180.50749  21852387.3524   21852392.9564
  22023105.830   -19789811.57349 -15379933.09349  22023108.2094   22023114.0304
  24337564.634    -8368863.37449  -6505958.05449  24337564.0314   24337569.6114
  22115112.664   -21754840.06549 -16939395.50349  22115115.1264   22115120.1964
  23174736.194   -12337151.67249  -9599826.28449  23174738.4104   23174743.6574
  22264678.333   -22486934.685 9 -17257231.685 9  22264680.531    22264685.734
  21183655.680   -27570772.62849 -21197790.42949  21183658.3714   21183663.6824
 96  7 10  0 46  0.0010000  0  8 17  3  1  9 23 31 28 21
  22857368.123   -18413741.83249 -14332227.17649  22857370.1144   22857376.6484
  21854905.913   -22934805.58749 -17858853.92449  21854909.1924   21854914.6564
  22008021.477   -19869082.12749 -15441702.33049  22008023.6364   22008029.2934
  24333609.651    -8389632.15049  -6522141.50149  24333610.4614   24333617.4914
  22124277.839   -21706675.73749 -16901864.86749  22124280.5154   22124285.7684
  23164737.504   -12389689.17349  -9640764.58749  23164740.9534   23164746.7614
  22279563.913   -22408712.319 9 -17196279.220 9  22279565.773    22279570.991
  21180672.990   -27586447.59249 -21210004.68349  21180675.4574   21180680.8894
 96  7 10  0 46 30.0010000  0  8 17  3  1  9 23 31 28 21
  22872177.044   -18335923.50749 -14271589.54949  22872178.4794   22872184.9164
  21857540.918   -22920960.17949 -17848065.30649  21857543.8374   21857549.7584
  21993014.707   -19947941.04449 -15503150.81649  21993017.4074   21993023.0974
  24329749.438    -8409892.37249  -6537928.66649  24329755.8024   24329761.0164
  22133475.696   -21658343.17249 -16864203.14149  22133477.7134   22133483.2794
  23154838.657   -12441711.30349  -9681301.31149  23154841.1434   23154847.2484
  22294527.332   -22330076.786 9 -17135004.816 9  22294529.649    22294535.000
  21177747.190   -27601822.44649 -21221985.08349  21177749.8664   21177755.3124
 96  7 10  0 47  0.0010000  0  8 17  3  1  9 23 31 28 21
  22887040.583   -18257809.14149 -14210721.25149  22887043.1784   22887050.2914
  21860292.792   -22906499.39749 -17836797.18549  21860295.3734   21860301.1754
  21978090.053   -20026372.41849 -15564266.14749  21978092.1784   21978097.9334
  24326001.760    -8429645.93949  -6553321.03649  24325997.0304   24326003.1994
  22142709.042   -21609821.81949 -16826394.30149  22142711.0634   22142716.2914
  23145043.431   -12493187.17649  -9721412.37649  23145045.1624   23145051.4234
  22309570.294   -22251024.907 9 -17073405.988 9  22309572.738    22309578.108
  21174875.793   -27616910.45449 -21233741.96749  21174878.4514   21174884.2954
 96  7 10  0 47 30.0010000  0  8 17  3  1  9 23 31 28 21
  22901965.258   -18179382.20449 -14149609.38549  22901967.8124   22901973.9214
  21863163.361   -22891414.13549 -17825042.44749  21863166.0984   21863171.8244
  21963245.172   -20104381.73349 -15625052.60249  21963247.5924   21963253.2874
  24322327.585    -8448913.22849  -6568334.48849  24322330.4814   24322337.0464
  22151974.886   -21561126.94749 -16788450.25149  22151977.6834   22151982.6174
  23135352.457   -12544113.47249  -9761095.20649  23135354.8814   23135359.9024
  22324690.821   -22171569.078 9 -17011492.399 9  22324692.653    22324698.135
  21172053.690   -27631741.38849 -21245298.53749  21172056.2034   21172061.6754
 96  7 10  0 48  0.0010000  0  8 17  3  1  9 23 31 28 21
  22916950.242   -18100634.56049 -14088247.62149  22916952.8614   22916959.3154
  21866154.457   -22875695.64849 -17812794.29349  21866157.2334   21866163.3304
  21948480.650   -20181965.39249 -15685507.37749  21948484.0324   21948489.6144
  24318753.943    -8467708.00249  -6582979.72749  24318753.9244   24318759.0434
  22161274.549   -21512259.53649 -16750371.75549  22161276.6864   22161281.8864
  23125767.551   -12594482.37149  -9800343.69249  23125769.8284   23125775.8254
  22339888.412   -22091704.188 9 -16949260.060 9  22339890.349    22339895.930
  21169278.296   -27646327.75149 -21256664.53049  21169280.3274   21169286.0484
 96  7 10  0 48 30.0010000  0  8 17  3  1  9 23 31 28 21
  22931993.261   -18021578.08049 -14026645.20449  22931996.8694   22932003.7804
  21869260.851   -22859371.48449 -17800074.18149  21869263.7924   21869269.5904
  21933798.041   -20259126.66849 -15745633.02349  21933800.3234   21933806.0364
  24315266.794    -8486036.98249  -6597262.04849  24315265.9704   24315270.5164
  22170601.602   -21463243.50149 -16712177.45749  22170604.1724   22170609.1534
  23116288.645   -12644295.81749  -9839159.36449  23116290.8464   23116295.9594
  22355161.531   -22011442.756 9 -16886718.724 9  22355163.626    22355169.089
  21166546.333   -27660681.49949 -21267849.26749  21166549.0274   21166554.6684
 96  7 10  0 49  0.0010000  0  8 17  3  1  9 23 31 28 21
  22947100.685   -17942194.35649 -13964787.79649  22947103.3404   22947109.5204
  21872480.819   -22842449.62249 -17786888.32449  21872484.0744   21872489.5784
  21919197.000   -20335857.96249 -15805423.62049  21919198.9384   21919204.9764
  24311874.744    -8503869.29649  -6611157.33849  24311873.6944   24311877.6354
  22179956.743   -21414080.79849 -16673868.86749  22179959.6964   22179964.5244
  23106914.199   -12693551.78649  -9877540.63249  23106917.2974   23106923.2274
  22370512.519   -21930774.159 9 -16823860.113 9  22370514.266    22370519.741
  21163863.347   -27674782.11149 -21278836.75349  21163865.7634   21163871.4354
 96  7 10  0 49 30.0010000  0  8 17  3  1  9 23 31 28 21
  22962259.638   -17862528.44649 -13902710.50749  22962263.0144   22962269.7034
  21875809.341   -22824959.06549 -17773259.33449  21875812.1154   21875817.8234
  21904670.826   -20412185.59849 -15864899.67349  21904674.2794   21904679.9524
  24308575.823    -8521195.06949  -6624657.92349  24308575.0604   24308581.8404
  22189336.908   -21364787.06549 -16635458.17149  22189339.8004   22189345.2164
  23097641.944   -12742276.54049  -9915507.96949  23097644.9984   23097650.7294
  22385937.886   -21849710.676 9 -16760693.796 9  22385940.157    22385945.721
  21161228.543   -27688630.12849 -21289627.41349  21161230.8204   21161236.4614
 96  7 10  0 50  0.0010000  0  8 17  3  1  9 23 31 28 21
  22977469.936   -17782596.98649 -13840426.29349  22977473.6954   22977479.7644
  21879244.282   -22806908.40849 -17759193.90349  21879247.2724   21879253.0524
  21890224.522   -20488106.54149 -15924058.83349  21890226.7544   21890232.5714
  24305376.251    -8537987.68449  -6637743.07849  24305379.4544   24305385.8144
  22198746.135   -21315343.12249 -16596930.43249  22198748.7744   22198754.2764
  23088472.165   -12790469.81549  -9953061.16349  23088474.5304   23088480.4184
  22401438.875   -21768253.625 9 -16697220.810 9  22401440.960    22401446.500
  21158642.315   -27702214.50949 -21300212.64149  21158645.6514   21158651.3104
 96  7 10  0 50 30.0010000  0  8 17  3  1  9 23 31 28 21
  22992731.529   -17702397.11649 -13777932.92149  22992735.4624   22992741.9394
  21882788.510   -22788282.10349 -17744679.91749  21882791.5844   21882797.4674
  21875856.172   -20563616.05749 -15982897.38949  21875858.0974   21875863.5474
  24302289.812    -8554225.12749  -6650395.60549  24302290.2244   24302295.4254
  22208186.171   -21265737.61049 -16558276.79649  22208188.3134   22208193.6354
  23079401.373   -12838134.68949  -9990202.61649  23079404.4954   23079409.9614
  22417013.328   -21686407.799 9 -16633444.883 9  22417015.701    22417021.306
  21156109.464   -27715527.48449 -21310586.38149  21156112.3314   21156118.0574
 96  7 10  0 51  0.0010000  0  8 17  3  1  9 23 31 28 21
  23008047.241   -17621923.88249 -13715226.54549  23008048.4514   23008055.3894
  21886448.014   -22769050.57449 -17729694.32949  21886451.1554   21886457.0964
  21861565.071   -20638711.52649 -16041413.31649  21861567.7764   21861573.1994
  24299311.523    -8569893.30949  -6662604.56249  24299308.9174   24299314.7104
  22217658.944   -21215955.53049 -16519485.57749  22217661.3154   22217666.6834
  23070432.952   -12885264.35249 -10026927.01549  23070435.0354   23070441.2654
  22432662.519   -21604169.790 9 -16569363.355 9  22432665.254    22432670.695
  21153629.294   -27728562.10249 -21320743.22149  21153632.0474   21153637.4344
 96  7 10  0 51 30.0010000  0  8 17  3  1  9 23 31 28 21
  23023412.263   -17541176.46949 -13652306.51949  23023413.9324   23023421.2954
  21890226.123   -22749194.78849 -17714222.31249  21890229.7504   21890235.4864
  21847353.820   -20713393.65949 -16099607.16149  21847356.1734   21847361.9894
  24296433.242    -8584995.74049  -6674372.67249  24296435.2894   24296440.1704
  22227166.327   -21165992.65949 -16480553.48249  22227168.7904   22227174.3074
  23061567.199   -12931853.31649 -10063230.08849  23061569.3694   23061576.1444
  22448385.223   -21521545.415 9 -16504980.764 9  22448388.171    22448393.681
  21151198.926   -27741333.03249 -21330694.59549  21151201.6374   21151207.3004
 96  7 10  0 52  0.0010000  0  8 17  3  1  9 23 31 28 21
  23038835.904   -17460125.23749 -13589149.76249  23038838.3184   23038844.8034
  21894127.488   -22728698.61449 -17698251.28849  21894130.2344   21894136.0754
  21833222.021   -20787653.68149 -16157472.09249  21833225.0024   21833230.8894
  24293669.896    -8599547.13949  -6685711.40849  24293666.6434   24293671.2794
  22236707.868   -21115852.80449 -16441483.47349  22236710.4504   22236716.0224
  23052807.728   -12977887.16349 -10099100.60649  23052809.8664   23052815.6294
  22464181.816   -21438536.041 9 -16440298.180 9  22464184.398    22464189.783
  21148821.038   -27753831.23649 -21340433.45149  21148823.3504   21148829.0324
 96  7 10  0 52 30.0010000  0  8 17  3  1  9 23 31 28 21
  23054314.541   -17378778.12049 -13525762.43349  23054317.9524   23054324.4074
  21898147.019   -22707572.94249 -17681789.74949  21898150.0454   21898156.1974
  21819171.058   -20861495.43849 -16215011.09749  21819173.3974   21819179.1294
  24290994.041    -8613575.47349  -6696642.56649  24290996.0634   24291002.6314
  22246277.043   -21065567.47949 -16402300.11249  22246279.0864   22246284.6614
  23044153.052   -13023369.94749 -10134541.71949  23044155.0474   23044160.1974
  22480049.292   -21355154.711 9 -16375325.756 9  22480051.287    22480056.513
  21146492.193   -27766066.65249 -21349967.54349  21146495.1194   21146500.7384
 96  7 10  0 53  0.0010000  0  8 17  3  1  9 23 31 28 21
  23069850.706   -17297126.71749 -13462138.00449  23069855.1574   23069861.9034
  21902286.788   -22685819.42849 -17664838.97949  21902289.9414   21902295.7554
  21805201.011   -20934904.26649 -16272212.75449  21805204.4384   21805209.8704
  24288420.671    -8627086.71349  -6707170.79849  24288424.4324   24288430.6754
  22255874.546   -21015129.96249 -16362998.15949  22255877.3024   22255882.8984
  23035606.724   -13068278.51949 -10169535.39649  23035609.6844   23035614.5134
  22495987.440   -21271393.597 9 -16310057.394 9  22495990.648    22495995.950
  21144214.298   -27778037.21749 -21359295.25449  21144217.0754   21144222.8104
 96  7 10  0 53 30.0010000  0  8 17  3  1  9 23 31 28 21
  23085448.022   -17215170.13849 -13398275.77849  23085451.0534   23085458.2564
  21906542.725   -22663452.41849 -17647410.15949  21906546.2304   21906551.9274
  21791316.433   -21007871.21649 -16329070.09449  21791318.9614   21791324.8064
  24285956.392    -8640089.33949  -6717302.70949  24285951.1274   24285956.8074
  22265500.681   -20964545.78649 -16323581.93149  22265503.1624   22265508.5294
  23027169.134   -13112614.97949 -10204083.26149  23027172.0954   23027177.3104
  22511998.414   -21187258.268 9 -16244497.441 9  22512001.210    22512006.529
  21141985.946   -27789748.81649 -21368421.17249  21141988.5434   21141994.1384
 96  7 10  0 54  0.0010000  0  8 17  3  1  9 23 31 28 21
  23101101.367   -17132912.16949 -13334178.69749  23101104.3914   23101110.9824
  21910913.965   -22640484.36549 -17629512.99049  21910916.9884   21910922.4464
  21777518.716   -21080379.54749 -16385570.07049  21777521.0114   21777526.9654
  24283564.388    -8652587.40149  -6727041.45949  24283572.7404   24283578.7624
  22275152.024   -20913827.00949 -16284060.82449  22275154.4674   22275160.3684
  23018842.659   -13156376.30449 -10238182.97849  23018844.2124   23018849.9774
  22528079.858   -21102749.124 9 -16178646.202 9  22528082.679    22528088.049
  21139807.761   -27801194.40949 -21377339.81449  21139810.4454   21139816.1474
 96  7 10  0 54 30.0010000  0  8 17  3  1  9 23 31 28 21
  23116811.143   -17050364.40549 -13269855.79949  23116813.0184   23116819.2054
  21915395.253   -22616932.68549 -17611161.05049  21915398.6634   21915404.1564
  21763807.468   -21152432.92949 -16441715.54049  21763809.8184   21763815.7094
  24281290.371    -8664572.45349  -6736380.42549  24281291.4224   24281297.1444
  22284829.083   -20862977.07949 -16244437.51849  22284831.3074   22284836.5254
  23010623.460   -13199566.19349 -10271837.41649  23010625.9844   23010631.2374
  22544231.541   -21017870.284 9 -16112506.886 9  22544234.526    22544239.860
  21137677.380   -27812392.55549 -21386065.63749  21137679.3774   21137684.9954
 96  7 10  0 55  0.0010000  0  8 17  3  1  9 23 31 28 21
  23132569.835   -16967547.05549 -13205322.82749  23132572.8394   23132579.5084
  21919985.349   -22592815.50149 -17592368.45549  21919987.9824   21919993.4974
  21750179.076   -21224049.14449 -16497520.35949  21750181.5174   21750187.3324
  24279109.596    -8676048.33749  -6745322.65349  24279107.6584   24279113.7544
  22294528.904   -20812000.90249 -16204715.83249  22294531.5704   22294537.0324
  23002509.690   -13242203.74849 -10305061.46749  23002512.2864   23002517.5934
  22560450.727   -20932639.916 9 -16046093.653 9  22560453.508    22560458.946
  21135588.909   -27823363.58049 -21394614.48649  21135591.8344   21135597.5764
 96  7 10  0 55 30.0010000  0  8 17  3  1  9 23 31 28 21
  23148383.416   -16884444.49249 -13140567.61249  23148386.8214   23148393.4394
  21924684.237   -22568116.45449 -17573122.46449  21924688.1544   21924693.7454
  21736637.211   -21295214.10849 -16552973.55549  21736639.3164   21736645.2084
  24277026.649    -8686982.77349  -6753842.98449  24277027.1524   24277033.0814
  22304256.299   -20760888.85949 -16164888.28649  22304258.1474   22304263.1934
  22994503.835   -13284277.07449 -10337845.86449  22994505.8644   22994510.6254
  22576739.415   -20847042.413 9 -15979394.344 9  22576742.213    22576747.670
  21133551.492   -27834073.97749 -21402960.25049  21133553.8894   21133559.2514
 96  7 10  0 56  0.0010000  0  8 17  3  1  9 23 31 28 21
  23164247.922   -16801067.63549 -13075598.66349  23164252.6974   23164259.3054
  21929495.392   -22542839.97449 -17553426.52149  21929498.0684   21929503.6524
  21723179.902   -21365933.58949 -16608079.62049  21723181.7814   21723187.8334
  24275042.239    -8697371.42249  -6761938.02649  24275049.9124   24275056.0794
  22314007.536   -20709639.83449 -16124954.00049  22314010.1644   22314015.8264
  22986602.735   -13325793.72049 -10370196.47949  22986605.5554   22986610.9484
  22593097.779   -20761082.823 9 -15912412.889 9  22593099.779    22593105.128
  21131563.965   -27844517.77749 -21411098.27949  21131566.5534   21131571.6554
 96  7 10  0 56 30.0010000  0  8 17  3  1  9 23 31 28 21
  23180171.324   -16717410.16949 -13010411.07949  23180171.9264   23180179.2774
  21934416.925   -22516977.83649 -17533274.22549  21934419.5314   21934425.1534
  21709806.699   -21436209.02649 -16662839.68149  21709808.6084   21709814.6404
  24273183.640    -8707210.62249  -6769604.93349  24273178.0674   24273184.0444
  22323791.951   -20658225.07549 -16084890.56649  22323794.0654   22323799.6844
  22978808.221   -13366758.21449 -10402116.85149  22978810.3894   22978815.2734
  22609523.338   -20674765.016 9 -15845152.304 9  22609525.590    22609530.762
  21129626.660   -27854693.31449 -21419027.26949  21129629.8974   21129635.3654
 96  7 10  0 57  0.0010000  0  8 17  3  1  9 23 31 28 21
  23196141.082   -16633483.88049 -12945014.01449  23196142.4404   23196149.8994
  21939452.285   -22490515.61149 -17512654.33249  21939455.2714   21939461.0744
  21696517.741   -21506040.79449 -16717254.02349  21696520.0104   21696525.9594
  24271409.643    -8716508.20449  -6776849.78649  24271408.3234   24271414.9244
  22333606.719   -20606645.19349 -16044698.46449  22333609.5484   22333615.1134
  22971115.099   -13407184.85649 -10433618.11949  22971117.4804   22971122.5194
  22626014.964   -20588099.523 9 -15777620.794 9  22626017.298    22626022.861
  21127745.097   -27864584.88349 -21426734.98649  21127747.8274   21127752.8984
 96  7 10  0 57 30.0010000  0  8 17  3  1  9 23 31 28 21
  23212163.907   -16549284.32549 -12879404.00949  23212165.2314   23212172.3104
  21944602.905   -22463447.62849 -17491562.41349  21944605.9604   21944611.6304
  21683314.606   -21575424.09149 -16771318.90549  21683317.2134   21683322.9164
  24269739.091    -8725256.18749  -6783666.37949  24269743.8764   24269750.0714
  22343455.751   -20554892.92249 -16004372.02749  22343457.4004   22343462.8874
  22963524.489   -13447072.71249 -10464699.54849  22963526.5674   22963532.2144
  22642574.287   -20501081.682 9 -15709814.727 9  22642576.393    22642581.921
  21125920.035   -27874177.58149 -21434209.81849  21125922.3794   21125927.1344
 96  7 10  0 58  0.0010000  0  8 17  3  1  9 23 31 28 21
  23228235.313   -16464823.82349 -12813590.66949  23228237.8024   23228244.7324
  21949868.858   -22435774.38649 -17469998.86549  21949872.0064   21949877.7584
  21670192.763   -21644382.60049 -16825052.78849  21670194.7454   21670200.5394
  24268173.113    -8733470.13849  -6790066.86149  24268180.8194   24268187.0064
  22353338.065   -20502962.33949 -15963906.64849  22353339.9814   22353344.6374
  22956034.376   -13486431.68349 -10495368.87149  22956036.7854   22956042.9714
  22659198.118   -20413722.955 9 -15641743.037 9  22659200.153    22659205.516
  21124146.138   -27883497.20249 -21441471.85649  21124148.9594   21124154.0274
 96  7 10  0 58 30.0010000  0  8 17  3  1  9 23 31 28 21
  23244358.864   -16380088.16849 -12747562.94149  23244362.5784   23244369.8794
  21955255.087   -22407471.70649 -17447944.84749  21955257.7604   21955263.6854
  21657150.720   -21712915.05549 -16878454.67749  21657153.3654   21657159.2014
  24266722.048    -8741140.56049  -6796043.80449  24266721.6414   24266726.6664
  22363255.590   -20450843.11649 -15923294.27149  22363257.5344   22363263.3824
  22948650.217   -13525240.34649 -10525609.37549  22948651.6994   22948658.0834
  22675889.263   -20326009.723 9 -15573395.109 9  22675891.577    22675896.864
  21122427.700   -27892530.10449 -21448510.48049  21122430.0864   21122435.3794
 96  7 10  0 59  0.0010000  0  8 17  3  1  9 23 31 28 21
  23260533.987   -16295095.84049 -12681335.19749  23260535.4564   23260542.5534
  21960757.467   -22378556.54849 -17425413.57349  21960760.2484   21960766.2874
  21644189.134   -21781031.24249 -16931532.20649  21644191.4594   21644197.0634
  24265361.361    -8748269.37649  -6801598.70349  24265365.0774   24265370.2954
  22373203.726   -20398560.70949 -15882554.74349  22373206.7154   22373212.1574
  22941369.525   -13563496.14049 -10555419.08149  22941371.8184   22941377.1674
  22692646.284   -20237951.812 9 -15504778.598 9  22692648.490    22692653.780
  21120760.937   -27901289.80249 -21455336.21349  21120763.1854   21120768.0904
 96  7 10  0 59 30.0010000  0  8 17  3  1  9 23 31 28 21
  23276760.382   -16209821.70349 -12614887.86549  23276762.9444   23276770.1264
  21966374.842   -22349038.93549 -17402412.86149  21966377.1524   21966383.1564
  21631308.259   -21848719.66349 -16984276.40849  21631310.6374   21631316.1764
  24264114.625    -8754856.60649  -6806731.61049  24264110.9674   24264116.8964
  22383186.223   -20346108.10049 -15841682.59049  22383188.1954   22383193.7314
  22934200.394   -13601168.53349 -10584774.18549  22934203.2654   22934208.5034
  22709470.385   -20149539.891 9 -15435886.239 9  22709472.903    22709478.019
  21119144.050   -27909785.37649 -21461956.13549  21119146.2684   21119151.6984
 96  7 10  1  0  0.0010000  0  8 17  3  1  9 23 31 28 21
  23293041.941   -16124262.87549 -12548218.69449  23293044.3954   23293050.7534
  21972102.969   -22318934.53249 -17378954.90949  21972105.8564   21972111.8334
  21618509.607   -21915978.38949 -17036685.78549  21618511.7384   21618517.2404
  24262948.998    -8760921.79949  -6811457.74549  24262957.1094   24262963.1164
  22393196.262   -20293502.24549 -15800691.03049  22393198.6984   22393204.2534
  22927146.452   -13638241.31649 -10613662.06549  22927148.4424   22927153.8244
  22726359.409   -20060786.817 9 -15366728.048 9  22726361.981    22726367.307
  21117573.950   -27918035.17249 -21468384.54749  21117576.1564   21117581.7244
 96  7 10  1  0 30.0010000  0  8 17  3  1  9 23 31 28 21
  23309377.582   -16038416.75849 -12481325.66649  23309380.8394   23309387.2704
  21977939.759   -22288259.52649 -17355052.32849  21977943.0404   21977949.1074
  21605800.763   -21982763.11149 -17088725.81249  21605803.1914   21605808.6324
  24261902.522    -8766459.07549  -6815772.49549  24261903.3504   24261909.4124
  22403232.674   -20240761.06249 -15759594.00249  22403235.1724   22403240.7154
  22920208.004   -13674703.35449 -10642074.04749  22920210.2834   22920215.6544
  22743313.250   -19971698.319 9 -15297308.491 9  22743315.024    22743320.556
  21116051.265   -27926037.65249 -21474620.24549  21116053.8084   21116059.1404
 96  7 10  1  1  0.0010000  0  8 17  3  1  9 23 31 28 21
  23325767.449   -15952284.26949 -12414209.47049  23325770.2924   23325778.0064
  21983883.247   -22257027.64849 -17330715.82349  21983886.3404   21983892.1424
  21593186.768   -22049049.04549 -17140377.16949  21593189.2584   21593195.0794
  24260948.112    -8771460.53649  -6819669.72949  24260951.6054   24260956.5574
  22413295.609   -20187884.87149 -15718391.78249  22413296.7464   22413302.9074
  22913388.405   -13710540.34549 -10669998.97149  22913390.7284   22913396.3424
  22760328.185   -19882278.215 9 -15227630.537 9  22760331.050    22760336.591
  21114575.017   -27933794.72649 -21480664.71849  21114577.4054   21114583.0994
 96  7 10  1  1 30.0010000  0  8 17  3  1  9 23 31 28 21
  23342214.264   -15865856.00549 -12346862.81149  23342217.6004   23342223.6734
  21989934.232   -22225230.38249 -17305938.75949  21989937.2874   21989943.0724
  21580669.003   -22114832.16349 -17191636.72149  21580671.3394   21580677.0184
  24260106.128    -8775926.15449  -6823149.42349  24260101.1824   24260108.2354
  22423383.519   -20134865.96549 -15677078.36449  22423386.2494   22423391.7374
  22906688.000   -13745752.76149 -10697437.22949  22906689.7114   22906695.3574
  22777409.831   -19792521.688 9 -15157690.440 9  22777411.161    22777416.685
  21113148.600   -27941290.02749 -21486505.20949  21113151.1444   21113156.8894
 96  7 10  1  2  0.0010000  0  8 17  3  1  9 23 31 28 21
  23358714.048   -15779153.05749 -12279302.11449  23358716.5584   23358723.9214
  21996093.552   -22192864.70849 -17280718.78249  21996096.0834   21996102.0994
  21568244.637   -22180121.19149 -17242511.27349  21568246.9294   21568252.8644
  24259347.396    -8779844.52949  -6826202.72649  24259355.8834   24259360.2834
  22433498.046   -20081716.82349 -15635663.45849  22433500.3424   22433505.7984
  22900099.896   -13780370.33749 -10724411.96349  22900101.9274   22900107.9024
  22794550.196   -19702443.598 9 -15087499.774 9  22794552.534    22794558.063
  21111770.890   -27948530.26349 -21492146.95249  21111773.3914   21111778.9794
 96  7 10  1  2 30.0010000  0  8 17  3  1  9 23 31 28 21
  23375264.336   -15692178.39449 -12211529.69749  23375267.6914   23375274.5814
  22002364.730   -22159907.95149 -17255038.22249  22002367.7024   22002373.8964
  21555912.633   -22244923.10049 -17293006.24949  21555915.6814   21555921.5334
  24258710.802    -8783199.49149  -6828816.95949  24258717.7734   24258723.4714
  22443638.279   -20028427.63949 -15594139.43449  22443640.3394   22443646.2314
  22893621.991   -13814415.62449 -10750940.76949  22893623.6124   22893629.8554
  22811753.389   -19612041.972 9 -15017056.999 9  22811755.286    22811760.900
  21110443.173   -27955508.04549 -21497584.18149  21110445.5794   21110451.2734
 96  7 10  1  3  0.0010000  0  8 17  3  1  9 23 31 28 21
  23391870.374   -15604924.59249 -12143539.76149  23391871.1694   23391878.0604
  22008752.157   -22126340.95349 -17228882.14549  22008755.1084   22008761.0994
  21543669.822   -22309262.31249 -17343140.68049  21543672.2774   21543677.9094
  24258169.860    -8785985.81849  -6830988.11949  24258187.6414   24258192.7864
  22453808.889   -19974981.51349 -15552493.11149  22453811.0684   22453816.6824
  22887251.032   -13847892.49249 -10777026.65049  22887253.3344   22887259.0274
  22829018.724   -19521309.093 9 -14946356.103 9  22829021.309    22829026.936
  21109167.829   -27962208.90849 -21502805.63549  21109170.2624   21109175.8954
 96  7 10  1  3 30.0010000  0  8 17  3  1  9 23 31 28 21
  23408524.875   -15517391.35049 -12075332.09149  23408528.8014   23408535.3674
  22015254.669   -22092169.70549 -17202255.22949  22015257.9324   22015263.7944
  21531510.177   -22373162.04749 -17392932.66349  21531512.4944   21531518.2194
  24257756.462    -8788220.88349  -6832729.71849  24257761.7314   24257767.5464
  22464006.257   -19921391.99249 -15510735.05949  22464008.8834   22464014.2554
  22880982.447   -13880832.72849 -10802694.36749  22880985.0534   22880989.9534
  22846343.879   -19430262.122 9 -14875410.466 9  22846346.633    22846352.539
  21107940.690   -27968661.04549 -21507833.27849  21107942.6614   21107948.2474
 96  7 10  1  4  0.0010000  0  8 17  3  1  9 23 31 28 21
  23425234.470   -15429585.19849 -12006911.75549  23425238.3684   23425244.5664
  22021873.764   -22057388.69649 -17175153.17149  22021876.6724   22021882.3444
  21519436.413   -22436609.81149 -17442372.45749  21519438.7134   21519444.5904
  24257448.282    -8789893.84549  -6834033.31549  24257444.0894   24257450.2934
  22474232.033   -19867656.80849 -15468863.50849  22474234.5324   22474239.7274
  22874818.897   -13913222.10049 -10827932.84349  22874821.2944   22874826.7384
  22863729.925   -19338902.713 9 -14804221.373 9  22863731.923    22863737.799
  21106758.306   -27974873.18749 -21512673.91149  21106760.4104   21106765.7754
 96  7 10  1  4 30.0010000  0  8 17  3  1  9 23 31 28 21
  23441992.416   -15341511.91449 -11938283.26849  23441997.4754   23442004.1214
  22028604.687   -22022014.90949 -17147589.20949  22028608.0944   22028613.8834
  21507450.047   -22499599.59549 -17491455.38749  21507452.2864   21507458.1134
  24257230.231    -8791016.03849  -6834907.75349  24257230.2184   24257235.6594
  22484485.624   -19813777.00749 -15426879.25749  22484487.7424   22484492.8114
  22868764.104   -13945041.40749 -10852727.11449  22868766.2174   22868771.8914
  22881174.017   -19247231.548 9 -14732789.353 9  22881176.320    22881182.215
  21105622.452   -27980839.49049 -21517322.97549  21105625.0994   21105630.4894
 96  7 10  1  5  0.0010000  0  8 17  3  1  9 23 31 28 21
  23458804.693   -15253182.14449 -11869454.91649  23458805.7054   23458812.5934
  22035443.541   -21986077.83149 -17119586.31549  22035446.7664   22035452.4614
  21495551.038   -22562126.16449 -17540177.36949  21495553.7674   21495559.2914
  24257126.700    -8791599.96549  -6835362.72949  24257118.9944   24257125.2654
  22494763.446   -19759764.72149 -15384791.77749  22494765.6534   22494771.4094
  22862817.940   -13976290.59949 -10877077.13349  22862819.3104   22862826.0244
  22898676.026   -19155259.174 9 -14661122.626 9  22898678.313    22898684.169
  21104533.564   -27986563.43049 -21521783.19049  21104535.8894   21104541.5504
 96  7 10  1  5 30.0010000  0  8 17  3  1  9 23 31 28 21
  23475664.609   -15164584.43449 -11800417.78749  23475664.9454   23475672.8474
  22042390.331   -21949573.87749 -17091141.70349  22042393.1804   22042398.8544
  21483745.925   -22624164.12749 -17588518.62649  21483748.3484   21483753.7794
  24257111.746    -8791633.80849  -6835389.12049  24257112.8914   24257117.9494
  22505068.571   -19705609.95249 -15342593.27349  22505070.9564   22505076.6794
  22856983.035   -14006951.60449 -10900968.82049  22856985.3264   22856991.2474
  22916236.297   -19062978.063 9 -14589215.320 9  22916238.766    22916244.669
  21103494.319   -27992022.75149 -21526037.20949  21103497.0764   21103502.6064
 96  7 10  1  6  0.0010000  0  8 17  3  1  9 23 31 28 21
  23492569.798   -15075737.18149 -11731186.21949  23492572.7054   23492579.8624
  22049441.173   -21912518.60649 -17062267.49249  22049444.6044   22049450.6874
  21472032.896   -22685716.01049 -17636481.11949  21472035.4584   21472041.0084
  24257219.504    -8791117.66949  -6834986.92249  24257211.1344   24257216.7664
  22515400.361   -19651319.87749 -15300289.33449  22515401.8064   22515407.7204
  22851262.337   -14037015.23349 -10924395.01849  22851263.9294   22851269.8694
  22933855.353   -18970393.374 9 -14517071.469 9  22933857.169    22933863.114
  21102511.381   -27997191.24049 -21530064.60449  21102513.7804   21102519.2754
 96  7 10  1  6 30.0010000  0  8 17  3  1  9 23 31 28 21
  23509526.762   -14986631.34249 -11661753.14149  23509528.3844   23509536.6164
  22056594.018   -21874932.37649 -17032979.54149  22056597.0254   22056602.5854
  21460410.354   -22746789.14649 -17684070.55649  21460413.5184   21460418.8374
  24257404.498    -8790061.30849  -6834163.78749  24257411.5134   24257418.0064
  22525756.882   -19596898.24349 -15257882.88449  22525758.3064   22525763.7854
  22845651.129   -14066501.69549 -10947371.48749  22845652.7474   22845658.4664
  22951529.769   -18877511.854 9 -14444696.309 9  22951532.052    22951537.644
  21101585.418   -28002055.34149 -21533854.81549  21101587.9414   21101593.5604
 96  7 10  1  7  0.0010000  0  8 17  3  1  9 23 31 28 21
  23526534.812   -14897254.97949 -11592109.26149  23526536.2804   23526543.6594
  22063850.037   -21836802.92949 -17003268.31249  22063852.9804   22063858.7064
  21448881.026   -22807382.54749 -17731286.17949  21448882.6774   21448888.3124
  24257713.656    -8788451.36749  -6832909.28249  24257718.2884   24257724.2124
  22536138.620   -19542332.44749 -15215364.10349  22536141.9124   22536147.3644
  22840150.389   -14095407.68849 -10969895.62849  22840152.2274   22840158.4514
  22969261.335   -18784331.853 9 -14372088.573 9  22969263.611    22969269.461
  21100719.722   -28006605.52549 -21537400.41849  21100722.1484   21100727.3314
 96  7 10  1  7 30.0010000  0  8 17  3  1  9 23 31 28 21
  23543589.590   -14807617.84449 -11522262.20049  23543593.9354   23543601.7874
  22071209.495   -21798128.32749 -16973132.27849  22071212.2154   22071218.0664
  21437438.610   -22867510.41149 -17778139.04149  21437440.9484   21437446.7574
  24258127.859    -8786292.16449  -6831226.78649  24258129.5974   24258134.0044
  22546547.911   -19487630.56749 -15172739.28249  22546551.2514   22546556.7054
  22834760.979   -14123730.21949 -10991965.13049  22834763.0294   22834768.5354
  22987046.349   -18690865.202 9 -14299257.478 9  22987049.636    22987055.837
  21099910.299   -28010859.47749 -21540715.18349  21099912.7954   21099918.0904
 96  7 10  1  8  0.0010000  0  8 17  3  1  9 23 31 28 21
  23560699.619   -14717711.81249 -11452205.61349  23560702.6294   23560710.4064
  22078676.064   -21758893.65349 -16942559.83049  22078678.6604   22078684.4954
  21426087.326   -22927159.52249 -17824618.84849  21426090.1194   21426095.8684
  24258637.323    -8783565.19149  -6829101.84449  24258648.4134   24258653.5044
  22556986.831   -19432779.88349 -15129998.50649  22556988.8614   22556994.5344
  22829483.952   -14151458.49849 -11013571.57249  22829486.1864   22829492.5994
  23004890.469   -18597101.937 9 -14226195.253 9  23004892.396    23004898.306
  21099155.193   -28014828.80449 -21543808.16149  21099157.2264   21099162.9874
 96  7 10  1  8 30.0010000  0  8 17  3  1  9 23 31 28 21
  23577860.994   -14627540.28049 -11381942.14649  23577861.3224   23577868.9254
  22086250.832   -21719087.84749 -16911542.34549  22086253.2394   22086259.1764
  21414827.643   -22986331.51449 -17870726.87249  21414830.0994   21414835.9934
  24259277.679    -8780275.10149  -6826538.16849  24259274.1334   24259278.8404
  22567454.322   -19377771.16949 -15087134.59349  22567456.9534   22567462.3364
  22824319.773   -14178599.05449 -11034720.05749  22824321.8374   22824327.6504
  23022786.943   -18503048.506 9 -14152906.923 9  23022789.930    23022795.948
  21098447.299   -28018545.80649 -21546704.52349  21098449.5524   21098455.2764
 96  7 10  1  9  0.0010000  0  8 17  3  1  9 23 31 28 21
  23595064.479   -14537117.66549 -11311483.02349  23595068.2874   23595075.5844
  22093937.252   -21678695.17849 -16880067.56549  22093939.8324   22093945.5294
  21403658.477   -23045027.06549 -17916463.64849  21403660.4654   21403666.4284
  24260003.250    -8776428.06849  -6823540.45949  24260006.8884   24260011.8294
  22577950.565   -19322608.88649 -15044151.01149  22577953.3204   22577959.0484
  22819267.722   -14205143.70049 -11055404.20349  22819270.2404   22819276.0454
  23040740.958   -18408708.894 9 -14079395.600 9  23040742.213    23040748.249
  21097784.087   -28022031.05149 -21549420.30049  21097786.5584   21097792.1254
 96  7 10  1  9 30.0010000  0  8 17  3  1  9 23 31 28 21
  23612321.726   -14446440.36349 -11240825.43349  23612324.1934   23612331.5284
  22101735.425   -21637713.21649 -16848133.59249  22101738.5254   22101744.2104
  21392581.845   -23103236.00149 -17961821.24449  21392583.5934   21392589.4554
  24260848.401    -8772030.45649  -6820113.76449  24260843.6094   24260848.1124
  22588479.028   -19267291.25949 -15001046.38549  22588480.0604   22588485.8804
  22814331.226   -14231090.24549 -11075622.28449  22814333.1654   22814338.6974
  23058748.275   -18314078.441 9 -14005657.646 9  23058749.911    23058755.813
  21097166.411   -28025278.02449 -21551950.40749  21097168.8124   21097174.5964
 96  7 10  1 10  0.0010000  0  8 17  3  1  9 23 31 28 21
  23629622.015   -14355515.49349 -11169974.93949  23629626.2364   23629633.8534
  22109641.567   -21596168.08349 -16815760.78449  22109644.3514   22109650.1044
  21381595.670   -23160966.06549 -18006805.68949  21381598.0204   21381604.0704
  24261784.733    -8767089.25549  -6816263.44649  24261783.2074   24261789.1024
  22599032.998   -19211823.31149 -14957824.62549  22599035.2184   22599041.0474
  22809505.843   -14256446.45749 -11095380.37549  22809508.1874   22809513.1084
  23076808.112   -18219168.959 9 -13931702.267 9  23076810.863    23076816.598
  21096594.910   -28028283.36649 -21554292.23449  21096597.0704   21096602.3784
 96  7 10  1 10 30.0010000  0  8 17  3  1  9 23 31 28 21
  23646975.125   -14264342.95349 -11098931.45249  23646976.6504   23646984.0734
  22117651.938   -21554072.04949 -16782958.70749  22117654.9924   22117660.8214
  21370699.098   -23218226.62149 -18051424.28249  21370701.9944   21370707.7414
  24262825.640    -8761617.01249  -6811999.38449  24262824.9404   24262830.2014
  22609614.682   -19156217.64649 -14914495.55149  22609617.0024   22609622.7184
  22804793.311   -14281211.68249 -11114677.95049  22804795.2684   22804800.6864
  23094921.011   -18123988.705 9 -13857535.894 9  23094923.119    23094928.696
  21096069.948   -28031037.63149 -21556438.41449  21096072.5684   21096078.4294
 96  7 10  1 11  0.0010000  0  8 17  3  1  9 23 31 28 21
  23664372.100   -14172909.36949 -11027684.54849  23664375.9174   23664383.0504
  22125765.288   -21511436.95649 -16749736.58649  22125767.8054   22125773.6664
  21359893.972   -23275009.09949 -18095670.35149  21359896.4744   21359902.2004
  24263958.630    -8755603.02249  -6807313.16949  24263968.7114   24263974.9934
  22620220.395   -19100484.99949 -14871067.53249  22620222.4084   22620228.1364
  22800195.888   -14305369.76849 -11133502.43949  22800198.4414   22800203.7384
  23113085.336   -18028531.839 9 -13783153.977 9  23113088.116    23113093.752
  21095599.200   -28033513.62149 -21558367.75849  21095601.6554   21095607.2454
 96  7 10  1 11 30.0010000  0  8 17  3  1  9 23 31 28 21
  23681822.317   -14081213.97049 -10956233.64349  23681825.1774   23681831.4154
  22133978.763   -21468271.36349 -16716101.08049  22133982.2674   22133988.0694
  21349178.856   -23331319.03849 -18139548.20749  21349181.2284   21349186.8294
  24265206.318    -8749030.66249  -6802191.84549  24265218.7344   24265224.4784
  22630848.378   -19044628.68449 -14827543.14749  22630851.1604   22630857.0104
  22795715.450   -14328916.45749 -11151850.51849  22795718.1394   22795722.7884
  23131301.025   -17932806.674 9 -13708563.005 9  23131303.817    23131309.787
  21095181.489   -28035710.93649 -21560079.94949  21095183.3864   21095189.0094
 96  7 10  1 12  0.0010000  0  8 17  3  1  9 23 31 28 21
  23699318.672   -13989265.07349 -10884585.20149  23699322.1334   23699328.6694
  22142293.675   -21424580.73249 -16682056.45949  22142296.4044   22142302.2114
  21338552.833   -23387158.11949 -18183059.16049  21338555.2434   21338560.8324
  24266574.702    -8741901.71749  -6796636.79349  24266575.6424   24266581.9584
  22641499.922   -18988658.66349 -14783930.16449  22641501.9724   22641507.9104
  22791348.996   -14351862.75949 -11169730.76349  22791351.7014   22791356.9714
  23149566.795   -17836826.186 9 -13633773.080 9  23149568.412    23149574.327
  21094811.522   -28037651.21749 -21561591.85649  21094814.1874   21094819.6104
 96  7 10  1 12 30.0010000  0  8 17  3  1  9 23 31 28 21
  23716865.766   -13897057.62749 -10812735.28349  23716868.0104   23716875.4274
  22150710.298   -21380346.70849 -16647588.41749  22150713.7744   22150719.5894
  21328019.888   -23442510.04549 -18226190.51149  21328022.1944   21328027.6794
  24268035.264    -8734214.21249  -6790646.54749  24268038.7444   24268044.4604
  22652174.138   -18932574.95049 -14740228.57749  22652175.0514   22652180.3214
  22787096.842   -14374208.27449 -11187142.85649  22787098.8044   22787104.8464
  23167879.461   -17740586.704 9 -13558781.336 9  23167882.313    23167888.156
  21094490.567   -28039338.21449 -21562906.39849  21094492.9614   21094498.7134
 96  7 10  1 13  0.0010000  0  8 17  3  1  9 23 31 28 21
  23734460.723   -13804595.47949 -10740686.89949  23734463.5684   23734470.9194
  22159234.732   -21335554.81249 -16612685.67349  22159237.4944   22159243.1484
  21317583.352   -23497355.13349 -18268926.92749  21317585.2214   21317591.0124
  24269607.848    -8725956.48849  -6784211.94249  24269609.8964   24269615.1194
  22662867.060   -18876369.81249 -14696432.38649  22662870.3774   22662875.4774
  22782959.145   -14395949.10149 -11204083.76149  22782961.4504   22782966.9724
  23186243.415   -17644086.636 9 -13483586.536 9  23186245.643    23186251.685
  21094217.797   -28040771.29749 -21564023.08249  21094220.2014   21094226.0574
 96  7 10  1 13 30.0010000  0  8 17  3  1  9 23 31 28 21
  23752103.398   -13711880.63649 -10668441.61549  23752107.0334   23752113.1604
  22167865.401   -21290199.09849 -16577343.58949  22167868.2934   22167874.4264
  21307244.577   -23551686.01949 -18311262.66649  21307246.6654   21307252.2634
  24271289.155    -8717130.75449  -6777334.74949  24271289.2714   24271295.4744
  22673587.758   -18820042.92549 -14652541.31849  22673589.3784   22673594.5904
  22778935.129   -14417098.90749 -11220564.13149  22778937.5474   22778942.4384
  23204653.780   -17547335.181 9 -13408195.854 9  23204656.922    23204662.893
  21093989.684   -28041969.30649 -21564956.59749  21093992.3804   21093998.2664
 96  7 10  1 14  0.0010000  0  8 17  3  1  9 23 31 28 21
  23769795.934   -13618905.16749 -10595993.24049  23769799.7194   23769806.1434
  22176600.552   -21244297.10049 -16541575.82649  22176603.0664   22176609.0214
  21297003.479   -23605498.86349 -18353194.73449  21297006.3564   21297011.8684
  24273076.490    -8707740.30449  -6770017.52249  24273076.2774   24273082.4164
  22684330.099   -18763590.48749 -14608552.41649  22684331.9224   22684337.3324
  22775020.929   -14437666.35449 -11236590.71349  22775023.5264   22775028.4244
  23223115.630   -17450328.588 9 -13332606.371 9  23223116.645    23223122.850
  21093808.798   -28042924.62249 -21565700.99749  21093810.7894   21093816.3124
 96  7 10  1 14 30.0010000  0  8 17  3  1  9 23 31 28 21
  23787537.419   -13525686.64149 -10523355.47449  23787537.8654   23787545.6384
  22185434.997   -21197867.55749 -16505396.98349  22185438.1974   22185444.3494
  21286858.840   -23658812.07249 -18394737.47349  21286860.9894   21286866.8174
  24274962.096    -8697790.82649  -6762264.63949  24274969.9374   24274976.2794
  22695093.548   -18707025.15049 -14564475.54249  22695095.7444   22695101.1364
  22771215.867   -14457660.95949 -11252170.92049  22771218.4514   22771223.8194
  23241619.243   -17353083.107 9 -13256830.739 9  23241621.875    23241627.994
  21093673.012   -28043636.17849 -21566255.45649  21093675.3844   21093680.9954
 96  7 10  1 15  0.0010000  0  8 17  3  1  9 23 31 28 21
  23805324.602   -13432206.06949 -10450513.52449  23805326.9814   23805333.6264
  22194374.471   -21150892.51049 -16468793.07649  22194377.4974   22194383.1504
  21276811.098   -23711613.19049 -18435881.18349  21276813.2854   21276818.9844
  24276974.663    -8687253.99849  -6754054.13449  24276975.2064   24276980.4014
  22705883.952   -18650322.90249 -14520291.98149  22705885.7194   22705891.3444
  22767525.110   -14477058.55249 -11267285.93149  22767527.3644   22767532.5454
  23260173.345   -17255580.874 9 -13180855.036 9  23260175.951    23260182.435
  21093589.018   -28044076.85749 -21566598.84549  21093591.5124   21093597.1464
 96  7 10  1 15 30.0010000  0  8 17  3  1  9 23 31 28 21
  23823161.565   -13338469.33349 -10377471.96449  23823164.3724   23823171.2164
  22203411.764   -21103403.03549 -16431788.31849  22203414.6804   22203420.3904
  21266854.445   -23763929.20449 -18476646.89149  21266858.0774   21266863.5604
  24279093.610    -8676136.54349  -6745391.16449  24279091.0614   24279096.5414
  22716699.714   -18593484.65749 -14476002.45549  22716701.6264   22716707.4034
  22763945.859   -14495865.89149 -11281941.00749  22763948.2604   22763953.5544
  23278777.942   -17157830.288 9 -13104685.824 9  23278777.501    23278783.479
  21093555.899   -28044251.24949 -21566734.74249  21093558.1314   21093563.6934
 96  7 10  1 16  0.0010000  0  8 17  3  1  9 23 31 28 21
  23841042.953   -13244506.24049 -10304254.03149  23841045.7264   23841051.0484
  22212542.949   -21055419.24949 -16394398.38649  22212545.5314   22212551.6404
  21256989.486   -23815776.06749 -18517047.02749  21256991.6844   21256997.4644
  24281304.889    -8664456.01549  -6736289.47949  24281313.5964   24281319.0484
  22727540.522   -18536515.45749 -14431610.88949  22727542.7764   22727548.3544
  22760479.922   -14514081.53849 -11296135.02049  22760481.8374   22760488.2404
  23297421.599   -17059843.529 9 -13028332.564 9  23297423.712    23297429.823
  21093572.474   -28044164.00549 -21566666.76449  21093574.8664   21093580.3574
 96  7 10  1 16 30.0010000  0  8 17  3  1  9 23 31 28 21
  23858964.999   -13150319.13649 -10230861.52349  23858968.7874   23858975.4084
  22221772.832   -21006913.91349 -16356602.05349  22221775.6034   22221782.0044
  21247217.300   -23867127.15249 -18557060.84249  21247220.0964   21247225.7294
  24283642.334    -8652211.84249  -6726748.55249  24283643.6564   24283648.8234
  22738407.513   -18479410.06949 -14387113.19949  22738409.0924   22738415.2054
  22757130.664   -14531682.41149 -11309849.99349  22757132.4094   22757138.2674
  23316113.202   -16961617.131 9 -12951792.587 9  23316115.673    23316121.875
  21093639.625   -28043811.80449 -21566392.32749  21093641.9694   21093647.5474
 96  7 10  1 17  0.0010000  0  8 17  3  1  9 23 31 28 21
  23876929.897   -13055915.32649 -10157300.16649  23876933.9334   23876940.5784
  22231100.884   -20957895.91649 -16318406.24749  22231103.9024   22231109.7374
  21237538.367   -23917992.32449 -18596696.02549  21237540.6744   21237546.4284
  24286079.829    -8639418.93549  -6716780.02149  24286078.0394   24286083.9124
  22749298.867   -18422173.38049 -14342513.19349  22749301.0974   22749306.8354
  22753897.408   -14548670.52749 -11323087.49349  22753899.8564   22753905.4764
  23334848.890   -16863161.945 9 -12875074.338 9  23334850.946    23334857.482
  21093752.614   -28043217.06049 -21565928.89649  21093755.0004   21093760.5064
 96  7 10  1 17 30.0010000  0  8 17  3  1  9 23 31 28 21
  23894939.231   -12961283.94349 -10083561.47449  23894941.2524   23894948.2214
  22240526.515   -20908363.87149 -16279809.87549  22240529.1824   22240535.2504
  21227954.546   -23968358.57149 -18635942.43149  21227956.4044   21227961.8494
  24288613.621    -8626083.96249  -6706389.13349  24288615.3544   24288621.3534
  22760216.513   -18364800.09449 -14297806.75449  22760218.9334   22760224.4324
  22750781.286   -14565046.60249 -11335848.07049  22750783.2914   22750788.9344
  23353627.208   -16764478.008 9 -12798177.834 9  23353629.931    23353636.464
  21093911.599   -28042383.90649 -21565279.68749  21093913.4344   21093918.8534
 96  7 10  1 18  0.0010000  0  8 17  3  1  9 23 31 28 21
  23912991.145   -12866406.12149 -10009630.76349  23912996.2204   23913002.5484
  22250055.699   -20858286.55249 -16240788.62449  22250058.6214   22250064.4414
  21218470.148   -24018196.83649 -18674777.42849  21218472.4174   21218477.9534
  24291255.954    -8612201.90049  -6695571.93349  24291257.3914   24291263.9474
  22771163.494   -18307278.56149 -14252984.79949  22771164.7734   22771170.5674
  22747781.817   -14580806.95749 -11348128.87449  22747783.9464   22747790.0624
  23372451.929   -16665559.459 9 -12721098.518 9  23372453.553    23372459.829
  21094118.043   -28041297.38249 -21564433.04949  21094120.4524   21094125.9074
 96  7 10  1 18 30.0010000  0  8 17  3  1  9 23 31 28 21
  23931097.776   -12771265.55949  -9935495.30249  23931100.1474   23931106.6304
  22259691.048   -20807655.27349 -16201335.71649  22259693.5624   22259699.0644
  21209085.207   -24067516.28549 -18713208.14849  21209087.5284   21209092.6944
  24294000.009    -8597778.05349  -6684332.59849  24294003.0144   24294007.6584
  22782135.961   -18249617.88349 -14208054.42449  22782137.5844   22782143.3084
  22744896.298   -14595973.90649 -11359947.27149  22744898.0554   22744903.8514
  23391317.520   -16566414.103 9 -12643842.458 9  23391320.289    23391326.707
  21094374.221   -28039951.47649 -21563384.29549  21094376.4634   21094381.7794
 96  7 10  1 19  0.0010000  0  8 17  3  1  9 23 31 28 21
  23949247.525   -12675881.34349  -9861170.00749  23949250.5884   23949258.4894
  22269423.970   -20756504.86249 -16161478.28849  22269426.7304   22269432.9884
  21199789.527   -24116365.67249 -18751272.58649  21199791.6144   21199796.9274
  24296841.914    -8582830.13349  -6672684.85049  24296845.8114   24296852.1394
  22793129.773   -18191838.94849 -14163031.89349  22793132.5764   22793137.7374
  22742115.786   -14610587.11849 -11371334.19349  22742117.3094   22742122.6364
  23410224.220   -16467066.001 9 -12566428.423 9  23410225.894    23410232.054
  21094677.707   -28038356.38049 -21562141.36549  21094680.0924   21094685.2674
 96  7 10  1 19 30.0010000  0  8 17  3  1  9 23 31 28 21
  23967450.166   -12580231.79449  -9786637.95549  23967453.3774   23967459.6424
  22279258.916   -20704824.81349 -16121208.15449  22279261.5084   22279267.6384
  21190589.109   -24164713.15749 -18788945.93549  21190591.1504   21190596.8494
  24299793.381    -8567326.78249  -6660604.31049  24299796.4054   24299802.6774
  22804152.289   -18133918.52449 -14117899.10949  22804154.1594   22804160.1494
  22739443.024   -14624625.71349 -11382273.36549  22739445.4384   22739451.3974
  23429172.061   -16367490.482 9 -12488837.182 9  23429174.273    23429180.950
  21095036.515   -28036471.37449 -21560672.53049  21095038.9464   21095044.2284
 96  7 10  1 20  0.0010000  0  8 17  3  1  9 23 31 28 21
  23985698.524   -12484336.76149  -9711914.59849  23985701.3804   23985707.3574
  22289191.665   -20652626.63549 -16080534.28049  22289194.3624   22289200.5664
  21181483.585   -24212562.01049 -18826230.73849  21181485.8604   21181491.4444
  24302850.899    -8551269.48549  -6648092.13349  24302851.4294   24302857.6944
  22815199.598   -18075866.08449 -14072663.46149  22815201.5594   22815206.7604
  22736881.905   -14638086.44649 -11392762.25049  22736884.1594   22736890.1344
  23448162.770   -16267696.962 9 -12411076.072 9  23448164.546    23448171.313
  21095450.662   -28034295.03149 -21558976.67949  21095452.9144   21095458.4384
 96  7 10  1 20 30.0010000  0  8 17  3  1  9 23 31 28 21
  24003990.424   -12388207.18349  -9637008.49449  24003993.9044   24004000.0034
  22299220.357   -20599927.13049 -16039469.76149  22299222.7704   22299228.5844
  21172472.444   -24259916.28749 -18863130.15649  21172474.6564   21172480.0954
  24306015.822    -8534640.61149  -6635134.54949  24306016.8034   24306023.0004
  22826272.187   -18017680.81249 -14027324.30349  22826273.8304   22826279.6664
  22734433.109   -14650956.19449 -11402790.62249  22734435.1444   22734441.1524
  23467194.392   -16167682.857 9 -12333143.078 9  23467196.618    23467203.325
  21095919.528   -28031830.88049 -21557056.56149  21095921.8934   21095927.1844
 96  7 10  1 21  0.0010000  0  8 17  3  1  9 23 31 28 21
  24022325.129   -12291854.74649  -9561928.74849  24022329.4924   24022336.3874
  22309339.615   -20546749.91049 -15998032.99149  22309342.2334   22309348.2694
  21163556.991   -24306767.65949 -18899637.70349  21163559.2924   21163564.6054
  24309287.256    -8517425.68549  -6621720.35349  24309292.1034   24309299.1624
  22837372.630   -17959348.03549 -13981870.22249  22837374.0064   22837380.1934
  22732100.440   -14663213.21449 -11412341.54649  22732102.7704   22732108.1524
  23486269.547   -16067450.470 9 -12255039.993 9  23486270.392    23486276.851
  21096441.951   -28029085.01549 -21554916.93149  21096444.3034   21096449.7834
 96  7 10  1 21 30.0010000  0  8 17  3  1  9 23 31 28 21
  24040701.893   -12195290.72749  -9486684.11649  24040704.4674   24040711.6164
  22319549.772   -20493094.17749 -15956223.36549  22319552.8004   22319558.5394
  21154739.388   -24353104.28549 -18935744.14749  21154741.6554   21154747.0884
  24312674.435    -8499647.71549  -6607867.38049  24312676.1454   24312681.6124
  22848501.275   -17900870.49149 -13936303.32849  22848502.0034   22848508.2564
  22729885.775   -14674856.58249 -11421414.29849  22729887.3034   22729893.0574
  23505380.593   -15967018.139 9 -12176781.114 9  23505381.995    23505388.573
  21097014.167   -28026080.35949 -21552575.64849  21097016.1614   21097021.4734
 96  7 10  1 22  0.0010000  0  8 17  3  1  9 23 31 28 21
  24059119.310   -12098509.15049  -9411269.95849  24059121.8764   24059129.7024
  22329854.500   -20438939.16449 -15914024.68649  22329857.8254   22329863.8564
  21146020.421   -24398921.60449 -18971445.93949  21146022.8754   21146028.2834
  24316158.227    -8481303.48849  -6593573.20049  24316166.3324   24316172.1384
  22859656.995   -17842243.64849 -13890620.10449  22859658.5754   22859664.2114
  22727787.750   -14685877.97249 -11430002.40349  22727789.6594   22727795.9564
  23524530.087   -15866382.405 9 -12098363.744 9  23524532.530    23524538.687
  21097634.729   -28022816.91449 -21550032.70349  21097637.1694   21097642.6864
 96  7 10  1 22 30.0010000  0  8 17  3  1  9 23 31 28 21
  24077581.817   -12001489.11849  -9335669.98949  24077584.3434   24077591.7744
  22340259.939   -20384260.12549 -15871417.67149  22340262.8744   22340269.2464
  21137401.225   -24444215.85649 -19006740.14449  21137403.5944   21137409.0074
  24319766.368    -8462377.48949  -6578825.65649  24319767.0224   24319772.9044
  22870843.691   -17783450.28649 -13844807.12049  22870846.5424   22870852.4724
  22725811.462   -14696263.66649 -11438095.15749  22725813.4184   22725819.4684
  23543721.567   -15765531.485 9 -12019778.686 9  23543723.798    23543730.161
  21098307.730   -28019281.46349 -21547277.80649  21098309.7484   21098315.0064
 96  7 10  1 23  0.0010000  0  8 17  3  1  9 23 31 28 21
  24096086.902   -11904233.60949  -9259886.54449  24096090.8884   24096098.9154
  22350767.044   -20329047.45549 -15828394.84649  22350769.7304   22350775.7224
  21128881.666   -24488989.46449 -19041628.65249  21128883.2644   21128888.9954
  24323473.098    -8442895.53449  -6563644.90249  24323474.5254   24323481.2404
  22882061.516   -17724506.26349 -13798876.73149  22882063.7704   22882068.7614
  22723952.549   -14706028.00949 -11445703.73749  22723955.4084   22723961.1604
  23562951.842   -15664477.618 9 -11941035.487 9  23562953.655    23562960.271
  21099030.169   -28015483.95049 -21544318.70949  21099032.4874   21099037.6494
 96  7 10  1 23 30.0010000  0  8 17  3  1  9 23 31 28 21
  24114639.028   -11806746.85249  -9183922.90649  24114642.6734   24114649.7014
  22361374.344   -20273303.45949 -15784957.99849  22361377.4264   22361383.4464
  21120459.018   -24533247.88449 -19076115.71249  21120461.4274   21120466.7934
  24327292.992    -8422870.33749  -6548040.81049  24327285.7434   24327291.2654
  22893300.832   -17665440.48249 -13752851.45949  22893303.1154   22893308.7204
  22722211.451   -14715183.49549 -11452837.88649  22722213.3734   22722219.1534
  23582219.520   -15563226.444 9 -11862138.545 9  23582221.332    23582227.795
  21099800.857   -28011436.01049 -21541164.47349  21099802.9624   21099808.1404
 96  7 10  1 24  0.0010000  0  8 17  3  1  9 23 31 28 21
  24133234.771   -11709027.28749  -9107777.85249  24133237.9344   24133244.8934
  22372082.182   -20217038.25549 -15741115.01449  22372084.3854   22372090.3574
  21112134.798   -24576993.85449 -19110203.46549  21112136.8274   21112142.2864
  24331189.727    -8402284.11049  -6531999.66449  24331203.2464   24331209.1384
  22904562.709   -17606264.78049 -13706740.54349  22904563.8824   22904569.2834
  22720585.223   -14723730.35649 -11459497.78149  22720587.0884   22720592.4324
  23601524.483   -15461775.345 9 -11783085.817 9  23601526.974    23601533.190
  21100620.041   -28007131.72549 -21537810.48449  21100622.1304   21100627.3824
 96  7 10  1 24 30.0010000  0  8 17  3  1  9 23 31 28 21
  24151871.655   -11611086.50249  -9031460.42749  24151875.3554   24151883.1124
  22382883.249   -20160276.38549 -15696885.02349  22382886.0624   22382892.1324
  21103906.464   -24620234.18349 -19143897.21449  21103908.6384   21103913.7404
  24335223.649    -8381148.62149  -6515530.44349  24335225.0764   24335230.2484
  22915841.003   -17546994.30649 -13660555.77749  22915842.4114   22915848.0744
  22719069.960   -14731689.74949 -11465699.91149  22719072.3944   22719077.8694
  23620865.150   -15360142.318 9 -11703891.334 9  23620866.959    23620873.341
  21101485.767   -28002583.49049 -21534266.40549  21101487.5104   21101492.9284
 96  7 10  1 25  0.0010000  0  8 17  3  1  9 23 31 28 21
  24170553.360   -11512914.02049  -8954962.44449  24170557.3014   24170565.1334
  22393777.040   -20103030.63449 -15652277.97749  22393779.5244   22393785.5484
  21095778.354   -24662946.69649 -19177179.67749  21095780.5064   21095785.9644
  24339360.517    -8359446.48249  -6498619.62349  24339354.5264   24339361.0244
  22927138.457   -17487622.21049 -13614291.81949  22927140.6644   22927146.5234
  22717669.582   -14739052.44049 -11471437.08149  22717671.1754   22717676.3924
  23640241.683   -15258316.640 9 -11624546.731 9  23640244.009    23640250.232
  21102398.584   -27997782.70349 -21530525.53049  21102401.0254   21102406.5144
 96  7 10  1 25 30.0010000  0  8 17  3  1  9 23 31 28 21
  24189279.568   -11414515.26149  -8878288.13549  24189282.1214   24189289.2154
  22404758.961   -20045319.59049 -15607308.36649  22404761.7744   22404767.8234
  21087751.355   -24705129.35249 -19210049.26149  21087753.4614   21087758.8154
  24343592.570    -8337173.75949  -6481264.28749  24343593.1304   24343600.0704
  22938457.793   -17428135.92449 -13567938.87949  22938460.5264   22938466.2034
  22716382.988   -14745813.34549 -11476705.32549  22716384.9234   22716390.7004
  23659654.848   -15156303.282 9 -11545055.880 9  23659656.718    23659663.010
  21103361.576   -27992726.09649 -21526585.31549  21103363.3734   21103369.2104
 96  7 10  1 26  0.0010000  0  8 17  3  1  9 23 31 28 21
  24208045.049   -11315894.21249  -8801440.62549  24208049.1154   24208056.6814
  22415830.612   -19987137.47949 -15561971.68549  22415832.9074   22415839.0474
  21079824.440   -24746781.29549 -19242505.30449  21079827.2484   21079832.6014
  24347932.135    -8314333.44549  -6463466.64449  24347939.6944   24347945.5884
  22949801.725   -17368522.18049 -13521486.62949  22949804.6504   22949809.7384
  22715209.726   -14751979.11049 -11481509.82849  22715211.9534   22715217.2524
  23679101.268   -15054110.126 9 -11465424.927 9  23679103.200    23679109.769
  21104373.995   -27987404.01049 -21522438.23349  21104376.0804   21104381.7534
 96  7 10  1 26 30.0010000  0  8 17  3  1  9 23 31 28 21
  24226857.535   -11217044.76649  -8724415.14649  24226859.1594   24226866.7434
  22426994.218   -19928471.36549 -15516257.86349  22426997.2974   22427002.9824
  21072000.787   -24787900.77549 -19274546.44249  21072002.3764   21072008.1944
  24352398.990    -8290918.67349  -6445221.34249  24352395.4774   24352401.1344
  22961176.322   -17308761.29949 -13474919.72549  22961176.7124   22961182.4914
  22714151.987   -14757540.22949 -11485843.17349  22714153.0744   22714159.1164
  23698583.423   -14951730.450 9 -11385648.642 9  23698585.493    23698592.183
  21105438.982   -27981808.76449 -21518078.30249  21105440.9384   21105446.5504
 96  7 10  1 27  0.0010000  0  8 17  3  1  9 23 31 28 21
  24245709.340   -11117975.84649  -8647218.65949  24245711.7854   24245719.1504
  22438250.084   -19869323.01949 -15470168.27749  22438252.5534   22438258.5644
  21064274.359   -24828500.54049 -19306182.60949  21064276.6864   21064282.0044
  24356952.426    -8266940.87849  -6426537.37749  24356957.2064   24356964.1404
  22972573.028   -17248858.86949 -13428242.53149  22972575.9994   22972581.2254
  22713210.076   -14762488.47149 -11489698.95449  22713211.8034   22713217.5244
  23718099.579   -14849174.950 9 -11305735.349 9  23718101.146    23718107.667
  21106553.923   -27975947.67249 -21513511.22049  21106556.0654   21106561.8114
 96  7 10  1 27 30.0010000  0  8 17  3  1  9 23 31 28 21
  24264600.236   -11018709.31849  -8569868.19449  24264601.3024   24264608.2764
  22449597.926   -19809687.53049 -15423699.10249  22449600.6144   22449606.9244
  21056644.220   -24868598.00949 -19337427.37149  21056646.1814   21056651.7554
  24361626.131    -8242414.87449  -6407426.17049  24361625.3544   24361630.0864
  22983996.928   -17188821.90749 -13381460.50149  22984000.5014   22984005.7684
  22712383.475   -14766831.79549 -11493083.36749  22712385.2294   22712390.7204
  23737646.391   -14746456.849 9 -11225695.352 9  23737647.890    23737654.378
  21107718.090   -27969830.98549 -21508744.97649  21107720.3504   21107725.8724
 96  7 10  1 28  0.0010000  0  8 17  3  1  9 23 31 28 21
  24283528.173   -10919240.48949  -8492360.08249  24283529.4854   24283536.9504
  22461040.900   -19749554.08049 -15376841.90049  22461043.6284   22461050.0694
  21049107.584   -24908204.33849 -19368289.42649  21049109.4544   21049115.1014
  24366388.069    -8217330.87649  -6387880.23449  24366398.6124   24366403.8764
  22995447.904   -17128661.06049 -13334581.91949  22995448.4914   22995454.1594
  22711671.411   -14770571.71849 -11495997.60449  22711673.4984   22711679.0204
  23757223.164   -14643574.115 9 -11145527.068 9  23757225.663    23757232.374
  21108928.556   -27963467.59149 -21503786.48849  21108930.9764   21108936.5944
 96  7 10  1 28 30.0010000  0  8 17  3  1  9 23 31 28 21
  24302492.731   -10819569.64849  -8414694.55849  24302495.9594   24302503.4014
  22472578.022   -19688925.37449 -15329598.78249  22472580.8794   22472586.5824
  21041663.636   -24947322.85849 -19398771.37149  21041665.5134   21041671.0034
  24371271.833    -8191689.62149  -6367900.02649  24371278.0384   24371283.7704
  23006915.975   -17068383.06149 -13287612.06849  23006919.3744   23006925.1134
  22711076.673   -14773697.55649 -11498433.33849  22711078.4094   22711084.2934
  23776833.157   -14540529.897 9 -11065232.953 9  23776834.349    23776841.293
  21110185.749   -27956865.17949 -21498641.75049  21110187.6464   21110193.0964
 96  7 10  1 29  0.0010000  0  8 17  3  1  9 23 31 28 21
  24321500.313   -10719690.89949  -8336867.04149  24321502.1374   24321509.8954
  22484207.086   -19627816.74549 -15281981.69149  22484209.6274   22484215.4974
  21034314.021   -24985941.67649 -19428863.94049  21034316.5574   21034322.1604
  24376266.043    -8165488.71449  -6347483.69049  24376263.9004   24376269.6434
  23018408.912   -17007992.98449 -13240554.88049  23018411.4784   23018416.6244
  22710600.518   -14776200.17949 -11500383.44849  22710602.4424   22710608.3954
  23796471.979   -14437323.649 9 -10984812.587 9  23796473.928    23796480.415
  21111488.720   -27950013.37049 -21493302.67749  21111491.6524   21111497.2344
 96  7 10  1 29 30.0010000  0  8 17  3  1  9 23 31 28 21
  24340547.227   -10619596.75549  -8258871.66849  24340550.3674   24340557.2134
  22495925.197   -19566237.78049 -15233998.11749  22495927.9764   22495933.8014
  21027060.890   -25024059.48649 -19458566.11349  21027063.0764   21027068.5634
  24381352.366    -8138727.12449  -6326630.53549  24381356.1524   24381362.3684
  23029921.204   -16947490.61349 -13193410.18149  23029924.5094   23029929.9994
  22710239.169   -14778097.30449 -11501861.73849  22710241.3294   22710247.1004
  23816141.043   -14333957.495 9 -10904267.613 9  23816143.879    23816150.620
  21112841.742   -27942903.10549 -21487762.21249  21112844.3674   21112849.8334
 96  7 10  1 30  0.0010000  0  8 17  3  1  9 23 31 28 21
  24359639.720   -10519258.50749  -8180686.08949  24359644.1794   24359650.8534
  22507732.218   -19504192.12949 -15185650.88949  22507735.0794   22507740.7384
  21019906.245   -25061656.31249 -19487862.32549  21019908.4084   21019913.8284
  24386558.165    -8111399.95749  -6305336.59549  24386555.6054   24386562.4124
  23041457.896   -16886873.87949 -13146176.37849  23041459.5764   23041464.8514
  22709992.821   -14779388.63349 -11502867.98149  22709995.3404   22710000.9954
  23835842.790   -14230427.901 9 -10823595.280 9  23835844.982    23835851.803
  21114248.181   -27935513.85049 -21482004.35249  21114250.6474   21114256.3454
 96  7 10  1 30 30.0010000  0  8 17  3  1  9 23 31 28 21
  24378779.802   -10418681.55549  -8102314.50649  24378782.2224   24378789.4194
  22519624.531   -19441695.81049 -15136952.49549  22519627.1514   22519633.5384
  21012853.007   -25098720.72949 -19516743.67249  21012855.2594   21012860.7394
  24391852.554    -8083523.85049  -6283615.01449  24391860.8104   24391868.3004
  23053013.696   -16826145.66449 -13098855.70249  23053015.5004   23053020.7484
  22709862.036   -14780078.74749 -11503405.75049  22709864.3744   22709869.5144
  23855574.200   -14126743.391 9 -10742802.241 9  23855575.383    23855582.529
  21115710.713   -27927829.07349 -21476016.21649  21115713.0344   21115718.4834
 96  7 10  1 31  0.0010000  0  8 17  3  1  9 23 31 28 21
  24397963.889   -10317863.21249  -8023754.83549  24397968.4354   24397975.1984
  22531601.523   -19378756.54749 -15087908.94949  22531604.3214   22531610.2114
  21005901.600   -25135253.08649 -19545210.43149  21005903.3784   21005908.5964
  24397269.024    -8055107.69449  -6261472.52549  24397268.5534   24397273.8574
  23064593.828   -16765301.07149 -13051444.35449  23064593.8914   23064599.3604
  22709843.704   -14780178.40549 -11503483.42049  22709845.5334   22709851.2984
  23875331.766   -14022909.357 9 -10661892.692 9  23875334.665    23875341.537
  21117230.419   -27919844.46649 -21469794.44949  21117232.2644   21117237.7614
 96  7 10  1 31 30.0010000  0  8 17  3  1  9 23 31 28 21
  24417194.431   -10216813.20849  -7945014.65349  24417197.4424   24417203.5504
  22543664.517   -19315366.54949 -15038514.18249  22543667.1594   22543672.9694
  20999049.775   -25171257.95549 -19573266.15949  20999051.8084   20999056.9634
  24402767.192    -8026169.33449  -6238923.18149  24402775.8154   24402780.8094
  23076193.967   -16704336.35649 -13003939.39449  23076195.3484   23076200.2374
  22709932.410   -14779709.57049 -11503118.11149  22709934.6914   22709940.1304
  23895118.121   -13918937.541 9 -10580875.774 9  23895120.047    23895126.725
  21118803.675   -27911575.97349 -21463351.46849  21118805.9584   21118811.2194
 96  7 10  1 32  0.0010000  0  8 17  3  1  9 23 31 28 21
  24436464.599   -10115543.44349  -7866103.22249  24436468.2504   24436475.4434
  22555816.060   -19251510.56949 -14988756.30549  22555818.1254   22555824.2434
  20992299.456   -25206731.36749 -19600907.76049  20992301.4004   20992306.9234
  24408378.457    -7996704.44049  -6215963.51449  24408382.3684   24408387.6454
  23087821.459   -16643239.38049 -12956331.38149  23087821.3294   23087827.3914
  22710134.667   -14778650.71449 -11502293.03849  22710136.4894   22710141.1604
  23914929.040   -13814823.085 9 -10499747.704 9  23914932.282    23914938.939
  21120430.148   -27903030.35449 -21456692.54549  21120431.9804   21120437.4634
 96  7 10  1 32 30.0010000  0  8 17  3  1  9 23 31 28 21
  24455773.233   -10014077.67449  -7787039.05349  24455776.1954   24455783.8514
  22568055.462   -19187190.43849 -14938636.76149  22568058.2154   22568064.6634
  20985647.548   -25241686.77149 -19628145.71849  20985649.8474   20985655.3534
  24414089.679    -7966711.37549  -6192592.30949  24414089.3184   24414096.3374
  23099471.890   -16582001.42049 -12908613.50849  23099474.7784   23099479.4314
  22710448.070   -14777000.25449 -11501006.97749  22710450.5954   22710455.6644
  23934767.614   -13710575.865 9 -10418516.178 9  23934769.799    23934776.634
  21122104.905   -27894227.03549 -21449832.81749  21122107.5094   21122112.7844
 96  7 10  1 33  0.0010000  0  8 17  3  1  9 23 31 28 21
  24475119.837    -9912415.09149  -7707821.52449  24475121.7864   24475129.1354
  22580385.316   -19122398.97849 -14888149.93749  22580387.7794   22580393.6624
  20979095.261   -25276117.48449 -19654974.83149  20979097.4944   20979103.0514
  24419904.245    -7936173.45449  -6168796.51349  24419900.8164   24419907.0374
  23111156.185   -16520609.36049 -12860775.55249  23111157.1324   23111162.7444
  22710875.770   -14774753.91049 -11499256.59349  22710877.7754   22710883.2214
  23954631.826   -13606191.436 9 -10337177.731 9  23954633.733    23954640.284
  21123827.052   -27885179.83149 -21442783.05449  21123829.1004   21123834.2744
 96  7 10  1 33 30.0010000  0  8 17  3  1  9 23 31 28 21
  24494501.336    -9810569.81249  -7628461.63849  24494503.2734   24494508.9114
  22592802.704   -19057146.10149 -14837303.56849  22592805.0704   22592811.1724
  20972641.221   -25310031.73449 -19681401.50449  20972643.9344   20972649.2814
  24425810.985    -7905080.36949  -6144568.14949  24425817.6864   24425824.0224
  23122864.743   -16459065.49249 -12812819.30749  23122868.4974   23122874.0004
  22711415.822   -14771916.18749 -11497045.39549  22711417.8364   22711422.9684
  23974520.381   -13501671.386 9 -10255733.606 9  23974523.005    23974529.837
  21125591.667   -27875907.58449 -21435557.92749  21125593.4024   21125598.6834
 96  7 10  1 34  0.0010000  0  8 17  3  1  9 23 31 28 21
  24513917.739    -9708541.51049  -7548959.11649  24513918.8104   24513926.0264
  22605306.703   -18991437.46249 -14786102.05749  22605309.0944   22605314.8584
  20966286.287   -25343430.40749 -19707426.42849  20966288.5494   20966293.9594
  24431837.416    -7873416.51349  -6119895.01849  24431843.0934   24431849.6234
  23134606.485   -16397374.47949 -12764748.40449  23134607.5194   23134613.8114
  22712073.521   -14768462.80349 -11494354.46349  22712075.3034   22712080.3074
  23994437.600   -13397012.863 9 -10174181.597 9  23994438.826    23994445.881
  21127399.595   -27866403.07749 -21428151.81749  21127401.9474   21127406.9434
 96  7 10  1 34 30.0010000  0  8 17  3  1  9 23 31 28 21
  24533366.287    -9606329.98249  -7469313.85349  24533367.8494   24533375.8214
  22617893.747   -18925291.53749 -14734559.81049  22617896.1284   22617902.2634
  20960029.505   -25376313.59049 -19733049.67449  20960031.2414   20960036.3274
  24437977.824    -7841192.25149  -6094785.17549  24437975.3644   24437981.2514
  23146368.757   -16335557.58349 -12716579.41649  23146371.6464   23146377.3164
  22712845.818   -14764402.07249 -11491190.26749  22712847.4084   22712853.2314
  24014376.707   -13292230.174 9 -10092532.844 9  24014378.083    24014385.349
  21129250.296   -27856678.54949 -21420574.26249  21129252.5334   21129257.7654
 96  7 10  1 35  0.0010000  0  8 17  3  1  9 23 31 28 21
  24552851.243    -9503939.63749  -7389529.21949  24552853.1324   24552860.2224
  22630562.321   -18858718.90949 -14682685.07249  22630564.9074   22630571.1894
  20953868.957   -25408683.40249 -19758272.89249  20953871.3014   20953876.7304
  24444207.910    -7808423.67449  -6069251.23449  24444211.3904   24444215.4474
  23158152.036   -16273636.59149 -12668329.30949  23158154.6914   23158160.2784
  22713731.435   -14759743.00549 -11487559.84249  22713733.7044   22713739.6674
  24034338.807   -13187327.722 9 -10010790.764 9  24034340.991    24034347.690
  21131143.314   -27846729.77649 -21412821.97349  21131145.6944   21131150.9834
 96  7 10  1 35 30.0010000  0  8 17  3  1  9 23 31 28 21
  24572368.841    -9401368.83649  -7309604.00449  24572372.8574   24572379.5124
  22643312.905   -18791713.97749 -14630473.47449  22643315.2464   22643321.8404
  20947807.846   -25440536.90049 -19783093.78449  20947809.7634   20947815.1134
  24450547.888    -7775107.94549  -6043290.92449  24450550.9974   24450556.3534
  23169956.990   -16211616.01849 -12620001.61049  23169956.5104   23169962.8354
  22714735.587   -14754471.39749 -11483452.10449  22714737.2744   22714742.7224
  24054323.317   -13082302.204 9  -9928952.790 9  24054326.677    24054333.427
  21133083.952   -27836531.34949 -21404875.14749  21133086.1484   21133091.8694
 96  7 10  1 36  0.0010000  0  8 17  3  1  9 23 31 28 21
  24591926.232    -9298607.90949  -7229530.63249  24591926.0434   24591933.1514
  22656146.259   -18724270.23749 -14577919.94849  22656149.1534   22656155.5984
  20941849.005   -25471847.60949 -19807491.73249  20941851.5594   20941856.7834
  24456995.373    -7741242.79149  -6016902.48249  24456995.5664   24457000.4074
  23181772.927   -16149501.68549 -12571600.84549  23181776.4534   23181782.8044
  22715859.147   -14748566.21049 -11478850.67949  22715861.2854   22715866.8494
  24074335.384   -12977153.148 9  -9847018.555 9  24074336.066    24074342.711
  21135076.284   -27826061.95549 -21396717.18349  21135078.7004   21135083.8104
 96  7 10  1 36 30.0010000  0  8 17  3  1  9 23 31 28 21
  24611515.410    -9195653.71149  -7149306.64749  24611518.6764   24611524.7014
  22669061.611   -18656402.01449 -14525035.65449  22669064.2924   22669070.1914
  20935996.695   -25502603.85249 -19831457.62849  20935998.6594   20936003.9974
  24463541.338    -7706828.91249  -5990086.48149  24463543.8374   24463549.8774
  23193613.953   -16087288.87549 -12523123.34449  23193615.6264   23193621.0514
  22717100.719   -14742041.34849 -11473766.37449  22717102.4374   22717108.0584
  24094365.298   -12871879.750 9  -9764987.427 9  24094368.729    24094375.770
  21137122.315   -27815311.16349 -21388339.94149  21137124.5584   21137129.6454
 96  7 10  1 37  0.0010000  0  8 17  3  1  9 23 31 28 21
  24631141.921    -9092516.27849  -7068939.87049  24631145.1744   24631152.1004
  22682053.428   -18588126.25149 -14471833.79849  22682056.1914   22682062.7254
  20930245.845   -25532826.16449 -19855007.46949  20930247.7714   20930253.1904
  24470194.392    -7671865.12049  -5962841.98649  24470197.3194   24470203.5654
  23205471.365   -16024980.93849 -12474571.71649  23205472.1784   23205477.4674
  22718457.247   -14734913.16349 -11468211.95849  22718459.1164   22718465.0404
  24114422.276   -12766490.205 9  -9682865.799 9  24114423.674    24114431.015
  21139222.416   -27804274.72549 -21379740.12049  21139224.7274   21139229.9224
 96  7 10  1 37 30.0010000  0  8 17  3  1  9 23 31 28 21
  24650804.422    -8989192.82649  -6988428.15549  24650806.9744   24650814.0664
  22695121.722   -18519455.26649 -14418323.98349  22695124.1104   22695130.3114
  20924594.382   -25562526.17649 -19878150.33249  20924596.2904   20924601.0804
  24476953.761    -7636351.32649  -5935168.90249  24476955.5104   24476960.5444
  23217347.199   -15962575.33549 -12425943.99249  23217347.4504   23217352.8124
  22719927.690   -14727185.54249 -11462190.44749  22719929.6484   22719935.5804
  24134497.446   -12660996.534 9  -9600663.030 9  24134499.074    24134505.900
  21141374.095   -27792966.88349 -21370928.82149  21141376.4024   21141381.4854
 96  7 10  1 38  0.0010000  0  8 17  3  1  9 23 31 28 21
  24670503.600    -8885667.67049  -6907759.26349  24670506.6074   24670513.5654
  22708266.242   -18450380.42849 -14364499.47749  22708268.6174   22708274.7404
  20919042.648   -25591699.75349 -19900882.97449  20919044.5214   20919049.6684
  24483814.357    -7600286.41149  -5907066.36149  24483818.0744   24483824.2314
  23229243.662   -15900051.01549 -12377223.76149  23229245.6114   23229251.3004
  22721511.223   -14718866.14749 -11455707.81449  22721512.5434   22721518.3244
  24154592.791   -12555392.446 9  -9518374.204 9  24154594.908    24154601.597
  21143576.621   -27781393.76049 -21361910.80849  21143578.7794   21143583.8164
 96  7 10  1 38 30.0010000  0  8 17  3  1  9 23 31 28 21
  24690243.295    -8781942.48249  -6826934.51549  24690245.3864   24690253.4714
  22721490.561   -18380888.12149 -14310349.66149  22721492.6394   22721498.9164
  20913587.165   -25620367.74849 -19923221.65949  20913589.0834   20913594.3604
  24490784.855    -7563675.19549  -5878538.15549  24490784.3824   24490790.9524
  23241165.902   -15837400.40249 -12328405.11749  23241167.3464   23241173.6584
  22723201.451   -14709980.57149 -11448784.00449  22723203.6564   22723209.2004
  24174708.693   -12449679.803 9  -9436000.795 9  24174711.320    24174718.071
  21145828.477   -27769561.60049 -21352690.94249  21145830.2394   21145835.5904
 96  7 10  1 39  0.0010000  0  8 17  3  1  9 23 31 28 21
  24710017.691    -8678020.86549  -6745956.72349  24710020.8084   24710028.0124
  22734797.407   -18310959.75049 -14255860.06649  22734799.9534   22734805.8084
  20908226.743   -25648538.14449 -19945172.60449  20908228.4814   20908233.7264
  24497850.502    -7526527.92449  -5849592.23549  24497854.0894   24497858.6974
  23253112.454   -15774623.26849 -12279487.88149  23253113.3974   23253119.4394
  22724999.178   -14700532.68949 -11441422.03549  22725001.3024   22725007.5914
  24194844.487   -12343869.465 9  -9353551.253 9  24194846.390    24194853.112
  21148125.661   -27757490.08249 -21343284.56949  21148127.5244   21148132.5844
 96  7 10  1 39 30.0010000  0  8 17  3  1  9 23 31 28 21
  24729829.215    -8573901.25149  -6664824.64349  24729833.7514   24729841.4814
  22748188.812   -18240584.68149 -14201022.39649  22748191.8094   22748198.0144
  20902964.127   -25676190.65049 -19966719.99449  20902966.2314   20902971.4684
  24505018.735    -7488852.94449  -5820235.12549  24505023.6834   24505029.6024
  23265086.231   -15711697.89149 -12230455.13649  23265087.8944   23265093.3194
  22726906.515   -14690514.62849 -11433615.77149  22726908.1224   22726913.6834
  24214998.264   -12237960.213 9  -9271024.646 9  24215000.294    24215006.996
  21150467.996   -27745180.38549 -21333692.60449  21150470.1114   21150475.2984
 96  7 10  1 40  0.0010000  0  8 17  3  1  9 23 31 28 21
  24749676.893    -8469607.24649  -6583556.65949  24749680.5474   24749687.5344
  22761662.907   -18169782.32649 -14145851.77549  22761665.0424   22761671.2554
  20897800.410   -25703328.58949 -19987866.42749  20897802.1364   20897807.4294
  24512286.886    -7450669.45149  -5790481.75149  24512288.3524   24512294.7604
  23277086.857   -15648640.00749 -12181319.13649  23277087.7184   23277092.7164
  22728919.813   -14679933.30749 -11425370.60749  22728921.9494   22728927.3004
  24235168.919   -12131967.231 9  -9188432.798 9  24235170.278    24235176.913
  21152853.619   -27732643.73649 -21323923.78849  21152855.5044   21152860.8414
 96  7 10  1 40 30.0010000  0  8 17  3  1  9 23 31 28 21
  24769562.080    -8365133.84249  -6502148.87549  24769560.9634   24769569.0514
  22775215.964   -18098555.85449 -14090350.67849  22775218.9914   22775225.2384
  20892735.987   -25729941.72749 -20008603.91849  20892737.9284   20892742.7954
  24519648.615    -7411966.25749  -5760323.42349  24519654.9864   24519660.1754
  23289112.174   -15585450.30049 -12132080.42049  23289112.3564   23289118.0704
  22731045.024   -14668764.64549 -11416667.77549  22731046.7264   22731052.7534
  24255354.851   -12025888.072 9  -9105773.803 9  24255356.236    24255363.652
  21155286.772   -27719858.92949 -21313961.60049  21155288.4174   21155293.5524
 96  7 10  1 41  0.0010000  0  8 17  3  1  9 23 31 28 21
  24789470.012    -8260478.41749  -6420599.27649  24789476.3464   24789484.3454
  22788847.251   -18026923.32849 -14034533.18149  22788849.9344   22788856.8964
  20887773.297   -25756019.06949 -20028923.90749  20887775.5174   20887780.6734
  24527116.257    -7372743.12849  -5729759.94349  24527118.9324   24527122.9614
  23301161.421   -15522120.39149 -12082732.45749  23301164.2624   23301169.5184
  22733286.086   -14656984.44549 -11407488.41849  22733288.3494   22733294.0854
  24275557.103   -11919721.846 9  -9023046.979 9  24275559.309    24275566.109
  21157768.764   -27706813.08549 -21303796.00749  21157771.0704   21157776.4184
 96  7 10  1 41 30.0010000  0  8 17  3  1  9 23 31 28 21
  24809424.571    -8155646.14149  -6338911.87849  24809425.8634   24809433.6864
  22802552.483   -17954907.16849 -13978416.74049  22802554.3574   22802560.9034
  20882911.780   -25781561.85849 -20048827.36749  20882914.4164   20882919.7584
  24534669.811    -7333004.62649  -5698794.90549  24534678.8984   24534685.2304
  23313232.863   -15458669.45749 -12033290.19249  23313237.6984   23313243.6174
  22735646.167   -14644589.49149 -11397830.02749  22735647.7264   22735652.9204
  24295775.646   -11813470.499 9  -8940253.811 9  24295778.207    24295785.240
  21160305.163   -27693485.58449 -21293410.94049  21160307.0954   21160312.5364
 96  7 10  1 42  0.0010000  0  8 17  3  1  9 23 31 28 21
  24829408.192    -8050627.53949  -6257079.29349  24829410.4954   24829417.6114
  22816330.352   -17882498.93349 -13921994.78049  22816333.1444   22816339.6284
  20878153.880   -25806569.31749 -20068313.68349  20878155.9554   20878161.0214
  24542341.504    -7292733.04449  -5667414.46349  24542343.6614   24542349.1884
  23325330.507   -15395115.07449 -11983767.31449  23325331.5914   23325337.5414
  22738121.353   -14631578.86649 -11387691.89849  22738123.5024   22738129.6664
  24316012.929   -11707129.694 9  -8857390.942 9  24316014.430    24316021.524
  21162899.086   -27679854.19249 -21282789.07449  21162900.9644   21162906.3464
 96  7 10  1 42 30.0010000  0  8 17  3  1  9 23 31 28 21
  24849424.256    -7945430.91249  -6175107.97549  24849428.9154   24849436.2244
  22830183.687   -17809701.23549 -13865269.34249  22830186.4304   22830192.3144
  20873494.953   -25831053.68449 -20087392.39449  20873496.5114   20873501.7974
  24550101.095    -7251936.35549  -5635624.84249  24550105.8994   24550111.7024
  23337442.431   -15331463.56449 -11934168.75249  23337444.4744   23337450.2574
  22740708.110   -14617982.24349 -11377097.15049  22740710.2904   22740716.1634
  24336264.216   -11600711.618 9  -8774467.861 9  24336265.587    24336272.380
  21165549.574   -27665924.72749 -21271934.94149  21165551.7534   21165557.1824
 96  7 10  1 43  0.0010000  0  8 17  3  1  9 23 31 28 21
  24869477.203    -7840061.01449  -6093001.65149  24869479.5994   24869487.6404
  22844108.029   -17736530.03349 -13808252.86449  22844110.4124   22844116.6034
  20868936.402   -25855007.68849 -20106057.83249  20868938.2994   20868943.7134
  24557963.576    -7210614.25849  -5603425.80449  24557970.2834   24557975.8894
  23349573.456   -15267721.02049 -11884499.25749  23349573.9314   23349579.5514
  22743403.388   -14603823.22949 -11366064.17349  22743405.2044   22743410.8654
  24356527.389   -11494225.222 9  -8691491.550 9  24356528.817    24356536.084
  21168252.708   -27651719.17449 -21260865.67249  21168255.1654   21168260.6054
 96  7 10  1 43 30.0010000  0  8 17  3  1  9 23 31 28 21
  24889562.591    -7734512.79249  -6010756.37849  24889564.3224   24889573.0724
  22858104.777   -17662975.86549 -13750937.96849  22858107.1234   22858113.0504
  20864480.537   -25878421.27349 -20124302.17249  20864482.8854   20864488.1264
  24565935.969    -7168742.04549  -5570798.13749  24565938.2134   24565943.3684
  23361718.977   -15203880.58849 -11834753.49749  23361722.5594   23361728.4294
  22746203.645   -14589106.74949 -11354596.81149  22746205.3604   22746211.6354
  24376804.883   -11387667.820 9  -8608459.924 9  24376806.380    24376813.298
  21171008.114   -27637239.97749 -21249583.17549  21171010.1364   21171015.6994
 96  7 10  1 44  0.0010000  0  8 17  3  1  9 23 31 28 21
  24909680.303    -7628793.54349  -5928377.86149  24909682.3374   24909690.9634
  22872172.944   -17589047.81449 -13693331.73449  22872175.5244   22872181.5254
  20860125.580   -25901308.13549 -20142136.07149  20860127.5134   20860133.2464
  24574012.788    -7126314.58149  -5537737.75549  24574011.3334   24574018.4294
  23373891.637   -15139926.31749 -11784919.03449  23373892.9324   23373898.9924
  22749108.694   -14573839.74349 -11342700.47449  22749110.6054   22749115.8794
  24397092.308   -11281049.325 9  -8525380.682 9  24397095.273    24397102.072
  21173809.503   -27622517.74549 -21238111.30449  21173811.7334   21173817.1704
 96  7 10  1 44 30.0010000  0  8 17  3  1  9 23 31 28 21
  24929832.796    -7522907.23149  -5845869.11149  24929832.6124   24929840.6264
  22886310.999   -17514751.45149 -13635438.49949  22886313.6344   22886319.7394
  20855869.951   -25923667.87449 -20159559.23249  20855872.7924   20855878.2964
  24582189.962    -7083330.49149  -5504243.68849  24582192.0284   24582197.5154
  23386086.681   -15075838.07949 -11734980.17849  23386088.8084   23386094.8664
  22752120.637   -14558014.57049 -11330369.19349  22752122.1264   22752127.5394
  24417393.777   -11174369.586 9  -8442253.714 9  24417395.616    24417402.760
  21176654.800   -27607566.17449 -21226460.73549  21176656.7814   21176662.3574
 96  7 10  1 45  0.0010000  0  8 17  3  1  9 23 31 28 21
  24950009.381    -7416848.74849  -5763226.20049  24950013.5794   24950024.5244
  22900521.392   -17440072.70349 -13577247.31649  22900524.3814   22900530.8034
  20851717.003   -25945499.51249 -20176570.88249  20851718.2634   20851723.9784
  24590476.517    -7039779.08649  -5470307.52249  24590479.6434   24590486.1584
  23398307.099   -15011614.09249 -11684935.54349  23398310.0074   23398315.5614
  22755242.550   -14541607.05049 -11317584.13749  22755244.0854   22755250.4224
  24437705.629   -11067624.476 9  -8359075.809 9  24437708.956    24437715.727
  21179546.177   -27592371.42949 -21214620.67249  21179548.4484   21179553.5424
 96  7 10  1 45 30.0010000  0  8 17  3  1  9 23 31 28 21
  24970223.682    -7310634.64649  -5680462.03849  24970225.7744   24970234.3434
  22914806.635   -17365005.84249 -13518753.70149  22914808.9984   22914815.7334
  20847656.409   -25966837.47649 -20193197.85049  20847657.8614   20847663.5154
  24598868.447    -6995680.80049  -5435945.22949  24598870.4984   24598876.9114
  23410553.951   -14947258.88749 -11634788.64849  23410556.3824   23410562.2774
  22758477.130   -14524608.47549 -11304338.52349  22758479.1374   22758484.9354
  24458029.543   -10960823.929 9  -8275854.697 9  24458032.408    24458039.410
  21182485.294   -27576926.73649 -21202585.84749  21182487.3704   21182492.7604
 96  7 10  1 46  0.0010000  0  8 17  3  1  9 23 31 28 21
  24990465.533    -7204267.74749  -5597578.77549  24990467.7734   24990476.0524
  22929165.253   -17289551.41549 -13459958.08049  22929167.2944   22929173.8994
  20843690.740   -25987674.82649 -20209434.73649  20843692.5644   20843698.4704
  24607361.640    -6951057.05249  -5401173.49049  24607362.3344   24607368.1494
  23422824.126   -14882778.73249 -11584544.39649  23422826.4974   23422832.6254
  22761825.070   -14507014.88349 -11290629.26149  22761826.9014   22761832.5134
  24478364.397   -10853969.532 9  -8192591.629 9  24478365.955    24478373.305
  21185471.704   -27561233.32849 -21190357.21849  21185473.9174   21185479.1994
 96  7 10  1 46 30.0010000  0  8 17  3  1  9 23 31 28 21
  25010734.220    -7097749.07349  -5514577.27249  25010737.7094   25010744.1924
  22943601.094   -17213690.82749 -13400845.96749  22943603.7674   22943609.6154
  20839821.290   -26008005.67849 -20225276.94449  20839823.7884   20839829.3804
  24615952.337    -6905915.32349  -5365998.13349  24615953.2164   24615958.5134
  23435113.893   -14818190.76449 -11534216.14749  23435117.8204   23435123.2014
  22765285.274   -14488831.42249 -11276460.36149  22765286.8744   22765293.3544
  24498706.238   -10747061.609 9  -8109286.865 9  24498709.804    24498717.153
  21188508.946   -27545273.67949 -21177921.13849  21188510.7854   21188516.0804
 96  7 10  1 47  0.0010000  0  8 17  3  1  9 23 31 28 21
  25031038.081    -6991067.04449  -5431448.44449  25031038.4934   25031045.6454
  22958115.112   -17137419.80449 -13341414.02949  22958117.5254   22958123.3414
  20836051.892   -26027816.70949 -20240714.09749  20836053.9404   20836059.2304
  24624641.251    -6860254.57149  -5330418.32449  24624642.1364   24624647.9464
  23447425.701   -14753500.88449 -11483808.47749  23447427.3054   23447432.7624
  22768858.785   -14470054.51549 -11261829.02449  22768860.0754   22768866.0314
  24519063.872   -10640098.480 9  -8025939.083 9  24519064.617    24519071.585
  21191596.983   -27529043.75549 -21165274.44749  21191599.2404   21191604.5554
 96  7 10  1 47 30.0010000  0  8 17  3  1  9 23 31 28 21
  25051365.810    -6884230.98749  -5348199.60949  25051368.2864   25051375.8154
  22972700.069   -17060775.08749 -13281690.92049  22972702.7164   22972709.0934
  20832380.599   -26047109.88549 -20255747.72649  20832382.3474   20832387.9514
  24633423.966    -6814086.28849  -5294443.05349  24633426.8064   24633432.9984
  23459754.874   -14688708.87049 -11433321.22149  23459756.7604   23459762.9254
  22772540.689   -14450704.10549 -11246750.80949  22772542.5334   22772548.6474
  24539425.653   -10533091.286 9  -7942556.959 9  24539427.387    24539434.454
  21194732.929   -27512564.17749 -21152433.22349  21194735.0914   21194740.5304
 96  7 10  1 48  0.0010000  0  9 17  3  1  9 23 31 28 21 15
  25071729.395    -6777225.04949  -5264818.40249  25071732.3254   25071739.0244
  22987354.875   -16983763.97549 -13221682.31449  22987357.2254   22987363.6304
  20828812.653   -26065859.72249 -20270357.97049  20828814.6784   20828820.1514
  24642309.676    -6767395.35449  -5258060.54049  24642312.7554   24642318.6364
  23472105.493   -14623811.18849 -11382751.62749  23472106.5754   23472112.1964
  22776331.542   -14430785.16849 -11231229.57949  22776333.4824   22776339.2784
  24559797.793   -10426035.517 9  -7859137.001 9  24559799.249    24559806.395
  21197917.472   -27495827.52249 -21139391.67849  21197919.9204   21197925.5454
  24988385.443    -4206067.11359  -3253507.83859  24988387.6104   24988393.3764
 96  7 10  1 48 30.0010000  0  9 17  3  1  9 23 31 28 21 15
  25092123.500    -6670048.28049  -5181304.07149  25092126.5994   25092134.4274
  23002077.127   -16906396.54949 -13161396.05949  23002079.6884   23002086.1814
  20825343.919   -26084085.26549 -20284559.67749  20825346.4584   20825351.9014
  24651293.333    -6720179.19049  -5221268.73149  24651297.5934   24651302.6634
  23484476.693   -14558804.54549 -11332097.11449  23484476.3014   23484482.7924
  22780228.288   -14410305.80349 -11215271.65249  22780230.0444   22780236.2504
  24580176.124   -10318935.760 9  -7775682.755 9  24580179.494    24580186.704
  21201152.082   -27478834.04149 -21126150.01749  21201153.9024   21201159.0274
  24967822.755    -4314132.53249  -3337714.61549  24967825.5784   24967831.8414
 96  7 10  1 49  0.0010000  0  9 17  3  1  9 23 31 28 21 15
  25112552.655    -6562701.21949  -5097657.08449  25112553.0894   25112562.1164
  23016861.163   -16828707.80249 -13100859.42349  23016863.5874   23016869.8524
  20821975.937   -26101787.62749 -20298353.70749  20821977.4944   20821983.2204
  24660376.429    -6672452.45349  -5184079.08149  24660379.4784   24660383.1454
  23496866.338   -14493672.39449 -11281344.81449  23496871.5564   23496877.0724
  22784232.577   -14389262.51249 -11198874.29149  22784234.5814   22784240.6824
  24600563.587   -10211798.647 9  -7692199.397 9  24600567.263    24600574.214
  21204433.145   -27461591.02349 -21112713.90749  21204435.3254   21204440.4674
  24947264.744    -4422151.01949  -3421884.76049  24947267.2254   24947275.5274
 96  7 10  1 49 30.0010000  0  9 17  3  1  9 23 31 28 21 15
  25133007.222    -6455200.34749  -5013890.22449  25133011.0774   25133017.7154
  23031702.900   -16750714.90549 -13040085.78149  23031704.8634   23031711.1824
  20818704.730   -26118973.84849 -20311745.55849  20818707.2464   20818712.6564
  24669551.940    -6624236.62349  -5146508.31949  24669554.3914   24669559.2454
  23509288.594   -14428412.43949 -11230492.92749  23509289.4034   23509295.7804
  22788342.791   -14367663.79449 -11182044.13449  22788344.6224   22788350.7274
  24620958.155   -10104634.393 9  -7608694.893 9  24620960.366    24620966.975
  21207761.725   -27444096.87849 -21099082.11349  21207764.1104   21207769.3804
  24926720.164    -4530127.24349  -3506022.07849  24926720.7354   24926727.4024
 96  7 10  1 50  0.0010000  0  9 17  3  1  9 23 31 28 21 15
  25153492.890    -6347548.87949  -4930006.03149  25153495.9274   25153503.3454
  23046606.610   -16672395.61449 -12979057.81449  23046609.1504   23046615.2674
  20815533.892   -26135640.20549 -20324732.31749  20815535.6234   20815541.0914
  24678820.566    -6575531.52249  -5108556.29949  24678822.7164   24678827.4174
  23521728.456   -14363033.51149 -11179548.32349  23521730.9534   23521737.0404
  22792559.817   -14345504.18449 -11164776.92049  22792561.9244   22792567.7324
  24641358.178    -9997440.787 9  -7525167.508 9  24641358.685    24641365.191
  21211140.368   -27426344.94849 -21085249.45249  21211142.2344   21211147.4444
  24906183.266    -4638054.68749  -3590121.26649  24906181.6814   24906189.1354
 96  7 10  1 50 30.0010000  0 10 17 25  3  1  9 23 31 28 21 15
  25174006.502    -6239757.13949  -4846012.53049  25174008.3274   25174016.0374
  25351936.599    -2981449.58859  -2070618.25259  25351939.5734   25351947.5064
  23061573.525   -16593743.86449 -12917770.79249  23061575.4204   23061582.3994
  20812460.817   -26151788.97749 -20337315.76149  20812462.6904   20812467.9414
  24688181.273    -6526344.98149  -5070229.14149  24688183.2244   24688187.1454
  23534195.453   -14297526.82249 -11128504.16349  23534196.6204   23534201.8184
  22796885.703   -14322769.77449 -11147061.80649  22796887.4984   22796893.9654
  24661760.705    -9890216.929 9  -7441616.572 9  24661762.817    24661769.554
  21214567.215   -27408337.53849 -21071217.70949  21214568.9324   21214574.1444
  24885655.847    -4745927.23249  -3674177.79849  24885656.0054   24885663.2154
 96  7 10  1 51  0.0010000  0  9 25  3  1  9 23 31 28 21 15
  25332720.334    -3082424.02949  -2149299.49349  25332723.3434   25332732.1204
  23076604.494   -16514754.85249 -12856220.97449  23076606.9614   23076613.8184
  20809489.329   -26167401.18649 -20349481.11149  20809491.6784   20809496.9164
  24697633.402    -6476671.18149  -5031522.29349  24697635.7394   24697639.9014
  23546683.286   -14231899.25949 -11077365.82749  23546685.2684   23546691.1014
  22801324.457   -14299445.59949 -11128887.13349  22801326.0584   22801332.1224
  24682170.900    -9782960.291 9  -7358040.090 9  24682173.015    24682179.997
  21218044.935   -27390060.51649 -21056975.88049  21218047.0824   21218052.2234
  24865137.194    -4853737.09649  -3758185.38549  24865140.2214   24865146.4224
 96  7 10  1 51 30.0010000  0  9 25  3  1  9 23 31 28 21 15
  25313502.029    -3183430.66949  -2228005.83949  25313503.3404   25313510.0374
  23091701.094   -16435423.63749 -12794404.51149  23091703.7614   23091709.6194
  20806617.789   -26182493.69649 -20361241.49949  20806619.4394   20806624.9134
  24707181.088    -6426504.72149  -4992431.53049  24707182.1744   24707188.3124
  23559188.778   -14166177.22949 -11026153.86949  23559191.1954   23559197.1084
  22805871.647   -14275548.38949 -11110265.94549  22805873.8994   22805879.9884
  24702585.819    -9675683.880 9  -7274448.202 9  24702587.411    24702594.483
  21221572.801   -27371522.83949 -21042530.93949  21221574.6094   21221579.6514
  24844631.668    -4961492.32949  -3842150.51049  24844633.0764   24844641.1494
 96  7 10  1 52  0.0010000  0  9 25  3  1  9 23 31 28 21 15
  25294271.440    -3284480.17249  -2306745.58649  25294273.0544   25294281.5184
  23106864.704   -16355738.59049 -12732312.32149  23106867.3234   23106872.8094
  20803841.452   -26197081.01949 -20372608.23449  20803843.5754   20803849.2004
  24716824.457    -6375831.91649  -4952946.23849  24716824.0214   24716829.6224
  23571713.608   -14100367.88449 -10974873.88349  23571715.1234   23571720.6894
  22810529.213   -14251075.84749 -11091196.44549  22810530.3714   22810536.4334
  24723003.634    -9568392.148 9  -7190844.369 9  24723004.225    24723011.403
  21225147.888   -27352734.53849 -21027890.70549  21225149.7544   21225155.2494
  24824138.335    -5069192.61849  -3926072.76349  24824139.5184   24824147.6554
 96  7 10  1 52 30.0010000  0  9 25  3  1  9 23 31 28 21 15
  25275033.071    -3385569.02449  -2385516.01149  25275037.3684   25275044.6684
  23122095.242   -16275699.31449 -12669944.10749  23122097.7974   23122103.8874
  20801162.663   -26211159.81749 -20383578.71449  20801164.9064   20801170.1864
  24726560.626    -6324648.19649  -4913062.83249  24726563.3154   24726568.5924
  23584255.975   -14034455.25549 -10923513.41949  23584257.3594   23584263.3814
  22815297.597   -14226017.78049 -11071670.68949  22815299.0214   22815305.3894
  24743422.122    -9461082.661 9  -7107226.715 9  24743424.623    24743432.302
  21228771.415   -27333691.68149 -21013052.11649  21228773.5564   21228778.7174
  24803655.744    -5176830.34849  -4009946.25749  24803656.9714   24803663.1294
 96  7 10  1 53  0.0010000  0  9 25  3  1  9 23 31 28 21 15
  25255790.921    -3486699.80249  -2464319.08849  25255792.0974   25255798.7704
  23137394.721   -16195302.17449 -12607297.03549  23137397.0774   23137403.5544
  20798582.036   -26224719.93549 -20394145.02349  20798584.1284   20798589.7254
  24736401.861    -6272943.87749  -4872773.78149  24736404.0894   24736407.8724
  23596820.015   -13968433.90749 -10872068.23049  23596820.1194   23596825.9864
  22820174.632   -14200388.83049 -11051700.08849  22820176.3024   22820181.4354
  24763846.977    -9353752.598 9  -7023593.038 9  24763849.075    24763856.478
  21232444.667   -27314390.18949 -20998011.99549  21232446.4974   21232451.9184
  24783185.569    -5284398.03749  -4093765.20349  24783187.5304   24783194.0944
 96  7 10  1 53 30.0010000  0  9 25  3  1  9 23 31 28 21 15
  25236536.237    -3587878.08049  -2543159.18449  25236539.3694   25236546.9524
  23152762.625   -16114544.31849 -12544368.88549  23152764.8914   23152771.4364
  20796098.367   -26237772.30249 -20404315.68549  20796100.2864   20796105.7474
  24746340.426    -6220726.77149  -4832085.10749  24746339.3584   24746347.6964
  23609403.394   -13902294.15049 -10820530.77749  23609407.1414   23609412.5534
  22825156.363   -14174208.86749 -11031300.12849  22825157.8404   22825163.6564
  24784274.318    -9246411.382 9  -6939950.674 9  24784275.153    24784282.905
  21236164.275   -27294844.00449 -20982781.20349  21236166.3154   21236171.3464
  24762728.602    -5391899.69049  -4177532.68149  24762730.5744   24762737.6334
 96  7 10  1 54  0.0010000  0  9 25  3  1  9 23 31 28 21 15
  25217270.295    -3689119.52949  -2622048.49549  25217273.5424   25217281.0334
  23168197.636   -16033431.96649 -12481164.51249  23168200.1864   23168206.3784
  20793711.475   -26250316.92249 -20414090.69849  20793713.1404   20793718.5924
  24756368.912    -6168006.90149  -4791004.69749  24756370.7724   24756380.2954
  23622011.950   -13836037.51649 -10768902.24849  23622014.8774   23622021.3294
  22830240.279   -14147492.29249 -11010482.03449  22830242.3394   22830247.9314
  24804701.290    -9139068.791 9  -6856307.237 9  24804702.121    24804709.599
  21239928.111   -27275064.45349 -20967368.56149  21239930.0464   21239935.2874
  24742281.306    -5499340.24449  -4261252.53749  24742285.0654   24742293.2344
 96  7 10  1 54 30.0010000  0  9 25  3  1  9 23 31 28 21 15
  25197994.618    -3790419.82249  -2700983.64649  25197996.7324   25198003.6884
  23183697.343   -15951978.98949 -12417694.71549  23183699.7864   23183706.2544
  20791425.278   -26262327.89149 -20423449.87949  20791427.4994   20791432.8614
  24766498.061    -6114782.81949  -4749531.41749  24766501.7184   24766505.0204
  23634647.136   -13769652.40249 -10717173.61349  23634647.6324   23634652.7004
  22835425.262   -14120245.06749 -10989250.44249  22835427.2134   22835433.2764
  24825127.335    -9031715.113 9  -6772655.155 9  24825130.643    24825139.021
  21243740.421   -27255028.81749 -20951756.37549  21243742.5424   21243747.8464
  24721852.219    -5606705.14049  -4344913.46249  24721855.1994   24721860.4594
 96  7 10  1 55  0.0010000  0  9 25  3  1  9 23 31 28 21 15
  25178705.601    -3891786.48249  -2779970.51549  25178706.8264   25178714.3554
  23199259.794   -15870200.65349 -12353971.39149  23199262.2624   23199268.3964
  20789239.781   -26273814.95349 -20432400.81749  20789241.3794   20789246.9844
  24776716.896    -6061068.06349  -4707675.76549  24776721.2234   24776726.8764
  23647300.801   -13703152.34449 -10665355.39549  23647302.4634   23647308.0524
  22840707.790   -14092486.42949 -10967620.34949  22840709.6624   22840715.5344
  24845558.311    -8924364.438 9  -6689005.399 9  24845558.955    24845567.307
  21247601.942   -27234735.21749 -20935943.17749  21247604.3284   21247609.3354
  24701433.311    -5714002.93949  -4428522.05649  24701435.7314   24701444.0494
 96  7 10  1 55 30.0010000  0  9 25  3  1  9 23 31 28 21 15
  25159407.979    -3993195.65849  -2858990.48749  25159409.7704   25159417.2984
  23214882.778   -15788101.85749 -12289998.35649  23214884.3344   23214891.6034
  20787152.852   -26284785.12049 -20440948.98949  20787154.1014   20787159.6764
  24787033.366    -6006865.95149  -4665440.34449  24787036.0504   24787041.7924
  23659975.987   -13636543.68349 -10613452.56149  23659977.1254   23659983.0864
  22846089.521   -14064205.63949 -10945583.38149  22846091.4294   22846096.8284
  24865985.848    -8817018.891 9  -6605359.662 9  24865986.126    24865994.113
  21251514.685   -27214176.02749 -20919923.02849  21251516.7314   21251521.9224
  24681029.060    -5821230.94249  -4512076.32149  24681031.1544   24681038.1904
 96  7 10  1 56  0.0010000  0  9 25  3  1  9 23 31 28 21 15
  25140100.976    -4094636.40849  -2938035.08649  25140104.9474   25140113.7284
  23230560.872   -15705710.42349 -12225797.29649  23230563.4074   23230570.5154
  20785162.332   -26295240.63649 -20449096.12849  20785164.6624   20785169.8094
  24797440.749    -5952177.44649  -4622825.93949  24797442.7074   24797449.3964
  23672667.406   -13569836.43149 -10561472.89749  23672671.6294   23672676.4234
  22851571.795   -14035395.30149 -10923133.77549  22851573.4194   22851579.3564
  24886410.142    -8709678.297 9  -6521717.785 9  24886412.470    24886420.695
  21255478.680   -27193345.45549 -20903691.40849  21255480.8234   21255485.8854
  24660639.241    -5928384.33549  -4595572.41349  24660640.6444   24660645.3324
 96  7 10  1 56 30.0010000  0  9 25  3  1  9 23 31 28 21 15
  25120795.949    -4196090.05149  -3017089.72349  25120799.1464   25120807.0374
  23246292.364   -15623040.75149 -12161379.41849  23246294.9164   23246301.7014
  20783268.579   -26305193.01149 -20456851.21049  20783270.7774   20783275.8304
  24807939.134    -5897009.50549  -4579837.95649  24807940.3104   24807946.8494
  23685378.635   -13503033.80349 -10509418.91449  23685383.5334   23685389.5034
  22857157.296   -14006042.71849 -10900261.64949  22857159.2564   22857165.4394
  24906837.019    -8602342.978 9  -6438080.005 9  24906838.042    24906846.608
  21259495.406   -27172236.93749 -20887243.20949  21259497.1724   21259502.8784
  24640263.049    -6035458.38649  -4679006.65849  24640266.2614   24640271.6684
 96  7 10  1 57  0.0010000  0  9 25  3  1  9 23 31 28 21 15
  25101492.830    -4297530.11649  -3096133.78049  25101495.3944   25101504.0304
  23262080.257   -15540079.54749 -12096734.38049  23262082.2654   23262088.3584
  20781467.764   -26314658.56849 -20464226.95449  20781469.4674   20781474.9944
  24818530.321    -5841349.32349  -4536466.42049  24818533.0314   24818539.1954
  23698111.839   -13436129.03949 -10457285.35249  23698114.9984   23698121.3794
  22862850.859   -13976125.71849 -10876949.71849  22862852.4194   22862858.4334
  24927258.932    -8495010.997 9  -6354444.853 9  24927263.110    24927271.320
  21263563.881   -27150853.23549 -20870580.58549  21263566.5404   21263572.0294
  24619904.060    -6142446.04349  -4762373.60849  24619906.1434   24619913.2774
 96  7 10  1 57 30.0010000  0  9 25  3  1  9 23 31 28 21 15
  25082187.571    -4398982.23549  -3175187.23049  25082188.8834   25082197.9524
  23277917.230   -15456850.50349 -12031880.63649  23277919.9184   23277927.0434
  20779754.899   -26323659.90449 -20471240.97049  20779756.8004   20779762.1334
  24829213.598    -5785207.40549  -4492719.46549  24829214.7694   24829222.6504
  23710862.292   -13369139.48949 -10405085.71549  23710862.5424   23710868.7514
  22868646.159   -13945669.01549 -10853217.23049  22868647.6124   22868654.2244
  24947680.980    -8387705.516 9  -6270830.331 9  24947682.972    24947690.938
  21267680.686   -27129223.75749 -20853726.44449  21267682.5234   21267687.8264
  24599557.778    -6249365.66849  -4845687.57649  24599559.9084   24599566.2614
 96  7 10  1 58  0.0010000  0  9 25  3  1  9 23 31 28 21 15
  25062880.159    -4500449.60249  -3254252.56149  25062881.2624   25062889.0124
  23293811.634   -15373329.18249 -11966799.14349  23293813.6724   23293820.8124
  20778134.181   -26332176.04349 -20477876.90949  20778135.9534   20778141.1644
  24839993.963    -5728562.93649  -4448580.94349  24839995.8654   24840001.7544
  23723627.200   -13302037.53149 -10352798.49649  23723632.1374   23723638.2974
  22874547.725   -13914653.77649 -10829049.52749  22874549.6944   22874556.0014
  24968099.067    -8280411.731 9  -6187224.916 9  24968100.248    24968107.808
  21271844.600   -27107339.72749 -20836673.95249  21271846.9704   21271852.3354
  24579228.640    -6356197.11349  -4928932.80649  24579229.6984   24579236.4404
 96  7 10  1 58 30.0010000  0  9 25  3  1  9 23 31 28 21 15
  25043566.010    -4601941.57949  -3333337.08049  25043567.4504   25043575.0134
  23309764.377   -15289498.24349 -11901476.40649  23309766.8274   23309772.8034
  20776607.488   -26340199.45349 -20484128.90749  20776609.1494   20776614.7494
  24850866.257    -5671421.87049  -4404055.44149  24850868.2094   24850876.0754
  23736427.397   -13234807.88949 -10300411.77949  23736425.5004   23736431.3594
  22880556.426   -13883080.91749 -10804447.32049  22880557.6534   22880564.2084
  24988512.754    -8173135.299 9  -6103633.052 9  24988514.034    24988522.723
  21276059.061   -27085199.12049 -20819421.52949  21276060.3544   21276065.4264
  24558916.736    -6462941.18449  -5012109.93649  24558918.1284   24558922.2904
 96  7 10  1 59  0.0010000  0  9 25  3  1  9 23 31 28 21 15
  25024247.144    -4703455.18349  -3412438.45649  25024250.0604   25024258.3354
  23325776.930   -15205347.46849 -11835904.43249  23325779.1804   23325786.5514
  20775178.525   -26347704.69449 -20489977.13449  20775181.0234   20775186.4364
  24861836.307    -5613780.85549  -4359140.37449  24861837.3674   24861845.6724
  23749241.284   -13167440.79549 -10247917.95549  23749244.6414   23749250.8384
  22886669.928   -13850956.70349 -10779415.48549  22886671.5944   22886677.6764
  25008926.125    -8065876.617 9  -6020055.005 9  25008924.253    25008933.092
  21280320.998   -27062793.24549 -20801962.40349  21280323.7614   21280329.3754
  24538621.206    -6569592.84349  -5095215.09649  24538622.3074   24538629.1694
 96  7 10  1 59 30.0010000  0  9 25  3  1  9 23 31 28 21 15
  25004922.206    -4805012.86149  -3491574.17849  25004924.3454   25004932.2114
  23341848.029   -15120895.52449 -11770097.79749  23341850.4254   23341857.6234
  20773853.483   -26354673.26249 -20495407.17749  20773854.9534   20773860.3724
  24872894.765    -5555659.13549  -4313850.72649  24872896.8954   24872903.7954
  23762085.431   -13099944.39349 -10195323.37449  23762088.8204   23762094.6194
  22892885.488   -13818293.18049 -10753963.40749  22892886.8644   22892892.6744
  25029325.896    -7958646.128 9  -5936498.912 9  25029330.241    25029337.382
  21284634.441   -27040133.30649 -20784305.31049  21284635.8344   21284640.9904
  24518343.233    -6676157.51749  -5178252.46149  24518344.0534   24518352.3784
 96  7 10  2  0  0.0010000  0  9 25  3  1  9 23 31 28 21 15
  24985588.231    -4906608.73649  -3570739.68049  24985591.3374   24985598.6334
  23357971.892   -15036160.41449 -11704070.51149  23357975.0474   23357981.6694
  20772631.017   -26361094.48349 -20500410.71449  20772632.9114   20772638.1934
  24884048.339    -5497060.72949  -4268189.65349  24884049.3604   24884055.1504
  23774959.192   -13032314.73949 -10142624.95749  23774959.1334   23774964.0024
  22899205.504   -13785076.01749 -10728079.92949  22899207.8794   22899213.6714
  25049729.611    -7851443.504 9  -5852964.571 9  25049730.573    25049738.744
  21288995.975   -27017212.35449 -20766444.82849  21288997.7574   21289002.8324
  24498080.338    -6782630.02649  -5261217.98949  24498082.0434   24498089.1104
 96  7 10  2  0 30.0010000  0  9 25  3  1  9 23 31 28 21 15
  24966251.976    -5008224.56949  -3649920.73549  24966254.3444   24966262.4644
  23374149.452   -14951148.54049 -11637827.56649  23374152.3184   23374159.2304
  20771516.013   -26366957.13549 -20504979.00049  20771517.1574   20771522.8544
  24895289.862    -5437981.64349  -4222154.01449  24895291.7674   24895298.2584
  23787852.445   -12964553.68949 -10089824.15749  23787853.5844   23787858.4544
  22905632.713   -13751302.24249 -10701762.72549  22905634.4724   22905639.9644
  25070122.368    -7744266.182 9  -5769449.926 9  25070126.349    25070132.952
  21293409.702   -26994018.26749 -20748371.51649  21293411.3434   21293416.5404
  24477838.786    -6889002.81149  -5344105.85449  24477840.4534   24477846.9094
 96  7 10  2  1  0.0010000  0  9 25  3  1  9 23 31 28 21 15
  24946912.056    -5109864.62649  -3729120.67149  24946912.6984   24946919.9594
  23390375.232   -14865884.72149 -11571388.28949  23390377.3464   23390384.2484
  20770502.339   -26372278.74749 -20509125.70549  20770504.6994   20770509.9894
  24906622.136    -5378435.95749  -4175754.78849  24906623.4844   24906629.4964
  23800771.066   -12896684.70949 -10036939.26549  23800768.5034   23800774.3264
  22912162.896   -13716987.57049 -10675024.04849  22912164.4784   22912170.7094
  25090512.139    -7637127.246 9  -5685965.188 9  25090514.179    25090521.947
  21297871.514   -26970571.32249 -20730101.17049  21297873.2664   21297878.3784
  24457613.769    -6995284.04659  -5426922.37949  24457616.8634   24457623.2404
 96  7 10  2  1 30.0010000  0  9 25  3  1  9 23 31 28 21 15
  24927565.455    -5211523.22149  -3808335.05349  24927568.2594   24927575.4064
  23406648.004   -14780372.50149 -11504755.45949  23406649.4554   23406656.6844
  20769589.959   -26377074.08049 -20512862.32449  20769592.1304   20769597.3924
  24918044.236    -5318427.13749  -4128994.64649  24918041.0094   24918048.7734
  23813701.575   -12828704.97049  -9983968.07149  23813703.9854   23813710.5634
  22918796.871   -13682126.07549 -10647859.27549  22918798.7474   22918803.9464
  25110893.850    -7530023.101 9  -5602507.550 9  25110894.187    25110903.375
  21302382.983   -26946865.22849 -20711628.89149  21302384.1954   21302389.5664
  24437409.412    -7101464.76349  -5509660.55649  24437411.5534   24437416.4354
 96  7 10  2  2  0.0010000  0  9 25  3  1  9 23 31 28 21 15
  24908216.843    -5313191.87849  -3887557.27949  24908220.8064   24908228.8574
  23422967.667   -14694601.81749 -11437921.21549  23422971.1644   23422977.8934
  20768773.000   -26381371.59049 -20516211.02149  20768774.2984   20768779.4814
  24929543.910    -5257970.51849  -4081885.62149  24929546.4954   24929552.6284
  23826650.985   -12760639.45149  -9930930.03549  23826656.2074   23826661.7374
  22925531.761   -13646739.52149 -10620285.35349  22925532.7784   22925538.1834
  25131266.425    -7422966.240 9  -5519086.776 9  25131267.329    25131273.852
  21306943.157   -26922897.17749 -20692952.48549  21306945.0994   21306950.3054
  24417221.077    -7207552.71449  -5592326.47449  24417222.5234   24417230.8004
 96  7 10  2  2 30.0010000  0  8 25  3  1  9 23 31 21 15
  24888874.519    -5414846.80249  -3966768.81949  24888875.8154   24888883.6954
  23439346.278   -14608540.37549 -11370860.41149  23439348.8544   23439355.3404
  20768049.364   -26385173.82349 -20519173.78849  20768051.0984   20768056.1854
  24941137.105    -5197069.33649  -4034430.14749  24941136.3164   24941138.8534
  23839624.100   -12692482.27349  -9877820.57949  23839626.4034   23839632.2894
  22932363.233   -13610836.01749 -10592308.62549  22932365.1094   22932370.8064
  21311555.685   -26898658.30649 -20674065.05549  21311557.8074   21311562.9424
  24397053.897    -7313530.89049  -5674906.82849  24397055.5524   24397063.0444
 96  7 10  2  3  0.0010000  0  8 25  3  1  9 23 31 21 15
  24869534.277    -5516481.19349  -4045964.37049  24869535.7584   24869543.2364
  23455778.411   -14522187.41949 -11303572.45049  23455780.8754   23455787.7894
  20767419.607   -26388484.46849 -20521753.50749  20767421.0664   20767426.1074
  24952807.614    -5135723.64549  -3986628.31749  24952809.2844   24952817.4034
  23852611.674   -12624233.77549  -9824639.95849  23852613.3554   23852619.7744
  22939291.728   -13574423.29349 -10563935.10649  22939293.6624   22939299.6704
  21316220.083   -26874146.99449 -20654965.33949  21316222.3014   21316227.3924
  24376908.336    -7419392.59249  -5757396.44649  24376911.0214   24376916.8304
 96  7 10  2  3 30.0010000  0  8 25  3  1  9 23 31 21 15
  24850195.108    -5618112.02949  -4125157.12049  24850195.8004   24850202.9154
  23472265.003   -14435545.89449 -11236059.63049  23472268.7034   23472275.6374
  20766879.602   -26391318.91549 -20523962.15349  20766881.5094   20766886.6714
  24964568.077    -5073928.21749  -3938476.04649  24964569.1374   24964574.2204
  23865614.794   -12555903.82549  -9771395.87149  23865616.8224   23865622.0774
  22946315.724   -13537515.17049 -10535175.56049  22946317.3134   22946322.8404
  21320932.755   -26849379.55749 -20635666.04449  21320935.3954   21320940.6354
  24356784.028    -7525146.62249  -5839802.13449  24356787.9424   24356793.7764
 96  7 10  2  4  0.0010000  0  8 25  3  1  9 23 31 21 15
  24830851.876    -5719748.36349  -4204354.15049  24830853.9114   24830862.2214
  23488806.486   -14348626.52249 -11168330.31949  23488808.4824   23488815.6454
  20766432.372   -26393668.97349 -20525793.35349  20766434.2994   20766439.2664
  24976412.137    -5011681.06249  -3889971.76549  24976414.5084   24976418.8414
  23878635.291   -12487489.41149  -9718085.96449  23878635.1854   23878640.9384
  22953431.277   -13500122.44149 -10506038.38749  22953432.8334   22953438.8714
  21325690.726   -26824381.10549 -20616186.73349  21325692.3674   21325697.5654
  24336680.436    -7630798.08949  -5922127.91449  24336682.3374   24336688.0694
 96  7 10  2  4 30.0010000  0  8 25  3  1  9 23 31 21 15
  24811513.316    -5821380.24449  -4283547.73149  24811515.0914   24811523.7824
  23505397.559   -14261440.59149 -11100393.30249  23505399.6694   23505406.4124
  20766080.941   -26395513.23449 -20527230.43549  20766083.1654   20766088.2404
  24988346.061    -4948965.22149  -3841102.29649  24988348.2214   24988352.8874
  23891670.898   -12418956.89649  -9664684.03349  23891676.2964   23891683.2034
  22960642.283   -13462228.06649 -10476510.32949  22960644.3114   22960649.9784
  21330491.664   -26799152.13549 -20596527.80349  21330493.1434   21330498.5284
  24316595.499    -7736334.51549  -6004364.05649  24316598.7034   24316606.1244
 96  7 10  2  5  0.0010000  0  8 25  3  1  9 23 31 21 15
  24792174.488    -5923008.65049  -4362738.59149  24792176.2164   24792183.1164
  23522038.110   -14173988.81449 -11032249.12649  23522041.5414   23522047.9834
  20765828.158   -26396842.08249 -20528265.89649  20765830.2024   20765835.5064
  25000374.261    -4885759.41949  -3791851.00249  25000376.6244   25000381.4454
  23904737.988   -12350298.03449  -9611183.67049  23904741.3914   23904748.2414
  22967952.430   -13423810.93849 -10446574.94349  22967954.6914   22967960.7544
  21335337.963   -26773680.67449 -20576679.91849  21335340.1034   21335345.8134
  24296537.653    -7841750.16349  -6086506.09049  24296538.6064   24296545.2184
 96  7 10  2  5 30.0010000  0  8 25  3  1  9 23 31 21 15
  24772836.661    -6024624.69949  -4441919.82249  24772838.7834   24772846.4354
  23538729.809   -14086276.72249 -10963902.10149  23538731.8404   23538739.0824
  20765673.297   -26397656.21149 -20528900.27349  20765675.1984   20765680.6794
  25012493.782    -4822068.07149  -3742221.43849  25012496.1574   25012502.8104
  23917830.122   -12281498.29049  -9557573.51949  23917833.6484   23917840.3264
  22975363.511   -13384869.36049 -10416230.88049  22975365.1254   22975370.6964
  21340232.359   -26747961.61749 -20556639.09749  21340234.2734   21340239.4214
  24276501.380    -7947041.74349  -6168551.44149  24276502.2394   24276509.0964
 96  7 10  2  6  0.0010000  0  8 25  3  1  9 23 31 21 15
  24753504.245    -6126209.54549  -4521076.72749  24753507.5834   24753515.8184
  23555468.124   -13998317.00549 -10895362.11449  23555470.0004   23555477.8574
  20765613.796   -26397967.35449 -20529142.71849  20765615.7534   20765621.2594
  25024702.629    -4757916.66249  -3692233.29649  25024702.8404   25024708.6394
  23930945.694   -12212575.21249  -9503867.24849  23930950.5704   23930956.0304
  22982870.661   -13345414.48149 -10385486.84749  22982873.1364   22982879.0394
  21345176.366   -26721982.51949 -20536395.65049  21345178.0844   21345183.4204
  24256487.438    -8052217.10949  -6250506.25149  24256487.8624   24256494.5814
 96  7 10  2  6 30.0010000  0  8 25  3  1  9 23 31 21 15
  24734183.864    -6227757.73549  -4600205.07749  24734183.5294   24734190.5774
  23572255.056   -13910104.03249 -10826624.79349  23572256.8114   23572264.0474
  20765645.585   -26397798.48049 -20529011.12049  20765647.9904   20765653.3164
  25036996.967    -4693301.61149  -3641883.92149  25037000.1844   25037006.3614
  23944087.530   -12143540.79449  -9450074.21649  23944086.7194   23944092.8544
  22990477.348   -13305442.84849 -10354340.14649  22990479.2134   22990484.8884
  21350173.260   -26695721.04149 -20515932.15949  21350175.4864   21350180.7524
  24236494.060    -8157273.83649  -6332368.57549  24236496.1654   24236502.6534
 96  7 10  2  7  0.0010000  0  8 25  3  1  9 23 31 21 15
  24714865.306    -6329264.39849  -4679301.06049  24714867.7194   24714874.8974
  23589088.275   -13821637.45449 -10757689.86949  23589091.1874   23589098.8684
  20765767.821   -26397159.75349 -20528513.39649  20765769.6164   20765775.0824
  25049382.264    -4628216.11249  -3591167.94749  25049385.0584   25049391.3144
  23957241.573   -12074403.95049  -9396201.36649  23957244.2194   23957249.2294
  22998180.679   -13264964.51449 -10322798.61549  22998181.5974   22998188.0634
  21355226.385   -26669168.23849 -20495241.66249  21355228.3594   21355233.3844
  24216526.515    -8262204.92849  -6414133.03349  24216528.6924   24216536.3454
 96  7 10  2  7 30.0010000  0  8 25  3  1  9 23 31 21 15
  24695559.017    -6430718.13249  -4758355.80049  24695561.3424   24695568.5474
  23605970.432   -13732927.04149 -10688564.93949  23605972.3724   23605979.1734
  20765981.368   -26396041.21749 -20527641.79749  20765982.2154   20765987.8614
  25061855.552    -4562670.33849  -3540093.35649  25061856.1434   25061861.7024
  23970421.495   -12005156.07049  -9342242.00649  23970420.4404   23970425.6864
  23005978.263   -13223983.69749 -10290865.53449  23005980.5374   23005985.5314
  21360333.360   -26642333.20149 -20474331.24549  21360334.8814   21360339.9594
  24196584.208    -8367005.53049  -6495795.80049  24196585.6904   24196593.0854
 96  7 10  2  8  0.0010000  0  8 25  3  1  9 23 31 21 15
  24676262.617    -6532127.84549  -4837376.25249  24676263.8394   24676271.2424
  23622896.757   -13643979.11349 -10619254.93049  23622898.8324   23622905.5624
  20766285.169   -26394439.06449 -20526393.35449  20766287.2964   20766293.1084
  25074415.323    -4496663.54849  -3488659.46049  25074417.2114   25074425.3734
  23983612.801   -11935813.60749  -9288208.93049  23983615.4234   23983621.5354
  23013873.467   -13182495.80549 -10258537.33749  23013875.2904   23013880.7114
  21365490.565   -26615231.29649 -20453212.87849  21365491.9314   21365497.1874
  24176665.805    -8471675.32049  -6577356.63749  24176667.8604   24176674.5004
 96  7 10  2  8 30.0010000  0  8 25  3  1  9 23 31 21 15
  24656965.948    -6633522.71849  -4916385.12949  24656968.8484   24656976.3814
  23639862.079   -13554824.68749 -10549784.01049  23639864.8964   23639871.7694
  20766682.935   -26392342.98449 -20524760.02749  20766686.1734   20766691.6164
  25087058.999    -4430213.05349  -3436879.87749  25087063.5624   25087069.6674
  23996829.659   -11866377.61349  -9234102.99649  23996829.4424   23996835.4744
  23021863.229   -13140516.40149 -10225826.13249  23021864.3734   23021868.9654
  21370693.248   -26587890.40149 -20431908.28449  21370695.2074   21370700.3164
  24156771.747    -8576219.45149  -6658819.55249  24156773.3974   24156779.8844
 96  7 10  2  9  0.0010000  0  8 25  3  1  9 23 31 21 15
  24637676.759    -6734895.74049  -4995376.98549  24637678.0274   24637685.4224
  23656865.918   -13465468.42749 -10480155.82349  23656868.9114   23656875.6074
  20767183.165   -26389723.87249 -20522719.15949  20767184.9504   20767190.0674
  25099785.445    -4363337.18549  -3384768.82049  25099790.0714   25099793.9634
  24010058.130   -11796838.45149  -9179916.67949  24010061.8864   24010067.9974
  23029944.225   -13098043.88849 -10192730.70149  23029946.4044   23029951.8604
  21375939.182   -26560321.61149 -20410426.11349  21375941.4144   21375946.1384
  24136903.769    -8680628.77049  -6740177.41249  24136905.5934   24136912.3814
 96  7 10  2  9 30.0010000  0  8 25  3  1  9 23 31 21 15
  24618389.721    -6836251.46549  -5074355.36349  24618391.2194   24618397.4634
  23673909.945   -13375906.01549 -10410366.98949  23673911.6424   23673919.2184
  20767783.763   -26386566.96749 -20520259.22549  20767785.3974   20767790.6364
  25112590.987    -4296047.37249  -3332335.19249  25112593.4814   25112601.0554
  24023311.631   -11727201.26449  -9125653.96949  24023313.1864   24023319.8314
  23038122.285   -13055069.29449 -10159244.03249  23038123.8064   23038129.3344
  21381229.616   -26532521.47549 -20388763.66849  21381231.4084   21381236.4754
  24117059.903    -8784901.68349  -6821428.99549  24117062.2644   24117069.1454
 96  7 10  2 10  0.0010000  0  8 25  3  1  9 23 31 21 15
  24599103.961    -6937584.85049  -5153316.32549  24599107.7154   24599115.2134
  23690993.833   -13286128.41449 -10340410.49649  23690995.4984   23691003.4224
  20768485.553   -26382877.07649 -20517383.98049  20768487.4504   20768492.7514
  25125475.900    -4228333.78849  -3279571.37249  25125478.7424   25125485.9614
  24036582.491   -11657466.22549  -9071315.00549  24036583.1944   24036589.7104
  23046395.601   -13011594.46949 -10125367.57949  23046396.9294   23046402.8134
  21386567.039   -26504471.33249 -20366906.41849  21386569.2534   21386574.1814
  24097244.597    -8889032.04849  -6902569.49249  24097247.4194   24097253.5554
 96  7 10  2 10 30.0010000  0  8 25  3  1  9 23 31 21 15
  24579829.445    -7038879.43549  -5232247.06049  24579831.6324   24579838.3424
  23708122.588   -13196117.04849 -10270271.83849  23708124.3664   23708132.1694
  20769288.308   -26378660.55449 -20514098.36849  20769290.0564   20769295.4214
  25138445.399    -4160195.58549  -3226476.65049  25138445.3364   25138452.8404
  24049875.753   -11587615.02049  -9016885.50849  24049875.9204   24049883.1934
  23054763.323   -12967621.00049 -10091102.57049  23054764.7654   23054770.8894
  21391956.205   -26476151.57149 -20344839.07049  21391958.1824   21391963.2684
  24077458.903    -8993010.45049  -6983591.57749  24077461.0664   24077467.1704
 96  7 10  2 11  0.0010000  0  8 25  3  1  9 23 31 21 15
  24560563.800    -7140130.79749  -5311144.11149  24560565.3354   24560571.3704
  23725296.287   -13105866.89149 -10199947.12049  23725298.9154   23725305.7424
  20770183.260   -26373962.63449 -20510437.63849  20770183.9544   20770189.2304
  25151494.412    -4091626.89249  -3173046.54149  25151493.7934   25151500.9364
  24063184.544   -11517655.51749  -8962371.63549  24063189.0524   24063195.4714
  23063225.782   -12923149.22949 -10056449.27449  23063227.5914   23063233.4404
  21397396.569   -26447560.93549 -20322560.65549  21397398.4754   21397403.9994
  24057699.517    -9096847.83549  -7064503.78149  24057701.5824   24057707.7074
 96  7 10  2 11 30.0010000  0  8 25  3  1  9 23 31 21 15
  24541306.678    -7241322.33349  -5389994.56349  24541308.2174   24541316.0274
  23742514.910   -13015387.01549 -10129443.38649  23742515.9144   23742522.8934
  20771163.702   -26368799.94249 -20506414.75249  20771166.5454   20771171.7054
  25164626.922    -4022598.60949  -3119258.28049  25164629.5914   25164634.5894
  24076518.838   -11447576.51149  -8907764.63349  24076524.8494   24076531.0734
  23071785.607   -12878169.15849 -10021399.91049  23071786.5584   23071792.8544
  21402890.953   -26418686.78349 -20300061.32649  21402893.2114   21402898.5574
  24037967.606    -9200537.37849  -7145300.76549  24037969.9234   24037976.0184
 96  7 10  2 12  0.0010000  0  8 25  3  1  9 23 31 21 15
  24522064.854    -7342436.52249  -5468784.72849  24522067.2734   24522073.3264
  23759773.382   -12924685.98949 -10058767.33249  23759776.2764   23759782.8864
  20772232.728   -26363187.21949 -20502041.18949  20772234.5614   20772239.9014
  25177849.921    -3953112.50149  -3065113.25849  25177852.7384   25177859.0844
  24089888.821   -11377361.19749  -8853051.41849  24089885.3994   24089892.3714
  23080440.978   -12832682.00349  -9985955.41149  23080442.8624   23080448.2374
  21408438.976   -26389536.20849 -20277346.59549  21408440.4784   21408445.6384
  24018265.375    -9304074.76249  -7225979.19749  24018267.3824   24018274.2174
 96  7 10  2 12 30.0010000  0  8 25  3  1  9 23 31 21 15
  24502837.223    -7443480.37649  -5547520.09049  24502838.7934   24502845.4984
  23777072.771   -12833779.88549  -9987931.48849  23777075.6414   23777082.9274
  20773386.989   -26357121.85249 -20497314.92249  20773388.5284   20773393.9824
  25191156.864    -3883177.49649  -3010618.47049  25191160.9314   25191167.8154
  24103267.714   -11307024.79549  -8798243.85449  24103270.7154   24103277.2254
  23089192.728   -12786689.89149  -9950117.44349  23089194.9384   23089200.8434
  21414036.873   -26360117.92549 -20254423.26249  21414038.4144   21414043.8324
  23998592.894    -9407459.72449  -7306538.85949  23998593.2224   23998601.0894
 96  7 10  2 13  0.0010000  0  8 25  3  1  9 23 31 21 15
  24483622.420    -7544459.11149  -5626204.71149  24483623.3344   24483630.1824
  23794408.278   -12742685.86049  -9916949.19649  23794409.6194   23794416.4834
  20774630.789   -26350585.88249 -20492221.95549  20774632.4954   20774637.7134
  25204545.813    -3812801.54249  -2955780.07549  25204551.8924   25204560.8514
  24116679.600   -11236571.33249  -8743345.08449  24116677.1504   24116683.8574
  23098039.872   -12740201.55249  -9913892.78649  23098040.7164   23098047.1844
  21419686.181   -26330427.25349 -20231287.67949  21419688.4554   21419693.8414
  23978947.843    -9510688.48349  -7386976.80549  23978949.8124   23978956.2804
 96  7 10  2 13 30.0010000  0  8 25  3  1  9 23 31 21 15
  24464416.020    -7645374.50149  -5704839.98149  24464419.4154   24464425.7534
  23811777.171   -12651409.90449  -9845825.15149  23811778.8984   23811785.6774
  20775969.465   -26343550.40749 -20486739.75849  20775970.8794   20775976.3814
  25218023.006    -3742007.80849  -2900616.13149  25218024.5384   25218029.5544
  24130106.445   -11166006.99849  -8688359.90949  24130105.8354   24130112.4384
  23106976.337   -12693238.32749  -9877298.09649  23106978.3034   23106984.4414
  21425389.217   -26300463.38549 -20207939.21549  21425390.3664   21425395.6314
  23959334.251    -9613756.06849  -7467289.15149  23959336.9454   23959342.4194
 96  7 10  2 14  0.0010000  0  8 25  3  1  9 23 31 21 15
  24445227.195    -7746228.20949  -5783427.18649  24445227.5264   24445235.2544
  23829183.455   -12559933.25649  -9774544.72649  23829186.3064   23829193.4614
  20777405.037   -26336008.19049 -20480862.70549  20777406.6244   20777411.7174
  25231570.114    -3670808.74449  -2845136.33349  25231572.2534   25231579.5254
  24143548.542   -11095344.84249  -8633298.50949  24143552.7954   24143558.6094
  23115999.678   -12645818.36049  -9840347.51649  23116002.2204   23116008.0004
  21431142.510   -26270225.41449 -20184377.16649  21431144.5404   21431149.9194
  23939751.805    -9716661.07049  -7547474.81049  23939754.4994   23939760.7414
 96  7 10  2 14 30.0010000  0  7 25  3  1 23 31 21 15
  24426044.492    -7847024.31249  -5861969.51349  24426046.1454   24426053.9054
  23846631.148   -12468247.87149  -9703101.63849  23846634.2004   23846641.5424
  20778936.776   -26327956.98249 -20474589.03349  20778938.7964   20778943.9064
  24157016.627   -11024596.37849  -8578169.86049  24157015.3294   24157021.8614
  23125110.001   -12597939.73149  -9803039.53849  23125112.3324   23125118.9704
  21436950.969   -26239703.98449 -20160594.24149  21436952.7344   21436957.9504
  23920202.220    -9819397.81049  -7627529.38549  23920203.4294   23920209.1674
 96  7 10  2 15  0.0010000  0  7 25  3  1 23 31 21 15
  24406874.674    -7947759.73349  -5940464.54149  24406877.4224   24406884.5604
  23864117.625   -12376350.68449  -9631493.53249  23864120.9374   23864128.0094
  20780561.728   -26319417.50649 -20467934.89249  20780563.3854   20780568.7934
  24170495.133   -10953752.10149  -8522966.54249  24170495.9124   24170502.0494
  23134308.916   -12549605.72249  -9765376.71549  23134310.4494   23134316.2484
  21442811.347   -26208907.21849 -20136596.77349  21442813.1624   21442818.1504
  23900682.930    -9921970.08849  -7707455.78449  23900685.5484   23900691.2664
 96  7 10  2 15 30.0010000  0  7 25  3  1 23 31 21 15
  24387717.382    -8048425.16149  -6018905.04749  24387720.2454   24387728.3914
  23881646.521   -12284246.02649  -9559723.75549  23881648.3644   23881654.8294
  20782277.033   -26310405.97349 -20460912.91649  20782278.4134   20782283.5024
  24183994.201   -10882802.04349  -8467680.80149  24183997.5664   24184004.4404
  23143597.188   -12500797.61149  -9727344.46649  23143598.4584   23143604.7154
  21448720.367   -26177850.46749 -20112396.71249  21448722.8864   21448728.1554
  23881196.765   -10024372.96149  -7787250.20149  23881198.1644   23881204.5394
 96  7 10  2 16  0.0010000  0  7 25  3  1 23 31 21 15
  24368576.358    -8149023.26449  -6097293.08849  24368577.9144   24368583.9584
  23899211.346   -12191951.31149  -9487805.88549  23899212.2524   23899218.8544
  20784079.077   -26300930.98349 -20453529.79949  20784081.4424   20784086.5554
  24197518.873   -10811737.16049  -8412305.57049  24197520.4284   24197526.7184
  23152979.542   -12451491.35149  -9688924.04749  23152980.8664   23152987.4404
  21454679.911   -26146536.55549 -20087996.26949  21454681.7434   21454686.8454
  23861743.108   -10126603.42049  -7866910.25249  23861744.9014   23861750.5794
 96  7 10  2 16 30.0010000  0  7 25  3  1 23 31 21 15
  24349442.058    -8249565.16349  -6175637.32949  24349445.3224   24349451.9424
  23916802.943   -12099494.56249  -9415761.75849  23916805.3384   23916813.2434
  20785970.411   -26290996.45849 -20445788.60949  20785971.8634   20785977.3084
  24211064.274   -10740551.50249  -8356836.22449  24211067.1884   24211073.1814
  23162457.535   -12401685.20649  -9650114.11249  23162458.6304   23162465.2024
  21460686.801   -26114970.01649 -20063398.97549  21460688.6824   21460694.1144
  23842321.471   -10228666.15849  -7946439.63249  23842322.7314   23842329.8584
 96  7 10  2 17  0.0010000  0  7 25  3  1 23 31 21 15
  24330324.093    -8350039.04649  -6253928.57849  24330325.2844   24330333.0714
  23934426.588   -12006886.35149  -9343599.60849  23934428.8034   23934436.2224
  20787950.534   -26280589.41949 -20437679.22049  20787952.2934   20787957.5424
  24224636.746   -10669231.27149  -8301262.02749  24224639.3434   24224644.1454
  23172029.779   -12351383.35749  -9610917.90549  23172031.5204   23172036.5704
  21466742.620   -26083148.80349 -20038603.23249  21466744.1694   21466749.4324
  23822932.413   -10330553.85449  -8025832.61549  23822934.7224   23822941.7054
 96  7 10  2 17 30.0010000  0  7 25  3  1 23 31 21 15
  24311218.176    -8450443.21649  -6332165.50149  24311219.4074   24311225.7494
  23952077.147   -11914127.44349  -9271320.01149  23952079.9634   23952087.3054
  20790023.759   -26269692.61849 -20429188.19949  20790025.5244   20790031.1014
  24238231.602   -10597785.31549  -8245589.87249  24238235.3224   24238241.0564
  23181696.154   -12300585.94549  -9571335.55049  23181697.6574   23181703.8874
  21472847.190   -26051071.29149 -20013607.77449  21472848.3864   21472853.6324
  23803578.335   -10432261.11949  -8105085.00949  23803580.1044   23803585.6664
 96  7 10  2 18  0.0010000  0  7 25  3  1 23 31 21 15
  24292123.241    -8550779.79549  -6410349.75349  24292125.9374   24292132.4994
  23969760.459   -11821210.01849  -9198916.89949  23969761.2414   23969768.5604
  20792189.483   -26258313.64849 -20420321.46249  20792191.2484   20792196.4044
  24251849.506   -10526240.25349  -8189840.49049  24251849.1024   24251855.0654
  23191451.250   -12249320.00149  -9531388.10349  23191453.6404   23191459.3954
  21478999.879   -26018736.70149 -19988412.00349  21479001.2504   21479006.4984
  23784256.280   -10533800.11249  -8184206.27049  23784257.9394   23784263.5944
 96  7 10  2 18 30.0010000  0  7 25  3  1 23 31 21 15
  24273046.785    -8651026.21149  -6488463.76149  24273048.7784   24273055.8564
  23987481.189   -11728092.90249  -9126358.18049  23987480.9734   23987488.8684
  20794448.324   -26246443.53849 -20411072.02649  20794450.1294   20794455.3844
  24265480.451   -10454585.64849  -8134005.75949  24265484.2074   24265490.2334
  23201293.717   -12197598.90949  -9491085.99649  23201295.3974   23201302.0474
  21485201.718   -25986147.11649 -19963017.53249  21485203.2374   21485208.2654
  23764968.670   -10635154.03149  -8263183.31949  23764971.1094   23764978.0974
 96  7 10  2 19  0.0010000  0  7 25  3  1 23 31 21 15
  24253989.930    -8751170.94649  -6566498.52849  24253993.2904   24253999.1044
  24005239.386   -11634766.08449  -9053636.07349  24005240.7904   24005247.7614
  20796800.023   -26234088.04449 -20401444.36149  20796801.1474   20796806.3224
  24279139.061   -10382829.56749  -8078091.95149  24279139.5774   24279145.5804
  23211218.754   -12145442.26249  -9450444.48849  23211220.4274   23211226.4164
  21491449.671   -25953315.16549 -19937434.20049  21491450.8384   21491455.9594
  23745716.285   -10736325.10549  -8342017.90549  23745718.5524   23745725.0694
 96  7 10  2 19 30.0010000  0  7 25  3  1 23 31 21 15
  24234950.832    -8851216.88749  -6644456.30549  24234953.2164   24234961.3024
  24023037.282   -11541234.68649  -8980754.55549  24023039.5564   24023047.1944
  20799240.094   -26221258.82549 -20391447.56149  20799242.7154   20799247.6544
  24292809.175   -10310979.41349  -8022104.85349  24292811.9404   24292818.2424
  23221223.175   -12092867.17449  -9409476.93649  23221225.3994   23221231.1654
  21497742.922   -25920240.06549 -19911661.40149  21497744.7034   21497749.8714
  23726498.296   -10837319.76849  -8420715.01549  23726499.4704   23726505.3724
 96  7 10  2 20  0.0010000  0  7 25  3  1 23 31 21 15
  24215935.267    -8951151.55249  -6722327.37349  24215937.8494   24215944.1274
  24040872.184   -11447511.70349  -8907723.75049  24040874.6484   24040881.4504
  20801771.382   -26207960.79149 -20381085.45049  20801773.0164   20801778.1594
  24306504.641   -10239026.39849  -7966037.60149  24306504.2154   24306510.4394
  23231304.464   -12039892.78849  -9368198.23349  23231305.5774   23231312.2344
  21504084.233   -25886916.83449 -19885695.26049  21504085.9014   21504091.2414
  23707313.427   -10938134.18649  -8499271.67449  23707315.7734   23707321.5864
 96  7 10  2 20 30.0010000  0  7 25  3  1 23 31 21 15
  24196938.550    -9050970.63549  -6800108.37849  24196942.1594   24196948.5004
  24058740.032   -11353613.81849  -8834556.66149  24058742.1064   24058749.6364
  20804393.323   -26194182.41349 -20370349.04649  20804395.0734   20804400.2094
  24320216.645   -10166956.17549  -7909879.00549  24320220.1734   24320224.9964
  23241462.707   -11986512.34549  -9326603.12149  23241463.9974   23241469.5144
  21510473.863   -25853342.00149 -19859533.06249  21510475.1084   21510480.3444
  23688166.384   -11038756.29849  -8577678.49149  23688167.0324   23688173.9664
 96  7 10  2 21  0.0010000  0  7 25  3  1 23 31 21 15
  24177967.879    -9150669.37949  -6877795.63349  24177970.6274   24177976.2714
  24076635.603   -11259573.12449  -8761278.28849  24076638.8454   24076645.6804
  20807105.461   -26179928.25849 -20359241.90549  20807107.4064   20807112.8934
  24333950.994   -10094780.30749  -7853638.10049  24333954.0214   24333959.2724
  23251700.860   -11932711.56649  -9284680.47249  23251702.1714   23251708.4554
  21516915.570   -25819488.88949 -19833154.01749  21516917.1414   21516922.6184
  23669054.980   -11139183.28049  -8655933.25149  23669056.7914   23669063.7034
 96  7 10  2 21 30.0010000  0  7 25  3  1 23 31 21 15
  24159018.184    -9250254.91049  -6955394.67249  24159019.3524   24159027.1324
  24094556.978   -11165398.61449  -8687895.65049  24094558.7384   24094565.8244
  20809906.850   -26165204.00449 -20347768.45749  20809909.2624   20809914.6904
  24347704.890   -10022506.02649  -7797320.50949  24347706.8124   24347711.3294
  23262021.977   -11878472.88849  -9242416.61249  23262023.4094   23262029.4644
  21523412.062   -25785347.58949 -19806550.41849  21523413.6654   21523419.0574
  23649984.883   -11239405.04549  -8734028.11049  23649985.1414   23649991.5034
 96  7 10  2 22  0.0010000  0  7 25  3  1 23 31 21 15
  24140086.944    -9349736.60949  -7032912.79949  24140089.0314   24140095.7704
  24112502.750   -11071090.37549  -8614408.81049  24112505.6724   24112513.2854
  20812798.481   -26150013.15549 -20335931.42749  20812799.9584   20812805.4234
  24361476.453    -9950136.55949  -7740928.75849  24361478.2894   24361483.8954
  23272429.858   -11823777.71449  -9199797.04249  23272431.0944   23272437.8684
  21529963.837   -25750921.47749 -19779724.88849  21529965.0514   21529970.3894
  23630951.826   -11339414.68849  -8811957.67749  23630953.2954   23630961.4104
 96  7 10  2 22 30.0010000  0  7 25  3  1 23 31 21 15
  24121173.933    -9449125.16449  -7110358.35449  24121175.8514   24121183.1474
  24130472.730   -10976655.96749  -8540823.64349  24130474.8954   24130483.1954
  20815774.990   -26134373.08649 -20323744.35449  20815776.3324   20815781.2244
  24375267.001    -9877672.39249  -7684463.19649  24375268.1404   24375273.7294
  23282926.373   -11768618.94749  -9156816.23649  23282928.2454   23282934.5674
  21536570.478   -25716201.82849 -19752670.62349  21536572.0084   21536577.1064
  23611960.735   -11439213.73849  -8889723.14149  23611962.8084   23611970.0234
 96  7 10  2 23  0.0010000  0  7 25  3  1 23 31 21 15
  24102274.432    -9548433.68349  -7187741.54949  24102278.0434   24102284.3624
  24148464.197   -10882108.01649  -8467150.00549  24148467.8764   24148474.5654
  20818833.017   -26118297.03649 -20311217.55849  20818835.3034   20818840.2544
  24389072.116    -9805121.68649  -7627930.22649  24389074.0864   24389079.4054
  23293507.968   -11713011.68349  -9113485.93449  23293509.7994   23293515.8504
  21543232.082   -25681193.15249 -19725391.14449  21543233.8914   21543239.0394
  23593008.298   -11538809.47449  -8967330.17949  23593010.5104   23593015.5534
 96  7 10  2 23 30.0010000  0  7 25  3  1 23 31 21 15
  24083396.026    -9647659.38949  -7265060.21849  24083395.4484   24083402.0474
  24166481.546   -10787436.71049  -8393380.25549  24166482.7204   24166490.3624
  20821978.685   -26101771.21249 -20298340.28849  20821980.3634   20821985.4494
  24402903.142    -9732453.71749  -7571305.87649  24402901.9394   24402909.0164
  23304172.578   -11656970.05049  -9069817.17049  23304173.9224   23304180.3784
  21549947.152   -25645905.54249 -19697894.31749  21549948.9274   21549954.0304
  23574095.316   -11638198.15949  -9044775.89449  23574097.7294   23574102.8314
 96  7 10  2 24  0.0010000  0  7 25  3  1 23 31 21 15
  24064531.251    -9746772.40649  -7342291.06749  24064535.0114   24064541.9244
  24184518.800   -10692642.75749  -8319514.90049  24184521.1014   24184528.7584
  20825212.892   -26084774.18249 -20285095.84649  20825214.6444   20825219.8124
  24416754.796    -9659632.64349  -7514562.24349  24416758.7314   24416765.1334
  23314919.976   -11600495.25949  -9025810.87849  23314920.8434   23314927.3064
  21556716.105   -25610334.61349 -19670176.71749  21556717.8784   21556723.0514
  23555223.278   -11737371.75549  -9122053.99549  23555225.1734   23555230.6034
 96  7 10  2 24 30.0010000  0  7 25  3  1 23 31 21 15
  24045697.189    -9845765.07749  -7419428.14049  24045697.0494   24045704.5114
  24202578.937   -10597738.79649  -8245563.84949  24202582.0724   24202588.5834
  20828534.221   -26067319.33549 -20271494.66149  20828536.2804   20828541.3934
  24430638.055    -9586670.20549  -7457708.43949  24430644.2604   24430650.6694
  23325744.196   -11543611.42149  -8981485.85249  23325745.2244   23325751.5264
  21563531.640   -25574519.18449 -19642268.60249  21563533.1474   21563538.5334
  23536388.122   -11836345.81049  -9199176.60349  23536390.4394   23536397.6984
 96  7 10  2 25  0.0010000  0  7 25  3  1 23 31 21 15
  24026883.485    -9944620.06549  -7496457.93049  24026885.9534   24026892.8984
  24220664.119   -10502704.61649  -8171511.34149  24220665.6784   24220673.3804
  20831947.408   -26049384.92549 -20257519.79349  20831948.9474   20831953.9194
  24444557.302    -9513563.61349  -7400742.31549  24444555.1644   24444562.6954
  23336649.110   -11486303.50049  -8936830.36149  23336650.8104   23336656.4694
  21570390.744   -25538471.80449 -19614179.74149  21570393.1714   21570398.1464
  23517595.337   -11935106.26949  -9276132.80549  23517597.3164   23517603.5684
 96  7 10  2 25 30.0010000  0  7 25  3  1 23 31 21 15
  24008102.281   -10043309.18149  -7573358.45749  24008106.5454   24008112.6404
  24238776.907   -10407512.24349  -8097335.55549  24238780.2884   24238788.5484
  20835453.671   -26030959.31149 -20243162.16849  20835455.5104   20835460.6284
  24458493.678    -9440301.17749  -7343654.73249  24458496.5834   24458502.4774
  23347641.178   -11428542.49349  -8891821.82249  23347642.7024   23347648.7794
  21577298.344   -25502172.97049 -19585894.94449  21577300.5964   21577305.5384
  23498846.932   -12033632.11049  -9352906.17449  23498848.6824   23498855.5124
 96  7 10  2 26  0.0010000  0  7 25  3  1 23 31 21 15
  23989350.917   -10141855.45849  -7650147.68949  23989353.0574   23989359.5484
  24256919.716   -10312177.66749  -8023048.96149  24256921.4034   24256928.9584
  20839045.885   -26012083.50249 -20228453.74049  20839047.2294   20839052.3164
  24472458.485    -9366936.51849  -7286487.48949  24472457.4074   24472463.8154
  23358716.480   -11370341.51049  -8846470.44349  23358717.7174   23358724.5944
  21584250.007   -25465642.77849 -19557429.87049  21584251.7954   21584256.9454
  23480138.435   -12131941.56649  -9429510.92749  23480141.0684   23480147.2114
 96  7 10  2 26 30.0010000  0  7 25  3  1 23 31 21 15
  23970625.654   -10240260.57449  -7726826.92349  23970627.2574   23970634.0704
  24275092.354   -10216684.07049  -7948638.46549  24275093.4144   24275101.3934
  20842721.888   -25992763.68849 -20213399.33649  20842723.8844   20842728.9304
  24486432.537    -9293490.66649  -7229256.98949  24486434.8594   24486439.4724
  23369875.319   -11311698.36649  -8800774.52949  23369877.3404   23369883.6994
  21591249.346   -25428863.06449 -19528770.36749  21591250.8234   21591255.9364
  23461474.484   -12230024.58949  -9505939.23749  23461476.3654   23461481.5504
 96  7 10  2 27  0.0010000  0  7 25  3  1 23 31 21 15
  23951923.741   -10338536.28049  -7803405.32549  23951926.6454   23951932.8374
  24293291.888   -10121042.09049  -7874112.35649  24293294.0274   24293301.6604
  20846483.171   -25973002.27649 -20198000.83049  20846484.2044   20846489.5954
  24500425.368    -9219970.43649  -7171968.49849  24500424.8314   24500430.3904
  23381115.711   -11252629.81449  -8754747.11649  23381117.8424   23381122.7104
  21598301.209   -25391799.68149 -19499889.81949  21598304.0794   21598309.1864
  23442853.775   -12327877.58249  -9582188.32349  23442855.3004   23442862.4134
 96  7 10  2 27 30.0010000  0  7 25  3  1 23 31 21 15
  23933246.812   -10436683.17849  -7879883.33849  23933248.7364   23933255.7914
  24311518.456   -10025269.78249  -7799484.69249  24311518.8614   24311527.4474
  20850326.358   -25952806.27649 -20182263.68349  20850327.2714   20850332.6404
  24514426.665    -9146381.80549  -7114626.72449  24514426.9484   24514433.4844
  23392432.170   -11193164.64449  -8708410.64349  23392433.2344   23392439.7334
  21605409.926   -25354444.65849 -19470782.02149  21605412.2614   21605417.7314
  23424276.035   -12425503.55249  -9658260.47149  23424277.1794   23424284.1474
 96  7 10  2 28  0.0010000  0  7 25  3  1 23 31 21 15
  23914598.061   -10534689.38949  -7956251.73849  23914599.1324   23914605.4164
  24329763.972    -9929381.03049  -7724766.29349  24329766.6934   24329773.5114
  20854255.470   -25932157.81149 -20166173.96649  20854256.4864   20854261.7374
  24528443.921    -9072707.42649  -7057218.14149  24528448.1484   24528454.6794
  23403821.509   -11133307.04349  -8661768.39449  23403823.9264   23403830.1734
  21612573.258   -25316799.98849 -19441448.52749  21612575.5914   21612581.0224
  23405743.708   -12522890.86149  -9734146.67349  23405746.2884   23405752.0844
 96  7 10  2 28 30.0010000  0  7 25  3  1 23 31 21 15
  23895971.238   -10632566.71449  -8032519.71149  23895972.9604   23895980.2804
  24348027.816    -9833405.26449  -7649980.09249  24348029.6334   24348037.4054
  20858269.791   -25911060.71749 -20149734.66649  20858271.0224   20858276.6454
  24542483.413    -8998945.46649  -6999741.32249  24542484.1164   24542489.9414
  23415284.966   -11073070.85049  -8614831.13449  23415286.7804   23415292.0934
  21619788.666   -25278886.99849 -19411905.95149  21619790.2554   21619795.7644
  23387254.998   -12620049.40449  -9809854.60349  23387257.5004   23387264.3794
 96  7 10  2 29  0.0010000  0  7 25  3  1 23 31 21 15
  23877370.862   -10730317.56149  -8108689.12749  23877372.3854   23877378.7974
  24366303.448    -9737351.36949  -7575132.99949  24366308.1594   24366316.7724
  20862371.767   -25889502.35349 -20132935.93549  20862373.3964   20862379.1174
  24556538.881    -8925078.01349  -6942182.29549  24556539.4744   24556546.3194
  23426818.826   -11012459.04849  -8567601.18749  23426820.3824   23426826.7634
  21627053.312   -25240710.02049 -19382157.66649  21627055.5084   21627060.5804
  23368811.650   -12716973.13249  -9885379.55849  23368813.4324   23368819.0844
 96  7 10  2 29 30.0010000  0  7 25  3  1 23 31 21 15
  23858795.050   -10827934.86649  -8184754.49049  23858795.8594   23858802.8604
  24384600.002    -9641219.45349  -7500225.12249  24384601.8794   24384609.1294
  20866562.553   -25867481.66249 -20115776.95349  20866563.8054   20866569.2254
  24570622.472    -8851084.97449  -6884525.39549  24570620.2194   24570627.7274
  23438429.822   -10951447.48649  -8520059.74049  23438430.7424   23438436.9564
  21634367.412   -25202276.67249 -19352209.61549  21634368.8674   21634374.4614
  23350413.666   -12813653.70049  -9960715.03949  23350415.5364   23350422.4314
 96  7 10  2 30  0.0010000  0  7 25  3  1 23 31 21 15
  23840241.636   -10925425.91449  -8260721.46549  23840244.6814   23840250.5074
  24402906.867    -9545013.75149  -7425259.74049  24402908.9824   24402917.3144
  20870836.003   -25845021.61949 -20098275.62249  20870837.9644   20870843.0644
  24584719.049    -8776970.58149  -6826773.95149  24584723.8224   24584731.1004
  23450115.840   -10890032.01649  -8472203.56149  23450117.6374   23450124.5174
  21641727.302   -25163600.55749 -19322072.39849  21641728.6564   21641734.0284
  23332060.394   -12910101.00649 -10035868.76349  23332062.4454   23332068.1214
 96  7 10  2 30 30.0010000  0  7 25  3  1 23 31 21 15
  23821714.428   -11022781.96949  -8336583.24949  23821717.9514   23821724.4564
  24421232.035    -9448712.18249  -7350219.66449  24421234.8104   24421242.4454
  20875192.394   -25822128.26649 -20080436.64149  20875194.2804   20875199.4594
  24598851.908    -8702730.47949  -6768924.54249  24598852.3074   24598857.5164
  23461879.218   -10828216.63449  -8424035.76149  23461880.9084   23461887.3354
  21649135.854   -25124664.05649 -19291732.27549  21649137.6144   21649143.3474
  23313752.608   -13006310.23749 -10110836.96649  23313753.9974   23313760.4604
 96  7 10  2 31  0.0010000  0  7 25  3  1 23 31 21 15
  23803220.162   -11119985.56449  -8412326.23749  23803219.8394   23803226.8994
  24439577.293    -9352301.83249  -7275094.81649  24439580.1884   24439588.2984
  20879631.874   -25798797.80949 -20062257.06349  20879634.0564   20879639.3004
  24613004.562    -8628355.59949  -6710970.08949  24613004.9754   24613011.3484
  23473719.299   -10766002.35949  -8375557.12249  23473720.6444   23473726.3834
  21656599.597   -25085444.76249 -19261171.79549  21656600.7954   21656606.5384
  23295490.793   -13102273.88449 -10185613.80249  23295492.6764   23295499.2454
 96  7 10  2 31 30.0010000  0  7 25  3  1 23 31 21 15
  23784754.539   -11217009.42549  -8487929.16649  23784757.2234   23784764.4714
  24457948.355    -9255780.20449  -7199883.26849  24457948.3784   24457956.1054
  20884152.455   -25775044.11749 -20043747.68749  20884154.3104   20884159.4974
  24627176.439    -8553855.30749  -6652917.91649  24627182.7384   24627189.2594
  23485633.003   -10703388.33649  -8326767.01349  23485634.8394   23485641.6994
  21664115.587   -25045944.82349 -19230392.63549  21664117.4934   21664123.1054
  23277276.810   -13197989.68149 -10260197.51649  23277278.5014   23277284.8054
 96  7 10  2 32  0.0010000  0  7 25  3  1 23 31 21 15
  23766331.047   -11313835.00349  -8563377.61149  23766331.9434   23766338.3514
  24476336.659    -9159151.47849  -7124588.27549  24476335.9844   24476343.7914
  20888756.117   -25750853.21049 -20024897.62649  20888757.7744   20888762.8104
  24641375.897    -8479240.88449  -6594776.82149  24641381.5504   24641386.6254
  23497621.632   -10640392.49649  -8277679.36349  23497622.1164   23497628.4144
  21671685.710   -25006168.49749 -19199398.10249  21671686.9614   21671692.4094
  23259110.641   -13293455.79049 -10334586.66249  23259112.0934   23259118.2724
 96  7 10  2 32 30.0010000  0  7 25  3  1 23 31 21 15
  23747942.132   -11410466.51549  -8638674.82149  23747943.4374   23747950.7554
  24494742.776    -9062424.80749  -7049216.95249  24494742.4544   24494750.8644
  20893444.573   -25726213.31549 -20005697.70149  20893446.3344   20893451.9004
  24655599.925    -8404507.90749  -6536543.34649  24655602.9594   24655607.8594
  23509683.214   -10577012.07849  -8228292.04849  23509683.6564   23509690.4224
  21679308.103   -24966107.73849 -19168181.93149  21679310.0684   21679315.8014
  23240993.723   -13388661.48849 -10408772.88649  23240995.0004   23241002.2064
 96  7 10  2 33  0.0010000  0  7 25  3  1 23 31 21 15
  23729586.513   -11506925.71749  -8713837.78449  23729588.2074   23729594.4814
  24513158.034    -8965629.66549  -6973792.29149  24513162.6644   24513171.3634
  20898215.804   -25701140.74549 -19986160.63149  20898217.5724   20898222.8604
  24669838.490    -8329682.04749  -6478237.49749  24669840.6864   24669847.5554
  23521814.633   -10513253.25949  -8178609.89149  23521815.7414   23521821.9754
  21686982.157   -24925784.77249 -19136761.45549  21686983.1404   21686988.9464
  23222925.151   -13483613.74849 -10482761.62149  23222925.7464   23222932.1584
 96  7 10  2 33 30.0010000  0  7 25  3  1 23 31 21 15
  23711261.402   -11603221.62049  -8788873.49649  23711263.7154   23711270.4744
  24531588.903    -8868786.14949  -6898329.94649  24531590.6484   24531599.6084
  20903068.681   -25675638.85249 -19966289.03049  20903070.4374   20903075.6914
  24684094.897    -8254774.21349  -6419867.79549  24684095.1684   24684101.5854
  23534017.855   -10449120.35649  -8128636.21649  23534020.4524   23534027.3364
  21694702.013   -24885215.92049 -19105149.36849  21694703.3224   21694708.9104
  23204903.699   -13578313.16349 -10556553.34349  23204904.9444   23204911.6294
 96  7 10  2 34  0.0010000  0  7 25  3  1 23 31 21 15
  23692963.175   -11699375.87949  -8863798.83049  23692965.8694   23692971.3494
  24550028.740    -8771896.11149  -6822831.33249  24550028.0534   24550036.0494
  20908004.282   -25649703.59549 -19946079.73849  20908005.9024   20908010.9104
  24698369.606    -8179764.10749  -6361418.38949  24698369.4954   24698375.9944
  23546296.604   -10384604.01349  -8078363.77149  23546296.8244   23546303.5094
  21702470.848   -24844388.49949 -19073335.79549  21702472.5264   21702477.9044
  23186933.462   -13672750.95749 -10630141.20549  23186934.4184   23186940.6054
 96  7 10  2 34 30.0010000  0  7 25  3  1 23 31 21 15
  23674689.753   -11795403.95149  -8938625.83049  23674692.0394   23674698.4224
  24568473.925    -8674960.21649  -6747296.97949  24568475.6114   24568483.4304
  20913017.878   -25623355.97749 -19925549.12449  20913019.4674   20913024.7154
  24712659.144    -8104656.84849  -6302893.28149  24712662.5254   24712668.2874
  23558645.869   -10319707.93849  -8027795.43849  23558646.8344   23558653.0944
  21710292.039   -24803295.17249 -19041315.02749  21710292.4004   21710297.6504
  23169011.994   -13766923.80449 -10703522.61349  23169013.7554   23169019.5474
 96  7 10  2 35  0.0010000  0  7 25  3  1 23 31 21 15
  23656446.034   -11891280.51949  -9013334.77949  23656448.3854   23656454.6834
  24586928.758    -8577975.40549  -6671724.52149  24586930.8444   24586939.0854
  20918113.577   -25596576.59249 -19904682.06649  20918115.3744   20918120.5444
  24726974.485    -8029441.61549  -6244284.03349  24726974.7664   24726981.7164
  23571064.647   -10254436.54049  -7976934.64349  23571067.3234   23571073.4774
  21718160.622   -24761936.62349 -19009087.59349  21718162.7144   21718168.0764
  23151144.379   -13860823.45849 -10776691.15449  23151145.9104   23151151.3564
 96  7 10  2 35 30.0010000  0  7 25  3  1 23 31 21 15
  23638233.786   -11986989.66249  -9087913.27249  23638234.6064   23638241.1974
  24605394.147    -8480932.23249  -6596106.58549  24605397.5274   24605406.8644
  20923294.741   -25569350.76249 -19883467.13149  20923296.1424   20923301.5254
  24741309.590    -7954100.97549  -6185577.06149  24741311.9824   24741318.8944
  23583557.658   -10188789.42349  -7925781.08549  23583560.0124   23583566.3554
  21726081.363   -24720312.94849 -18976653.56949  21726083.5114   21726089.0744
  23133328.381   -13954446.58849 -10849644.22049  23133329.7394   23133335.9414
 96  7 10  2 36  0.0010000  0  7 25  3  1 23 31 21 15
  23620051.917   -12082525.13849  -9162356.43049  23620055.3644   23620061.1794
  24623874.106    -8383822.60349  -6520436.87249  24623876.1104   24623885.8074
  20928560.330   -25541679.98449 -19861905.48349  20928561.9404   20928567.1074
  24755670.304    -7878636.42849  -6126773.54149  24755672.5004   24755678.5834
  23596119.862   -10122775.01949  -7874341.32149  23596122.2524   23596128.6924
  21734054.730   -24678415.29249 -18944006.05649  21734056.1284   21734061.8604
  23115565.256   -14047791.65349 -10922380.60349  23115566.9184   23115572.4804
 96  7 10  2 36 30.0010000  0  7 25  3  1 23 31 21 15
  23601913.678   -12177850.62649  -9236635.98449  23601914.7744   23601921.4124
  24642367.278    -8286642.10349  -6444711.92349  24642370.0534   24642378.3864
  20933914.212   -25513547.40749 -19839983.99549  20933915.4504   20933920.6374
  24770052.231    -7803065.40749  -6067887.05449  24770052.9774   24770060.3164
  23608752.846   -10056393.15949  -7822615.23649  23608754.3504   23608760.3204
  21742078.270   -24636250.47849 -18911150.36649  21742079.9244   21742085.5204
  23097853.205      -68416.09119    -34488.21059                  23097863.4194
 96  7 10  2 37  0.0010000  0  7 25  3  1 23 31 21 15
  23583811.675   -12272969.01449  -9310754.16149  23583814.3054   23583820.5854
  24660871.559    -8189403.26049  -6368941.50449  24660873.7254   24660881.7864
  20939353.672   -25484961.99049 -19817709.64149  20939355.0644   20939360.4174
  24784448.537    -7727407.68349  -6008932.98849  24784450.6004   24784456.3644
  23621451.059    -9989656.14049  -7770612.40549  23621454.1344   23621459.3234
  21750148.377   -24593841.34649 -18878104.30049  21750149.9404   21750155.8374
  23080198.249     -161206.79159   -106792.63749  23080200.1174   23080206.3314
 96  7 10  2 37 30.0010000  0  7 25  3  1 23 31 21 15
  23565755.516   -12367861.05249  -9384695.94649  23565756.3274   23565763.2414
  24679390.700    -8092086.13349  -6293110.09249  24679391.7914   24679402.2374
  20944875.441   -25455944.36949 -19795098.50549  20944877.1274   20944882.4004
  24798863.787    -7651656.16349  -5949905.84249  24798864.7574   24798869.7404
  23634220.438    -9922556.58549  -7718327.08649  23634222.1884   23634228.5794
  21758271.701   -24551154.35949 -18844841.72349  21758273.0794   21758278.8074
  23062597.876      -49650.47819    -19857.61859                  23062603.4504
 96  7 10  2 38  0.0010000  0  7 25  3  1 23 31 21 15
  23547737.149   -12462538.26049  -9458470.32549  23547740.7504   23547747.0924
  24697919.090    -7994720.24849  -6217240.69349  24697920.6564   24697928.0514
  20950472.957   -25426530.43849 -19772178.55649  20950474.0394   20950479.4634
  24813290.602    -7575838.02849  -5890826.77649  24813292.7834   24813298.9824
  23647053.510    -9855125.90749  -7665783.73749  23647053.9424   23647060.3374
  21766446.243   -24508195.95949 -18811367.65449  21766447.9014   21766453.4184
  23045044.739     -141878.50959    -91723.61049  23045047.8604   23045053.0454
 96  7 10  2 38 30.0010000  0  7 25  3  1 23 31 21 15
  23529762.235   -12557002.26849  -9532078.57749  23529764.7174   23529770.7374
  24716457.234    -7897308.15749  -6141335.27149  24716458.4144   24716467.2294
  20956143.758   -25396728.07449 -19748955.93149  20956145.4364   20956150.4404
  24827736.146    -7499938.11349  -5831683.99449  24827737.0974   24827742.5004
  23659947.911    -9787360.03049  -7612979.19849  23659949.2584   23659956.0104
  21774672.595   -24464963.28449 -18777679.87049  21774674.7984   21774680.3144
  23027550.410     -233821.10549   -163367.17149  23027551.4594   23027556.1594
 96  7 10  2 39  0.0010000  0  7 25  3  1 23 31 21 15
  23511823.498   -12651282.67649  -9605543.76149  23511823.8074   23511829.9774
  24734996.870    -7799873.18649  -6065412.01549  24735000.0104   24735008.4934
  20961882.977   -25366568.75149 -19725455.15049  20961884.9174   20961889.6824
  24842201.554    -7423940.41649  -5772465.00849  24842197.7674   24842203.4834
  23672902.885    -9719279.45149  -7559929.44249  23672905.1074   23672911.4464
  21782952.924   -24421456.37049 -18743778.38749  21782953.8094   21782959.4054
  23010100.930     -325488.15359   -234796.01959  23010107.7454   23010113.5914
 96  7 10  2 39 30.0010000  0  7 25  3  1 23 31 21 15
  23493917.666   -12745368.93649  -9678857.66249  23493919.9724   23493925.8814
  24753544.281    -7702407.25649  -5989464.64749  24753547.0774   24753555.5184
  20967690.940   -25336048.88849 -19701673.44149  20967692.4614   20967697.2974
  24856679.846    -7347815.46649  -5713146.87049  24856684.5994   24856691.2514
  23685921.242    -9650873.48249  -7506626.13949  23685922.6774   23685929.0644
  21791284.693   -24377667.52849 -18709657.22749  21791286.7734   21791292.2974
  22992717.216     -416861.07349   -305995.68049  22992719.3504   22992726.1354
 96  7 10  2 40  0.0010000  0  7 25  3  1 23 31 21 15
  23476046.199   -12839274.98349  -9752031.14549  23476049.7314   23476056.1624
  24772098.486    -7604919.00049  -5913499.87949  24772097.2724   24772107.3434
  20973571.565   -25305146.15449 -19677593.38749  20973573.1964   20973577.7494
  24871192.489    -7271566.01049  -5653731.71549  24871194.4394   24871199.8994
  23699001.646    -9582136.17149  -7453064.64649  23699002.4484   23699008.6164
  21799666.028   -24333622.42949 -18675336.38849  21799668.5064   21799674.0294
  22975385.960     -507943.31649   -376968.83149  22975387.4524   22975393.2264
 96  7 10  2 40 30.0010000  0  7 25  3  1 23 31 21 15
  23458211.744   -12933008.38149  -9825070.10249  23458212.7194   23458218.0004
  24790651.104    -7507401.21249  -5837512.09549  24790655.2214   24790664.6984
  20979526.994   -25273849.78849 -19653206.60849  20979528.4874   20979533.2344
  24885727.859    -7195175.48349  -5594206.64649  24885730.2954   24885737.5014
  23712147.137    -9513058.51049  -7399237.94649  23712147.6774   23712154.2164
  21808095.071   -24289331.16149 -18640823.72949  21808096.8924   21808102.1774
  22958110.002     -598730.29949   -447711.91649  22958111.2084   22958117.5174
 96  7 10  2 41  0.0010000  0  7 25  3  1 23 31 21 15
  23440411.386   -13026548.47649  -9897958.43649  23440412.2304   23440418.3854
  24809217.986    -7409841.42749  -5761491.59949  24809220.2784   24809229.0094
  20985560.493   -25242140.86649 -19628498.35249  20985562.4234   20985567.4774
  24900291.859    -7118647.92949  -5534574.80249  24900292.7604   24900300.1374
  23725356.691    -9443634.25549  -7345141.18049  23725359.3374   23725365.5724
  21816570.901   -24244790.68549 -18606116.88049  21816572.3614   21816577.7774
  22940889.856     -689216.90849   -518220.93749  22940891.7464   22940897.7334
 96  7 10  2 41 30.0010000  0  7 25  3  1 23 31 21 15
  23422648.762   -13119880.77149  -9970684.85849  23422652.5874   23422657.6394
  24827794.872    -7312228.92549  -5685430.00749  24827794.7774   24827803.2824
  20991676.526   -25210002.35349 -19603455.35249  20991678.1994   20991683.0924
  24914874.620    -7042007.68649  -5474855.15849  24914877.7274   24914884.7284
  23738633.834    -9373864.37049  -7290775.09449  23738635.9484   23738642.1334
  21825094.316   -24199996.26749 -18571212.15349  21825096.6014   21825101.7874
  22923730.130     -779396.79149   -588490.95049  22923731.1754   22923737.6264
 96  7 10  2 42  0.0010000  0  7 25  3  1 23 31 21 15
  23404931.206   -13212997.82149 -10043243.54649  23404932.6124   23404938.0734
  24846375.366    -7214573.85849  -5609335.26449  24846379.2914   24846387.4074
  20997877.101   -25177420.42249 -19578066.83149  20997878.5674   20997883.1554
  24929479.744    -6965261.62749  -5415053.05449  24929481.7534   24929488.0464
  23751974.722    -9303757.29949  -7236146.27149  23751977.0324   23751984.2684
  21833671.229   -24154927.39149 -18536093.55849  21833673.3264   21833678.1814
  22906628.292     -869264.61049   -658517.79749  22906630.2064   22906636.3484
 96  7 10  2 42 30.0010000  0  7 25  3  1 23 31 21 15
  23387254.362   -13305886.37149 -10115624.17549  23387256.1874   23387262.0324
  24864965.603    -7116890.16149  -5533218.18349  24864967.7884   24864975.7914
  21004158.655   -25144409.78049 -19552344.25549  21004160.1004   21004164.8934
  24944099.717    -6888425.99649  -5355181.16149  24944104.0754   24944110.5134
  23765376.761    -9233326.92249  -7181265.51449  23765379.0604   23765385.2974
  21842302.385   -24109573.92249 -18500753.20549  21842303.7654   21842308.9334
  22889586.699     -958821.93149   -728302.68949  22889587.8954   22889593.5574
 96  7 10  2 43  0.0010000  0  7 25  3  1 23 31 21 15
  23369625.881   -13398526.81149 -10187811.47549  23369627.5614   23369633.4374
  24883559.961    -7019182.40749  -5457082.37549  24883559.5634   24883569.5174
  21010522.186   -25110970.33649 -19526287.54749  21010523.5224   21010528.2704
  24958740.418    -6811510.05949  -5295246.68049  24958740.0704   24958746.7134
  23778842.945    -9162565.24649  -7126126.61349  23778845.1654   23778851.7144
  21850990.063   -24063919.17849 -18465178.09249  21850991.3154   21850996.5444
  22872605.558    -1048059.43449   -797838.39049  22872606.5344   22872612.3774
 96  7 10  2 43 30.0010000  0  7 25  3  1 23 31 21 15
  23352038.509   -13490951.30249 -10259830.51549  23352039.9114   23352046.0234
  24902149.248    -6921487.89449  -5380956.89049  24902151.5074   24902161.3464
  21016959.805   -25077135.78449 -19499922.96549  21016961.6564   21016966.5784
  24973388.992    -6734530.18849  -5235262.40649  24973388.6044   24973396.1314
  23792367.651    -9091494.75149  -7070747.06549  23792369.2604   23792375.6484
  21859732.088   -24017978.93249 -18429380.50449  21859733.5314   21859738.8024
  22855680.891    -1136995.54249   -867139.22649  22855682.7434   22855688.3784
 96  7 10  2 44  0.0010000  0  7 25  3  1 23 31 21 15
  23334492.749   -13583152.33749 -10331675.42649  23334494.3004   23334500.8234
  24920737.610    -6823802.24249  -5304838.28649  24920740.4464   24920749.8344
  21023473.056   -25042909.29449 -19473252.97549  21023474.9244   21023479.8354
  24988053.304    -6657458.62049  -5175206.67949  24988054.3774   24988061.9424
  23805954.594    -9020102.58349  -7015116.85749  23805955.0014   23805960.7144
  21868528.091   -23971754.70749 -18393361.63949  21868529.4094   21868534.9124
  22838816.735    -1225616.62749   -936194.58749  22838818.7914   22838823.8874
 96  7 10  2 44 30.0010000  0  7 25  3  1 23 31 21 15
  23316989.887   -13675124.09049 -10403341.68049  23316992.4774   23316999.0444
  24939328.068    -6726105.92449  -5228711.41949  24939332.2284   24939341.1604
  21030060.048   -25008297.14849 -19446282.47349  21030061.6054   21030066.4384
  25002736.836    -6580281.70149  -5115068.85349  25002740.8424   25002747.8664
  23819602.816    -8948370.07549  -6959221.47049  23819604.6034   23819610.6404
  21877377.934   -23925250.79549 -18357124.82649  21877379.3164   21877384.5194
  22822014.820    -1313914.32349  -1004997.96949  22822016.7154   22822021.9244
 96  7 10  2 45  0.0010000  0  7 25  3  1 23 31 21 15
  23299529.024   -13766883.65949 -10474842.60149  23299531.0444   23299537.4604
  24957923.073    -6628395.70249  -5152573.69149  24957926.1454   24957934.4734
  21036720.541   -24973297.95749 -19419010.38049  21036721.5074   21036726.4704
  25017445.209    -6502987.50249  -5054839.64049  25017449.5734   25017456.8994
  23833315.870    -8876310.93549  -6903071.57149  23833316.8924   23833323.3594
  21886278.632   -23878477.75649 -18320678.30149  21886279.7854   21886285.0294
  22805273.260    -1401889.94249  -1073550.37349  22805274.4544   22805280.0434
 96  7 10  2 45 30.0010000  0  7 25  3  1 23 31 21 15
  23282110.358   -13858424.41749 -10546173.01449  23282111.7584   23282117.7604
  24976519.293    -6530664.05949  -5076419.31149  24976524.0224   24976532.1694
  21043455.508   -24937903.78649 -19391430.50849  21043456.9804   21043461.9494
  25032182.218    -6425576.20849  -4994519.16049  25032181.2244   25032187.3284
  23847085.355    -8803949.71249  -6846686.27849  23847086.9564   23847093.5824
  21895228.117   -23831445.79849 -18284030.02749  21895229.6644   21895234.9794
  22788593.948    -1489542.98749  -1141851.42149  22788595.1364   22788600.7104
 96  7 10  2 46  0.0010000  0  7 25  3  1 23 31 21 15
  23264737.489   -13949716.59449 -10617309.73049  23264739.5644   23264745.4864
  24995125.108    -6432894.57849  -5000235.42949  24995128.2654   24995136.2634
  21050269.857   -24902097.74549 -19363529.70349  21050270.5634   21050275.4514
  25046934.948    -6348041.01849  -4934102.13449  25046934.7504   25046941.2224
  23860913.142    -8731282.21349  -6790062.34049  23860915.9334   23860921.9814
  21904227.163   -23784153.54749 -18247178.92349  21904228.8684   21904234.5634
  22771978.313    -1576857.99549  -1209889.07649  22771979.9444   22771985.3554
 96  7 10  2 46 30.0010000  0  7 25  3  1 23 31 21 15
  23247410.933   -14040762.57949 -10688254.60649  23247413.7744   23247419.4754
  25013734.179    -6335110.12449  -4924039.88849  25013736.5344   25013744.3094
  21057160.704   -24865881.69349 -19335309.40649  21057162.1584   21057167.1704
  25061707.586    -6270399.26149  -4873602.08449  25061709.6854   25061717.1664
  23874798.749    -8658319.13049  -6733208.06149  23874799.9774   23874806.2764
  21913274.858   -23736610.64849 -18210132.51149  21913275.8984   21913281.4104
  22755425.729    -1663842.25049  -1277668.98949  22755427.0734   22755432.8924
 96  7 10  2 47  0.0010000  0  7 25  3  1 23 31 21 15
  23230138.548   -14131533.15649 -10758984.87249  23230140.7074   23230146.5944
  25032342.451    -6237314.99149  -4847836.01649  25032345.9164   25032354.2504
  21064132.431   -24829245.81349 -19306761.96849  21064133.6584   21064138.6604
  25076502.965    -6192647.34149  -4813016.18349  25076506.2114   25076513.3944
  23888740.784    -8585055.03449  -6676119.22749  23888741.7104   23888748.4064
  21922372.109   -23688800.49749 -18172877.84549  21922374.2144   21922379.3754
  22738938.577    -1750480.12549  -1345179.00049  22738940.2214   22738945.8434
 96  7 10  2 47 30.0010000  0  7 25  3  1 23 31 21 15
  23212918.899   -14222026.24949 -10829498.93149  23212920.0334   23212926.3284
  25050948.209    -6139534.95049  -4771643.89449  25050951.4084   25050961.2114
  21071177.334   -24792223.72049 -19277913.58049  21071178.8764   21071184.0214
  25091315.273    -6114800.62649  -4752356.41149  25091319.7174   25091326.7244
  23902737.540    -8511488.43049  -6618794.67449  23902740.5824   23902747.7664
  21931519.584   -23640732.79349 -18135422.48749  21931520.7944   21931526.7314
  22722516.541    -1836779.60649  -1412425.32049  22722518.0404   22722523.7374
 96  7 10  2 48  0.0010000  0  7 25  3  1 23 31 21 15
  23195750.935   -14312248.78949 -10899802.16149  23195751.6444   23195757.6294
  25069552.297    -6041795.28849  -4695483.23649  25069552.1954   25069561.1424
  21078292.978   -24754831.55249 -19248776.83049  21078294.4964   21078299.3564
  25106151.699    -6036849.99649  -4691615.64749  25106153.0404   25106159.5714
  23916795.277    -8437614.34549  -6561230.54449  23916797.9214   23916804.9104
  21940717.357   -23592396.64849 -18097757.95149  21940719.2544   21940724.4544
  22706158.442    -1922739.47549  -1479407.01649  22706160.6444   22706166.0614
 96  7 10  2 48 30.0010000  0  7 25  3  1 23 31 21 15
  23178632.610   -14402196.54549 -10969891.27549  23178635.1004   23178641.1084
  25088141.439    -5944097.46349  -4619355.21349  25088143.1234   25088152.4754
  21085479.532   -24717064.92149 -19219348.28849  21085481.3974   21085486.0064
  25121010.344    -5958780.37349  -4630782.14749  25121009.6194   25121016.0814
  23930915.173    -8363432.75249  -6503426.79249  23930915.3584   23930921.8644
  21949971.579   -23543767.46549 -18059865.08149  21949972.7894   21949978.3234
  22689868.030    -2008349.34949  -1546115.98449  22689869.5044   22689874.8324
 96  7 10  2 49  0.0010000  0  7 25  3  1 23 31 21 15
  23161565.898   -14491888.32649 -11039780.92849  23161567.0404   23161573.3454
  25106720.077    -5846446.16349  -4543263.42449  25106725.7454   25106735.8014
  21092735.342   -24678936.84549 -19189638.09949  21092736.7184   21092741.5324
  25135885.621    -5880604.40849  -4569865.78249  25135885.5634   25135891.1884
  23945082.917    -8288966.68949  -6445401.37849  23945084.3074   23945092.2714
  21959279.949   -23494845.42449 -18021743.99849  21959282.3004   21959287.5474
  22673641.889    -2093615.57349  -1612557.16849  22673643.9624   22673649.3324
 96  7 10  2 49 30.0010000  0  6 25  3  1 31 21 15
  23144540.701   -14581349.64349 -11109490.99249  23144543.1684   23144548.7334
  25125298.891    -5748840.49349  -4467207.19649  25125300.0214   25125309.9784
  21100059.942   -24640442.50149 -19159642.50549  21100061.7754   21100066.5324
  23959304.067    -8214238.61349  -6387171.79349  23959305.4764   23959312.9234
  21968644.457   -23445638.28249 -17983400.76649  21968646.2414   21968651.6914
  22657482.640    -2178536.36349  -1678729.18849  22657483.9734   22657489.3604
 96  7 10  2 50  0.0010000  0  6 25  3  1 31 21 15
  23127557.724   -14670601.82049 -11179038.09249  23127558.8394   23127564.8544
  25143865.056    -5651276.54759  -4391183.46949  25143866.2214   25143874.4524
  21107456.000   -24601578.64349 -19129358.97749  21107457.1614   21107462.3854
  23973571.490    -8139261.33149  -6328747.99249  23973573.2494   23973581.0164
  21978060.240   -23396158.79749 -17944845.31749  21978061.9164   21978067.0644
  22641387.769    -2263114.22949  -1744633.99249  22641389.3684   22641394.8054
 96  7 10  2 50 30.0010000  0  6 25  3  1 31 21 15
  23110613.749   -14759641.10849 -11248419.30649  23110615.4864   23110620.8774
  25162425.927    -5553731.37659  -4315174.37459  25162427.8914   25162435.7884
  21114923.678   -24562339.56449 -19098783.07049  21114924.2844   21114929.3704
  23987888.977    -8064024.94049  -6270122.30049  23987890.5954   23987896.9044
  21987525.634   -23346418.13749 -17906086.35449  21987527.1484   21987532.6904
  22625359.253    -2347342.01449  -1810266.00449  22625361.0064   22625366.8164
 96  7 10  2 51  0.0010000  0  6 25  3  1 31 21 15
  23093713.361   -14848454.96249 -11317624.86449  23093715.1974   23093720.0244
  25180986.508    -5456195.87859  -4239172.81159  25180990.0014   25180995.7054
  21122461.942   -24522722.11949 -19067912.32749  21122463.0954   21122468.2764
  24002257.133    -7988518.56749  -6211286.21449  24002259.4564   24002266.4764
  21997039.254   -23296425.16849 -17867130.79049  21997040.5674   21997046.1694
  22609400.785    -2431209.09049  -1875616.94549  22609401.9314   22609407.1174
 96  7 10  2 51 30.0010000  0  5 25  1 31 21 15
  23076860.948   -14937013.78649 -11386631.69049  23076862.6064   23076867.4794
  21130072.700   -24482725.08749 -19036745.80349  21130074.3754   21130079.4574
  24016679.843    -7912729.59849  -6152229.92449  24016681.1694   24016687.4794
  22006602.012   -23246169.71349 -17827970.69449  22006603.5654   22006609.1684
  22593510.463    -2514705.47049  -1940679.02749  22593512.9364   22593518.3654
 96  7 10  2 52  0.0010000  0  5 25  1 31 21 15
  23060061.796   -15025295.60149 -11455422.66149  23060063.4474   23060067.9154
  21137754.509   -24442358.85049 -19005291.59149  21137755.8724   21137760.6744
  24031158.465    -7836653.22449  -6092949.68149  24031158.1594   24031163.7194
  22016215.981   -23195648.05949 -17788603.18249  22016217.6474   22016223.2354
  22577691.338    -2597838.60749  -2005458.07149  22577692.8094   22577698.8634
 96  7 10  2 52 30.0010000  0  5 25  1 31 21 15
  23043320.489   -15113268.34349 -11523972.79749  23043322.7684   23043327.5404
  21145508.421   -24401612.08249 -18973540.85949  21145509.8494   21145514.8264
  24045683.896    -7760302.39449  -6033455.58149  24045687.4664   24045694.2524
  22025883.305   -23144846.64649 -17749017.67049  22025884.7784   22025890.5344
  22561941.951    -2680605.96249  -2069952.09649  22561942.7294   22561948.3714
 96  7 10  2 53  0.0010000  0  5 25  1 31 21 15
  23026642.437   -15200916.49649 -11592269.99949  23026643.1364   23026648.8394
  21153334.173   -24360485.78549 -18941494.38849  21153336.0284   21153340.9884
  24060266.641    -7683679.05549  -5973749.13449  24060269.1174   24060274.6384
  22035607.505   -23093746.38149 -17709199.29149  22035608.9284   22035614.1174
  22546262.177    -2762999.05449  -2134154.47349  22546264.4594   22546269.7414
 96  7 10  2 53 30.0010000  0  5 25  1 31 21 15
  23010022.703   -15288252.24849 -11660323.77149  23010024.2754   23010029.3024
  21161230.640   -24318990.31149 -18909160.25049  21161232.1034   21161237.0374
  24074896.650    -7606798.85349  -5913842.54649  24074898.0704   24074903.8274
  22045387.236   -23042352.48849 -17669152.10849  22045388.9804   22045394.4864
  22530653.939    -2845024.61649  -2198070.47849  22530654.6904   22530661.0684
 96  7 10  2 54  0.0010000  0  5 25  1 31 21 15
  22993461.991   -15375276.27249 -11728134.64049  22993463.9514   22993469.1054
  21169198.253   -24277118.62249 -18876532.95549  21169200.0324   21169205.0954
  24089575.273    -7529659.08849  -5853733.67949  24089577.4534   24089583.2954
  22055222.227   -22990672.17949 -17628881.74549  22055223.1234   22055229.1464
  22515115.988    -2926677.03349  -2261695.71849  22515116.7794   22515122.7114
 96  7 10  2 54 30.0010000  0  5 25  1 31 21 15
  22976958.254   -15462001.96649 -11795713.05349  22976960.5554   22976965.4444
  21177236.255   -24234879.06249 -18843619.00349  21177238.1554   21177242.9374
  24104303.499    -7452266.74449  -5793428.01549  24104304.6714   24104312.0064
  22065108.741   -22938711.64849 -17588393.03549  22065111.2174   22065117.1904
  22499649.184    -3007953.34349  -2325027.89349  22499650.8114   22499656.4244
 96  7 10  2 55  0.0010000  0  5 25  1 31 21 15
  22960509.504   -15548439.74549 -11863067.11749  22960512.3554   22960517.0334
  21185342.424   -24192280.65249 -18810425.42949  21185344.1534   21185349.3014
  24119080.917    -7374616.05349  -5732921.02349  24119081.0744   24119087.5754
  22075049.815   -22886477.23149 -17547690.90749  22075050.8594   22075056.3964
  22484256.314    -3088842.66449  -2388058.50949  22484257.9284   22484263.6924
 96  7 10  2 55 30.0010000  0  5 25  1 31 21 15
  22944115.636   -15634598.73649 -11930203.94349  22944116.5874   22944121.0824
  21193518.635   -24149316.04549 -18776946.50849  21193519.9074   21193525.0594
  24133902.556    -7296716.51649  -5672220.14649  24133904.5364   24133911.5974
  22085040.000   -22833977.44949 -17506781.99649  22085041.2984   22085046.6474
  22468937.625    -3169343.74149  -2450786.60449  22468939.1644   22468944.4324
 96  7 10  2 56  0.0010000  0  5 25  1 31 21 15
  22927771.547   -15720480.30249 -11997124.59049  22927773.8244   22927778.2204
  21201762.491   -24105992.64649 -18743188.00849  21201764.2194   21201769.0244
  24148775.446    -7218571.05149  -5611327.62849  24148775.7674   24148782.9344
  22095080.657   -22781212.95149 -17465666.81049  22095082.3944   22095087.3904
  22453692.676    -3249458.07149  -2513213.34349  22453693.9574   22453699.8454
 96  7 10  2 56 30.0010000  0  5 25  1 31 21 15
  22911480.487   -15806091.07549 -12063834.23249  22911482.5674   22911486.9614
  21210073.703   -24062317.30449 -18709155.27349  21210075.2354   21210080.2174
  24163689.914    -7140192.54249  -5550253.53249  24163691.2484   24163697.5924
  22105169.712   -22728194.06249 -17424353.40249  22105171.6324   22105176.7734
  22438520.237    -3329187.63849  -2575340.26949  22438522.0674   22438527.3544
 96  7 10  2 57  0.0010000  0  5 25  1 31 21 15
  22895245.117   -15891408.93149 -12130315.62649  22895246.7054   22895251.9984
  21218456.102   -24018269.72549 -18674832.47749  21218457.2054   21218462.3634
  24178651.581    -7061567.14549  -5488987.02949  24178653.3694   24178660.2814
  22115310.997   -22674902.70449 -17382827.67349  22115312.2854   22115317.7964
  22423425.175    -3408512.22449  -2637151.61849  22423427.0644   22423432.5804
 96  7 10  2 57 30.0010000  0  6 14 25  1 31 21 15
  25286676.080    -5071397.61059  -3934958.38959  25286677.5934   25286684.2694
  22879061.555   -15976453.34149 -12196583.95149  22879063.7614   22879068.3264
  21226905.406   -23973868.95049 -18640234.47049  21226906.4334   21226911.5094
  24193659.022    -6982705.32949  -5427536.32749  24193659.3764   24193665.7894
  22125502.408   -22621349.82049 -17341098.15949  22125503.3824   22125508.5864
  22408404.790    -3487450.76849  -2698662.16149  22408405.5164   22408410.8954
 96  7 10  2 58  0.0010000  0  6 14 25  1 31 21 15
  25270553.710    -5156120.46549  -4000976.14049  25270555.6844   25270561.1404
  22862933.048   -16061205.54849 -12262624.58149  22862935.7514   22862940.7344
  21235422.534   -23929106.00949 -18605354.25649  21235424.5964   21235429.4434
  24208713.971    -6903594.03349  -5365891.22049  24208714.3104   24208720.0294
  22135744.340   -22567521.17149 -17299153.76749  22135746.2994   22135751.8444
  22393457.704    -3565989.69849  -2759861.32049  22393459.4544   22393465.7194
 96  7 10  2 58 30.0010000  0  6 14 25  1 31 21 15
  25254432.511    -5240839.76349  -4066991.14449  25254434.4244   25254439.8374
  22846861.783   -16145664.65549 -12328436.82549  22846863.6674   22846868.8334
  21244010.145   -23883983.39849 -18570193.77849  21244011.1004   21244016.2574
  24223814.202    -6824244.63049  -5304060.54749  24223814.0204   24223819.9044
  22146040.832   -22513414.85949 -17256993.00349  22146042.6774   22146047.8894
  22378589.793    -3644129.77249  -2820749.67449  22378590.3204   22378595.8464
 96  7 10  2 59  0.0010000  0  6 14 25  1 31 21 15
  25238311.968    -5325544.18549  -4132994.49349  25238315.0574   25238322.8774
  22830850.704   -16229804.27449 -12394000.12149  22830852.5714   22830857.4764
  21252665.590   -23838498.48849 -18534750.98849  21252666.5074   21252671.6664
  24238958.382    -6744646.02949  -5242035.72049  24238961.6314   24238968.3404
  22156395.468   -22459005.33749 -17214595.97449  22156396.5244   22156401.6024
  22363798.236    -3721856.64149  -2881316.05149  22363799.3354   22363804.9644
 96  7 10  2 59 30.0010000  0  6 14 25  1 31 21 15
  25222192.765    -5410243.76549  -4198994.04849  25222196.8824   25222203.4394
  22814900.534   -16313620.29949 -12459311.26649  22814902.6914   22814907.4794
  21261388.104   -23792659.83349 -18499032.55349  21261389.3604   21261394.4544
  24254153.371    -6664810.76949  -5179826.47949  24254152.5014   24254159.6724
  22166802.641   -22404308.04449 -17171974.70749  22166804.5544   22166810.1454
  22349084.956    -3799173.91949  -2941563.26749  22349086.1284   22349091.5404
 96  7 10  3  0  0.0010000  0  6 14 25  1 31 21 15
  25206074.666    -5494943.65649  -4264993.93549  25206078.0954   25206086.0324
  22799014.722   -16397100.35749 -12524360.61949  22799016.7434   22799021.5014
  21270176.613   -23746477.94449 -18463046.66449  21270177.6684   21270182.4104
  24269384.911    -6584760.90749  -5117450.02649  24269385.6274   24269393.5734
  22177264.791   -22349335.60049 -17129139.03549  22177265.7514   22177271.7014
  22334448.431    -3876086.00149  -3001494.74649  22334450.3564   22334456.0074
 96  7 10  3  0 30.0010000  0  6 14 25  1 31 21 15
  25189963.557    -5579631.04749  -4330984.01849  25189964.0614   25189971.7254
  22783200.018   -16480215.62049 -12589125.71849  22783200.5974   22783205.4664
  21279028.036   -23699960.64149 -18426799.40749  21279029.4504   21279034.2474
  24284656.133    -6504499.26549  -5054908.54849  24284659.1004   24284667.0984
  22187777.499   -22294087.28249 -17086088.40049  22187779.3694   22187784.4624
  22319892.376    -3952578.94449  -3061099.62449  22319893.8784   22319899.7964
 96  7 10  3  1  0.0010000  0  6 14 25  1 31 21 15
  25173844.290    -5664318.03549  -4396973.73649  25173846.4314   25173855.4414
  22767448.603   -16562984.11649 -12653620.61549  22767450.2154   22767455.0804
  21287941.019   -23653123.93849 -18390303.27249  21287942.5464   21287947.2424
  24299970.140    -6424037.04549  -4992210.79149  24299970.6324   24299978.1774
  22198339.676   -22238582.95149 -17042838.26749  22198341.2484   22198346.6804
  22305414.185    -4028663.05949  -3120385.93949  22305415.8304   22305421.5304
 96  7 10  3  1 30.0010000  0  6 14 25  1 31 21 15
  25157733.916    -5748987.88449  -4462950.23049  25157736.2774   25157742.4594
  22751761.415   -16645416.89849 -12717853.92449  22751763.5644   22751768.1634
  21296917.324   -23605954.17049 -18353547.60249  21296918.6024   21296923.1374
  24315319.926    -6343365.32749  -4929349.79749  24315322.6964   24315329.6474
  22208951.057   -22182820.78649 -16999387.23349  22208952.0824   22208957.5464
  22291016.421    -4104328.35949  -3179345.90049  22291017.2824   22291022.9014
 96  7 10  3  2  0.0010000  0  6 14 25  1 31 21 15
  25141624.107    -5833645.79649  -4528917.32749  25141624.9594   25141633.6834
  22736136.154   -16727526.32149 -12781835.26849  22736138.8334   22736143.7654
  21305955.526   -23558458.31849 -18316537.84549  21305956.8064   21305961.4114
  24330712.745    -6262481.96849  -4866323.84849  24330713.9554   24330720.4204
  22219611.210   -22126798.74849 -16955733.69849  22219613.1734   22219618.4794
  22276695.819    -4179577.71449  -3237981.75449  22276697.7784   22276703.5774
 96  7 10  3  2 30.0010000  0  6 14 25  1 31 21 15
  25125518.673    -5918280.39549  -4594866.27449  25125519.9434   25125526.4084
  22720571.316   -16809323.34149 -12845573.17149  22720572.9554   22720578.4144
  21315055.795   -23510633.44449 -18279271.70149  21315057.2984   21315062.1904
  24346143.031    -6181381.28449  -4803128.56949  24346146.1524   24346154.3914
  22230323.380   -22070511.77349 -16911873.70549  22230323.7824   22230329.2884
  22262456.833    -4254406.90249  -3296290.20149  22262458.1434   22262463.9814
 96  7 10  3  3  0.0010000  0  6 14 25  1 31 21 15
  25109417.334    -6002895.44749  -4660799.99549  25109418.7764   25109425.3224
  22705064.705   -16890814.16749 -12909072.49149  22705066.1094   22705071.0314
  21324224.147   -23462456.53449 -18241731.24949  21324225.2344   21324229.6404
  24361621.750    -6100052.80549  -4739755.80349  24361622.8324   24361630.5424
  22241088.428   -22013942.55649 -16867793.79349  22241089.0874   22241094.1894
  22248299.357    -4328806.39049  -3354263.82249  22248300.2234   22248306.1174
 96  7 10  3  3 30.0010000  0  6 14 25  1 31 21 15
  25093313.135    -6087515.22049  -4726737.41849  25093314.3354   25093321.7764
  22689615.593   -16971999.99449 -12972334.14249  22689616.8044   22689621.9244
  21333456.295   -23413936.87649 -18203923.71449  21333458.1054   21333462.8904
  24377135.249    -6018527.91949  -4676229.99849  24377137.2144   24377144.4994
  22251904.525   -21957098.93949 -16823500.06949  22251905.8174   22251911.1434
  22234221.678    -4402785.00649  -3411909.48449  22234222.6474   22234228.1894
 96  7 10  3  4  0.0010000  0  6 14 25  1 31 21 15
  25077209.978    -6172146.15249  -4792683.48549  25077211.5574   25077219.2584
  22674225.583   -17052864.04749 -13035345.05349  22674228.7944   22674234.0344
  21342752.776   -23365085.49649 -18165857.69649  21342754.0864   21342759.0934
  24392684.239    -5936827.90649  -4612567.69049  24392683.3354   24392691.4454
  22262776.090   -21899969.82149 -16778983.88349  22262777.2544   22262782.4634
  22220224.147    -4476340.90249  -3469225.75549  22220225.6224   22220230.8894
 96  7 10  3  4 30.0010000  0  6 14 25  1 31 21 15
  25061101.885    -6256790.98349  -4858640.40149  25061103.4614   25061110.5114
  22658900.174   -17133412.12949 -13098109.76049  22658900.8954   22658906.4044
  21352110.491   -23315910.06449 -18127539.17249  21352111.8774   21352116.7424
  24408256.976    -5854981.76049  -4548791.54349  24408258.6304   24408265.8154
  22273701.389   -21842555.68049 -16734245.59349  22273703.0194   22273707.8154
  22206308.096    -4549474.18049  -3526212.72349  22206309.1264   22206314.1154
 96  7 10  3  5  0.0010000  0  6 14 25  1 31 21 15
  25044992.690    -6341452.69449  -4924610.51749  25044994.3714   25044999.5944
  22643636.243   -17213622.94249 -13160611.65949  22643637.2334   22643642.0754
  21361531.189   -23266404.31449 -18088963.25949  21361532.4754   21361537.6854
  24423860.027    -5772982.39249  -4484895.99749  24423861.8404   24423869.2764
  22284683.920   -21784844.22649 -16689275.62649  22284684.5634   22284690.2544
  22192473.682    -4622171.47449  -3582859.95349  22192475.0584   22192480.3284
 96  7 10  3  5 30.0010000  0  6 14 25  1 31 21 15
  25028882.191    -6426101.13349  -4990570.20249  25028884.6894   25028892.7344
  22628438.916   -17293479.97449 -13222837.88749  22628440.9154   22628446.5154
  21371014.481   -23216570.06149 -18050131.37249  21371015.7604   21371020.6534
  24439500.731    -5690807.18949  -4420863.45149  24439501.2784   24439507.5764
  22295724.755   -21726822.84149 -16644064.15949  22295725.9444   22295730.9834
  22178725.077    -4694420.44149  -3639157.84149  22178726.6854   22178731.9804
 96  7 10  3  6  0.0010000  0  6 14 25  1 31 21 15
  25012777.044    -6510735.64949  -5056519.12949  25012779.3014   25012786.0154
  22613309.101   -17372993.12049 -13284796.13949  22613310.1274   22613315.3884
  21380555.463   -23166429.88049 -18011061.09549  21380557.0014   21380561.9674
  24455169.494    -5608452.82949  -4356691.28749  24455172.2694   24455179.3404
  22306820.526   -21668514.89449 -16598629.40149  22306821.6384   22306827.2104
  22165059.176    -4766231.84749  -3695114.77449  22165060.8464   22165067.0014
 96  7 10  3  6 30.0010000  0  6 14 25  1 31 21 15
  24996674.755    -6595352.26949  -5122454.06349  24996677.6864   24996685.0304
  22598246.601   -17452142.65249 -13346471.06649  22598248.6584   22598253.6464
  21390156.676   -23115973.77449 -17971744.65049  21390158.4864   21390163.4114
  24470881.742    -5525892.42949  -4292358.58249  24470882.9234   24470889.8244
  22317967.727   -21609937.91749 -16552985.01549  22317968.1354   22317974.0664
  22151479.668    -4837596.36549  -3750723.49049  22151480.9674   22151486.7954
 96  7 10  3  7  0.0010000  0  6 14 25  1 31 21 15
  24980579.802    -6679942.93049  -5188368.78749  24980580.4304   24980585.7264
  22583258.334   -17530908.37049 -13407846.92049  22583259.6204   22583265.0614
  21399820.602   -23065190.57049 -17932173.32049  21399822.1034   21399827.0204
  24486636.793    -5443105.00149  -4227848.97349  24486637.0004   24486643.5924
  22329166.739   -21551086.78049 -16507126.99449  22329167.3824   22329172.6124
  22137986.624    -4908506.13249  -3805977.84849  22137987.1934   22137993.1734
 96  7 10  3  7 30.0010000  0  6 14 25  1 31 21 15
  24964487.678    -6764498.84749  -5254256.43149  24964489.8084   24964498.0204
  22568339.903   -17609303.30749 -13468933.84149  22568341.4654   22568346.9824
  21409547.573   -23014077.86749 -17892345.24049  21409548.6294   21409553.6284
  24502431.599    -5360109.02749  -4163176.85949  24502430.4144   24502438.3924
  22340415.976   -21491971.44249 -16461063.09949  22340416.5024   22340422.3614
  22124577.265    -4978965.88449  -3860881.54649  22124579.3774   22124585.0524
 96  7 10  3  8  0.0010000  0  6 14 25  1 31 21 15
  24948401.066    -6849027.59249  -5320122.91649  24948403.6084   24948412.1644
  22553496.317   -17687314.31549 -13529721.60349  22553496.6124   22553502.4544
  21419338.537   -22962624.33449 -17852251.58049  21419339.7634   21419344.9564
  24518256.983    -5276922.12949  -4098355.97049  24518260.6204   24518267.3414
  22351713.546   -21432597.63749 -16414797.80749  22351715.1204   22351720.6194
  22111257.995    -5048965.75249  -3915426.89649  22111258.8334   22111264.3084
 96  7 10  3  8 30.0010000  0  6 14 25  1 31 21 15
  24932319.083    -6933546.92149  -5385982.09049  24932321.0454   24932328.0224
  22538719.109   -17764965.74249 -13590229.17149  22538720.3654   22538725.4364
  21429193.318   -22910840.83649 -17811900.80449  21429194.0334   21429198.9304
  24534121.073    -5193571.81649  -4033407.72049  24534121.2854   24534128.2364
  22363061.304   -21372968.46549 -16368333.52549  22363062.3334   22363067.5574
  22098022.034    -5118517.98749  -3969623.43649  22098023.3974   22098028.8574
 96  7 10  3  9  0.0010000  0  6 14 25  1 31 21 15
  24916241.080    -7018038.69649  -5451819.75449  24916243.0904   24916251.3564
  22524008.696   -17842265.13749 -13650462.42549  22524010.4854   22524015.5774
  21439111.622   -22858718.03449 -17771285.63549  21439112.6584   21439117.5414
  24550013.357    -5110059.98749  -3968333.61249  24550013.0724   24550020.3324
  22374462.337   -21313050.62949 -16321644.30349  22374464.4264   22374469.5284
  22084875.114    -5187606.26249  -4023458.44749  22084876.4254   22084881.7734
 96  7 10  3  9 30.0010000  0  6 14 25  1 31 21 15
  24900166.512    -7102513.93649  -5517644.55449  24900168.6664   24900172.9544
  22509366.321   -17919214.11549 -13710422.63149  22509367.3654   22509373.1314
  21449092.614   -22806269.49249 -17730416.64149  21449093.4174   21449098.2674
  24565931.513    -5026393.60949  -3903139.09649  24565934.2964   24565941.1144
  22385917.567   -21252856.08749 -16274739.47449  22385919.0134   22385924.7664
  22071816.318    -5256227.67349  -4076929.67049  22071818.3184   22071823.6694
 96  7 10  3 10  0.0010000  0  6 14 25  1 31 21 15
  24884090.482    -7186983.67849  -5583465.09949  24884093.1604   24884101.8834
  22494791.344   -17995803.57649 -13770102.69349  22494792.8414   22494798.1024
  21459131.645   -22753513.00949 -17689307.69249  21459132.7604   21459137.4104
  24581884.585    -4942564.27449  -3837817.60149  24581886.0644   24581894.1514
  22397424.875   -21192383.94549 -16227618.32349  22397426.6314   22397432.0394
  22058847.432    -5324378.71449  -4130034.37349  22058849.3154   22058854.9634
 96  7 10  3 10 30.0010000  0  6 14 25  1 31 21 15
  24868022.781    -7271433.74149  -5649270.27149  24868023.4444   24868028.2684
  22480282.025   -18072048.59349 -13829514.35949  22480284.3484   22480289.1794
  21469227.213   -22700457.59549 -17647965.81149  21469228.7224   21469233.5144
  24597870.021    -4858558.44149  -3772358.55149  24597872.9654   24597878.7674
  22408986.938   -21131627.29549 -16180275.47849  22408987.9864   22408993.1434
  22045969.877    -5392057.49349  -4182771.07849  22045970.3644   22045976.3854
 96  7 10  3 11  0.0010000  0  6 14 25  1 31 21 15
  24851949.035    -7355886.69649  -5715077.74549  24851951.5164   24851958.5764
  22465838.204   -18147953.49949 -13888660.99749  22465839.9624   22465845.2934
  21479376.075   -22647127.89649 -17606410.20349  21479377.1144   21479381.9734
  24613887.162    -4774396.47649  -3706777.85849  24613888.2594   24613894.6764
  22420596.989   -21070613.02349 -16132731.88549  22420598.8694   22420603.8074
  22033177.332    -5459280.46349  -4235152.60749  22033178.4324   22033184.0124
 96  7 10  3 11 30.0010000  0  6 14 25  1 31 21 15
  24835885.497    -7440314.91649  -5780865.88849  24835884.6234   24835892.4054
  22451466.721   -18223479.39249 -13947512.29349  22451467.6534   22451473.1324
  21489580.321   -22593501.46249 -17564623.37049  21489581.8384   21489586.6754
  24629938.888    -4690050.81249  -3641053.99849  24629938.6204   24629945.2924
  22432260.012   -21009325.87249 -16084975.66449  22432260.8494   22432266.9084
  22020476.033    -5526024.07249  -4287160.61149  22020477.5134   22020482.9994
 96  7 10  3 12  0.0010000  0  6 14 25  1 31 21 15
  24819823.532    -7524713.24349  -5846630.75549  24819824.6864   24819832.5334
  22437164.955   -18298634.56949 -14006074.71949  22437166.2404   22437171.7194
  21499842.300   -22539575.76749 -17522603.34549  21499843.6054   21499848.5864
  24646020.123    -4605532.48549  -3575195.60649  24646022.1404   24646028.2654
  22443977.123   -20947755.36749 -16036998.65449  22443977.7644   22443983.3464
  22007866.770    -5592290.07049  -4338796.44649  22007867.6584   22007872.8574
 96  7 10  3 12 30.0010000  0  6 14 25  1 31 21 15
  24803770.538    -7609080.45349  -5912371.34049  24803770.8274   24803776.3524
  22422933.270   -18373413.53849 -14064343.99549  22422936.3964   22422941.7964
  21510164.149   -22485334.16149 -17480337.15749  21510165.4294   21510170.4494
  24662135.428    -4520849.35949  -3509208.78849  24662137.3494   24662144.1814
  22455748.919   -20885895.08949 -15988795.83649  22455749.3864   22455754.8484
  21995348.465    -5658070.67849  -4390054.05549  21995349.6994   21995355.4614
 96  7 10  3 13  0.0010000  0  6 14 25  1 31 21 15
  24787716.433    -7693444.15149  -5978109.27049  24787716.2544   24787723.4794
  22408780.087   -18447794.93749 -14122303.47649  22408781.5284   22408787.2154
  21520546.231   -22430776.81349 -17437824.93849  21520547.2694   21520551.9784
  24678274.146    -4436030.28549  -3443116.05349  24678276.6464   24678283.7814
  22467573.337   -20823752.90749 -15940373.35349  22467574.9394   22467579.9514
  21982922.400    -5723370.37249  -4440936.92549  21982923.6454   21982929.5094
 96  7 10  3 13 30.0010000  0  6 14 25  1 31 21 15
  24771663.621    -7777785.16949  -6043829.44349  24771665.4784   24771674.7674
  22394704.103   -18521761.95349 -14179940.07149  22394706.2684   22394711.3984
  21530992.265   -22375882.50049 -17395050.15049  21530993.1824   21530998.1454
  24694444.035    -4351067.97749  -3376911.69749  24694444.0154   24694451.3054
  22479457.032   -20761307.58449 -15891714.65849  22479457.5524   22479462.6804
  21970591.255    -5788172.03749  -4491431.72549  21970592.6634   21970598.1694
 96  7 10  3 14  0.0010000  0  6 14 25  1 31 21 15
  24755616.415    -7862121.70549  -6109546.17649  24755618.3304   24755624.2074
  22380705.332   -18595331.25649 -14237266.76049  22380706.5834   22380711.6304
  21541498.935   -22320670.64649 -17352027.92349  21541499.6964   21541504.6384
  24710631.430    -4265991.37649  -3310618.27549  24710635.1614   24710641.6724
  22491394.817   -20698566.40949 -15842825.43549  22491397.0284   22491402.4634
  21958352.527    -5852487.85749  -4541547.94149  21958353.4344   21958359.0394
 96  7 10  3 14 30.0010000  0  6 14 25  1 31 21 15
  24739571.457    -7946437.49349  -6175246.68549  24739572.8394   24739581.7014
  22366786.221   -18668478.35849 -14294264.46149  22366786.9834   22366792.2404
  21552064.913   -22265142.53449 -17308759.26649  21552066.2594   21552071.0754
  24726844.596    -4180803.21249  -3244237.92849  24726845.0854   24726851.2184
  22503390.590   -20635530.20149 -15793706.31249  22503392.1844   22503396.7544
  21946207.044    -5916313.61849  -4591282.29349  21946208.1474   21946213.4104
 96  7 10  3 15  0.0010000  0  6 14 25  1 31 21 15
  24723531.992    -8030723.12449  -6240923.72049  24723533.1594   24723541.6994
  22352947.584   -18741198.94749 -14350929.81049  22352948.7084   22352954.1194
  21562689.627   -22209314.01549 -17265256.52549  21562690.2474   21562695.2354
  24743075.471    -4095503.06549  -3177770.28849  24743077.3294   24743084.0804
  22515442.471   -20572198.79849 -15744357.17649  22515443.6624   22515448.9804
  21934153.784    -5979652.63349  -4640637.35949  21934155.1484   21934160.8394
 96  7 10  3 15 30.0010000  0  6 14 25  1 31 21 15
  24707503.153    -8114958.24049  -6306561.40449  24707504.9004   24707512.1694
  22339186.929   -18813512.16949 -14407277.73449  22339188.1034   22339193.2744
  21573367.071   -22153202.07349 -17221532.93349  21573367.9244   21573372.9934
  24759331.850    -4010082.35749  -3111208.74049  24759331.8694   24759338.9714
  22527549.300   -20508575.96149 -15694780.95049  22527550.9724   22527556.6754
  21922193.427    -6042502.54849  -4689611.31149  21922194.9394   21922200.6014
 96  7 10  3 16  0.0010000  0  6 14 25  1 31 21 15
  24691486.814    -8199140.97849  -6372158.29349  24691485.7424   24691491.5474
  22325503.462   -18885412.78149 -14463304.14849  22325505.6064   22325510.5074
  21584095.920   -22096816.08949 -17177595.80249  21584097.6904   21584102.8894
  24775612.794    -3924529.18749  -3044543.99049  24775612.0504   24775619.7974
  22539712.427   -20444660.24749 -15644976.49649  22539713.4944   22539719.4304
  21910328.572    -6104853.75749  -4738196.66249  21910329.7864   21910335.5514
 96  7 10  3 16 30.0010000  0  6 14 25  1 31 21 15
  24675472.969    -8283276.25249  -6437718.15249  24675474.9734   24675480.4524
  22311901.156   -18956897.01249 -14519006.10949  22311902.6964   22311907.7274
  21594878.143   -22040156.81349 -17133445.71449  21594879.6194   21594884.6794
  24791916.117    -3838836.17849  -2977770.26349  24791919.6714   24791927.0564
  22551928.020   -20380463.30949 -15594952.91849  22551929.8534   22551935.1484
  21898560.552    -6166698.57849  -4786387.42249  21898561.4354   21898566.9984
 96  7 10  3 17  0.0010000  0  6 14 25  1 31 21 15
  24659466.064    -8367401.27949  -6503270.08849  24659465.5454   24659473.3264
  22298370.846   -19027997.11249 -14574408.74649  22298373.0664   22298377.9634
  21605708.637   -21983245.26049 -17089099.04949  21605709.6824   21605714.6234
  24808250.739    -3753012.54249  -2910894.77549  24808250.8944   24808258.1884
  22564192.466   -20316012.47749 -15544731.49749  22564194.2724   22564200.0604
  21886885.490    -6228047.18049  -4834191.51049  21886886.7744   21886892.2654
 96  7 10  3 17 30.0010000  0  6 14 25  1 31 21 15
  24643458.354    -8451517.39749  -6568815.02549  24643459.9094   24643465.7694
  22284915.802   -19098705.99949 -14629506.54249  22284917.3204   22284922.1054
  21616588.785   -21926069.02249 -17044546.13549  21616589.7634   21616594.6914
  24824607.348    -3667058.72149  -2843917.83749  24824606.9654   24824614.9444
  22576506.919   -20251307.82549 -15494312.28849  22576507.5244   22576512.9164
  21875308.667    -6288884.46449  -4881597.17349  21875310.0504   21875315.3834
 96  7 10  3 18  0.0010000  0  6 14 25  1 31 21 15
  24627447.223    -8535648.60049  -6634371.75149  24627449.5234   24627456.2284
  22271534.974   -19169024.65349 -14684300.26949  22271536.3714   22271541.1624
  21627521.217   -21868620.16149 -16999780.78649  21627522.1794   21627526.7584
  24840983.427    -3580991.01249  -2776852.15249  24840985.1904   24840994.0074
  22588866.052   -20186355.04649 -15443699.74049  22588867.3014   22588872.8414
  21863826.985    -6349220.65849  -4928612.37349  21863828.5354   21863833.8984
 96  7 10  3 18 30.0010000  0  6 14 25  1 31 21 15
  24611438.947    -8619780.27449  -6699928.82449  24611440.0394   24611446.0494
  22258228.187   -19238947.75149 -14738785.75949  22258230.1834   22258235.2324
  21638507.813   -21810882.35249 -16954790.28649  21638509.2964   21638513.8644
  24857382.902    -3494815.20949  -2709702.24049  24857384.3554   24857392.0704
  22601273.503   -20121154.15749 -15392893.86449  22601274.9294   22601280.4584
  21852442.438    -6409050.14949  -4975232.73849  21852443.4584   21852448.8054
 96  7 10  3 19  0.0010000  0  6 14 25  1 31 21 15
  24595436.166    -8703886.80049  -6765466.32749  24595435.8074   24595441.1554
  22245001.907   -19308458.83149 -14792950.19749  22245002.6014   22245007.8714
  21649553.290   -21752838.85449 -16909561.58549  21649554.4464   21649559.1994
  24873804.691    -3408525.57049  -2642463.63249  24873804.9954   24873813.2674
  22613732.268   -20055683.33949 -15341877.64849  22613733.2834   22613739.3204
  21841155.846    -6468358.49349  -5021447.01249  21841157.3774   21841162.8394
 96  7 10  3 19 30.0010000  0  6 14 25  1 31 21 15
  24579437.603    -8787950.07549  -6830970.10149  24579439.1464   24579445.1634
  22231852.564   -19377555.66749 -14846791.85449  22231853.9744   22231858.8414
  21660656.800   -21694486.40849 -16864092.14649  21660658.4554   21660663.2884
  24890244.781    -3322125.11249  -2575138.68249  24890245.6654   24890254.1434
  22626243.262   -19989933.87649 -15290644.30949  22626245.1734   22626250.9704
  21829968.609    -6527150.64749  -5067259.06049  21829969.4614   21829974.7274
 96  7 10  3 20  0.0010000  0  6 14 25  1 31 21 15
  24563451.517    -8871954.61749  -6896428.13749  24563451.6264   24563458.4914
  22218781.801   -19446243.79349 -14900315.03649  22218782.8314   22218787.9194
  21671818.327   -21635832.74949 -16818387.99449  21671819.8694   21671824.7984
  24906710.342    -3235607.50249  -2507722.41949  24906710.3924   24906717.8034
  22638809.670   -19923901.66649 -15239190.65049  22638810.6994   22638816.4154
  21818878.695    -6585426.17449  -5112668.53749  21818879.9814   21818885.4474
 96  7 10  3 20 30.0010000  0  6 14 25  1 31 21 15
  24547479.345    -8955894.66049  -6961835.92849  24547480.0654   24547484.9384
  22205788.220   -19514522.81349 -14953519.42949  22205789.9234   22205794.6524
  21683034.427   -21576896.25349 -16772463.45149  21683035.1064   21683040.0504
  24923194.888    -3148973.47849  -2440215.45949  24923196.6324   24923204.3924
  22651427.721   -19857590.63849 -15187519.72749  22651429.1834   22651435.1934
  21807887.907    -6643182.30949  -5157673.29249  21807889.2734   21807894.5994
 96  7 10  3 21  0.0010000  0  6 14 25  1 31 21 15
  24531519.307    -9039766.07149  -7027190.21049  24531519.8734   24531525.6534
  22192875.146   -19582373.86849 -15006390.33849  22192878.2274   22192882.8594
  21694305.117   -21517663.50249 -16726308.05949  21694306.7874   21694311.6274
  24939704.978    -3062206.34849  -2372604.77549  24939707.8224   24939715.4134
  22664103.626   -19790981.57149 -15135616.56949  22664104.3404   22664110.6604
  21796998.626    -6700406.48849  -5202263.54049  21796999.9114   21797005.4384
 96  7 10  3 21 30.0010000  0  6 14 25  1 31 21 15
  24515569.641    -9123582.18949  -7092501.42849  24515569.9874   24515574.6724
  22180046.997   -19649796.88849 -15058927.72149  22180047.8574   22180052.8724
  21705633.511   -21458137.97849 -16679924.53549  21705634.0004   21705639.0584
  24956241.164    -2975320.30449  -2304901.43649  24956241.9624   24956248.0094
  22676833.272   -19724084.43749 -15083488.94149  22676834.7264   22676840.6294
  21786209.753    -6757104.85149  -5246444.05949  21786210.8864   21786216.0634
 96  7 10  3 22  0.0010000  0  6 14 25  1 31 21 15
  24499624.822    -9207360.35749  -7157783.07749  24499626.3434   24499633.5664
  22167295.899   -19716796.16149 -15111134.91349  22167298.4764   22167303.3344
  21717014.142   -21398329.23949 -16633320.31949  21717015.2234   21717020.1694
  24972793.352    -2888336.17649  -2237121.69449  24972795.4084   24972801.5094
  22689617.355   -19656906.96949 -15031142.88149  22689617.7964   22689623.6294
  21775519.814    -6813279.16749  -5290216.22549  21775520.7764   21775526.4674
 96  7 10  3 22 30.0010000  0  6 14 25  1 31 21 15
  24483687.422    -9291117.25749  -7223048.14949  24483689.3034   24483694.9864
  22154629.739   -19783364.76449 -15163006.51549  22154630.7754   22154635.9554
  21728451.558   -21338225.04249 -16586485.88149  21728452.9014   21728457.5334
  24989362.084    -2801265.88049  -2169274.79449  24989363.7034   24989370.5814
  22702454.627   -19589444.32949 -14978574.60349  22702455.8074   22702461.1524
  21764929.979    -6868925.60649  -5333577.06549  21764931.8474   21764937.1684
 96  7 10  3 23  0.0010000  0  6 14 25  1 31 21 15
  24467753.397    -9374854.85149  -7288298.18249  24467753.7644   24467760.8264
  22142043.677   -19849499.30549 -15214539.88949  22142045.6684   22142050.5144
  21739944.684   -21277829.28249 -16539424.25149  21739945.8214   21739950.4554
  25005946.564    -2714123.20149  -2101371.45449  25005946.7734   25005952.4254
  22715345.437   -19521700.26949 -14925787.02349  22715347.1474   22715352.5574
  21754441.768    -6924042.52349  -5376525.29349  21754442.8624   21754448.7704
 96  7 10  3 23 30.0010000  0  6 14 25  1 31 21 15
  24451822.450    -9458569.12549  -7353530.04349  24451824.1454   24451829.8854
  22129540.092   -19915207.87649 -15265741.34149  22129541.6624   22129546.7254
  21751488.355   -21217167.25149 -16492155.13749  21751489.2844   21751494.0154
  25022538.412    -2626923.81749  -2033423.95449  25022538.7534   25022546.4624
  22728291.232   -19453667.47449 -14872774.45949  22728292.8774   22728298.3204
  21744055.064    -6978624.89249  -5419056.99349  21744056.2474   21744061.8674
 96  7 10  3 24  0.0010000  0  6 14 25  1 31 21 15
  24435894.821    -9542268.70849  -7418750.47449  24435895.6334   24435901.2204
  22117116.055   -19980500.83949 -15316618.94549  22117116.9364   22117121.6284
  21763077.862   -21156263.22349 -16444697.45349  21763078.9594   21763083.6094
  25039141.827    -2539672.50749  -1965435.99149  25039143.5754   25039150.4184
  22741293.643   -19385348.93149 -14819539.23949  22741294.0424   22741299.2384
  21733769.356    -7032679.07949  -5461177.12249  21733770.3434   21733775.7984
 96  7 10  3 24 30.0010000  0  6 14 25  1 31 21 15
  24419972.799    -9625938.06849  -7483947.38049  24419973.4784   24419980.8574
  22104775.499   -20045347.78349 -15367148.99849  22104777.1624   22104781.7964
  21774711.889   -21095122.16349 -16397055.06349  21774713.6954   21774718.4874
  25055756.712    -2452360.31649  -1897400.58749  25055757.7064   25055765.7424
  22754349.067   -19316737.18349 -14766075.53749  22754350.0584   22754355.9564
  21723586.140    -7086191.59949  -5502875.17349  21723587.3934   21723592.8554
 96  7 10  3 25  0.0010000  0  6 14 25  1 31 21 15
  24404059.899    -9709560.60349  -7549107.76449  24404060.4814   24404067.1334
  22092522.508   -20109742.42049 -15417326.60249  22092522.9384   22092528.2384
  21786388.618   -21033762.27549 -16349242.16149  21786389.9704   21786394.8864
  25072383.512    -2364988.39049  -1829318.64149  25072384.1064   25072390.9014
  22767459.277   -19247834.58449 -14712385.21349  22767462.3054   22767466.9934
  21713506.218    -7139161.18849  -5544150.16849  21713507.3644   21713513.3044
 96  7 10  3 25 30.0010000  0  6 14 25  1 31 21 15
  24388154.697    -9793142.28949  -7614236.33049  24388156.9084   24388161.1274
  22080352.547   -20173693.93949 -15467158.91849  22080353.6934   22080358.7234
  21798105.630   -20972189.66449 -16301263.50449  21798107.0454   21798111.7354
  25089019.590    -2277562.51649  -1761194.65449  25089021.4614   25089026.6554
  22780625.717   -19178652.86849 -14658477.38549  22780626.7524   22780632.5064
  21703528.782    -7191595.82649  -5585008.32149  21703529.6274   21703535.3614
 96  7 10  3 26  0.0010000  0  6 14 25  1 31 21 15
  24372258.573    -9876675.87149  -7679327.42449  24372260.9534   24372266.3644
  22068270.633   -20237185.32949 -15516632.69749  22068271.7244   22068276.1744
  21809866.116   -20910388.43949 -16253106.70349  21809867.0254   21809872.2214
  25105669.562    -2190071.73549  -1693020.08349  25105669.8504   25105676.8124
  22793841.017   -19109210.18849 -14604366.20949  22793841.5044   22793846.8614
  21693653.002    -7243490.26549  -5625445.54249  21693654.2784   21693660.0274
 96  7 10  3 26 30.0010000  0  6 14 25  1 31 21 15
  24356372.010    -9960162.76849  -7744382.11049  24356372.9924   24356378.8144
  22056275.086   -20300218.02249 -15565749.04349  22056276.7284   22056281.4784
  21821671.901   -20848349.10149 -16204764.36049  21821672.9724   21821678.0704
  25122329.620    -2102524.20749  -1624801.32749  25122330.5834   25122335.9764
  22807103.717   -19039513.95849 -14550057.46449  22807104.0764   22807109.7764
  21683881.770    -7294841.60649  -5665459.57249  21683882.5784   21683888.6684
 96  7 10  3 27  0.0010000  0  6 14 25  1 31 21 15
  24340492.257   -10043609.90749  -7809405.84249  24340492.9514   24340500.3134
  22044363.125   -20362818.92249 -15614528.93149  22044364.1584   22044369.1314
  21833525.562   -20786059.11349 -16156226.70549  21833525.9844   21833531.3864
  25138998.683    -2014919.85849  -1556538.27549  25139000.7264   25139009.1004
  22820413.801   -18969569.78049 -14495555.50849  22820414.2544   22820419.8364
  21674212.411    -7345652.69049  -5705052.62849  21674213.3384   21674219.3964
 96  7 10  3 27 30.0010000  0  6 14 25  1 31 21 15
  24324617.615   -10127035.93649  -7874413.10549  24324617.7634   24324624.9854
  22032530.092   -20424999.39249 -15662981.20549  22032531.6294   22032536.4054
  21845426.660   -20723516.93349 -16107492.53649  21845427.5724   21845432.7924
  25155678.719    -1927269.21349  -1488239.11049  25155679.2094   25155685.3534
  22833768.073   -18899390.04749 -14440870.00749  22833768.9064   22833774.8744
  21664644.660    -7395929.07949  -5744229.03349  21664646.3754   21664652.1374
 96  7 10  3 28  0.0010000  0  7 14 25 29  1 31 21 15
  24308746.654   -10210436.38949  -7939400.43049  24308747.8384   24308753.9444
  22020781.022   -20486745.72349 -15711095.19649  22020781.8204   22020786.3854
  25300460.415    -2176516.42559  -1685014.29659  25300462.7414   25300468.9544
  21857379.991   -20660700.35749 -16058544.55549  21857381.2994   21857386.3394
  25172369.354    -1839558.19449  -1419892.94049  25172370.0804   25172378.5014
  22847171.767   -18828950.45949 -14385982.02349  22847173.2134   22847178.4174
  21655183.050    -7445654.67749  -5782976.25349  21655183.7094   21655189.7684
 96  7 10  3 28 30.0010000  0  7 14 25 29  1 31 21 15
  24292877.155   -10293829.93049  -8004382.40049  24292879.5084   24292885.0254
  22009111.182   -20548067.40049 -15758878.28449  22009112.4374   22009117.2174
  25283997.791    -2263028.09349  -1752425.90649  25283999.8494   25284006.2604
  21869386.214   -20597611.50949 -16009384.41149  21869386.7654   21869391.9064
  25189070.947    -1751795.59949  -1351506.56949  25189070.1874   25189078.0044
  22860629.122   -18758231.38349 -14330876.25849  22860630.3874   22860636.2524
  21645824.045    -7494832.38349  -5821296.54049  21645825.2854   21645831.1594
 96  7 10  3 29  0.0010000  0  7 14 25 29  1 31 21 15
  24277011.981   -10377202.30549  -8069347.83449  24277012.8384   24277019.2564
  21997526.532   -20608951.08449 -15806320.08649  21997526.9354   21997531.3054
  25267559.682    -2349408.80649  -1819735.46349  25267561.4074   25267569.7104
  21881441.445   -20534258.19849 -15960018.19449  21881442.6294   21881447.7274
  25205782.583    -1663978.25249  -1283077.53549  25205782.3494   25205789.7044
  22874141.352   -18687225.66149 -14275547.12649  22874142.6464   22874148.0984
  21636571.490    -7543457.63549  -5859186.35449  21636572.2054   21636578.1944
 96  7 10  3 29 30.0010000  0  7 14 25 29  1 31 21 15
  24261154.198   -10460539.22649  -8134285.67549  24261154.7924   24261160.3574
  21986028.249   -20669370.56649 -15853400.16349  21986029.2224   21986033.7564
  25251146.060    -2435658.20849  -1886942.66449  25251148.2754   25251155.3624
  21893548.232   -20470639.44249 -15910445.13749  21893548.6784   21893553.7654
  25222502.159    -1576109.84149  -1214608.69449  25222503.3324   25222510.9394
  22887710.372   -18615921.78549 -14219985.67149  22887711.7534   22887716.7754
  21627424.888    -7591521.15049  -5896638.44449  21627426.1714   21627432.0924
 96  7 10  3 30  0.0010000  0  7 14 25 29  1 31 21 15
  24245301.565   -10543840.64449  -8199195.82249  24245303.5564   24245309.2314
  21974619.226   -20729321.87849 -15900115.43349  21974620.7684   21974625.0604
  25234758.513    -2521784.36549  -1954053.86049  25234759.3144   25234766.6434
  21905702.411   -20406765.08949 -15860672.91149  21905703.8154   21905708.7954
  25239233.108    -1488193.17149  -1146102.21749  25239233.2984   25239239.8754
  22901335.245   -18544323.81949 -14164195.05849  22901336.0994   22901341.0184
  21618385.913    -7639025.10449  -5933654.51349  21618386.6404   21618392.2984
 96  7 10  3 30 30.0010000  0  7 14 25 29  1 31 21 15
  24229459.544   -10627090.35049  -8264065.69049  24229460.7524   24229468.2864
  21963299.840   -20788807.06749 -15946467.49949  21963301.0384   21963305.5754
  25218392.067    -2607783.10349  -2021065.74249  25218393.4504   25218401.6294
  21917901.564   -20342660.23349 -15810721.07749  21917902.4104   21917907.4334
  25255968.703    -1400241.63349  -1077568.60349  25255969.1854   25255976.7954
  22915010.668   -18472453.83449 -14108192.48949  22915011.9404   22915017.4724
  21609451.296    -7685974.02449  -5970238.08349  21609452.5544   21609458.0944
 96  7 10  3 31  0.0010000  0  6 14 25 29  1 21 15
  24213631.601   -10710265.19749  -8328877.23049  24213634.0814   24213639.9264
  21952069.832   -20847817.05949 -15992449.28349  21952072.2754   21952076.3324
  25202056.545    -2693632.09049  -2087960.93649  25202057.4364   25202064.9434
  21930143.882   -20278326.33249 -15760590.76849  21930144.9134   21930149.8484
  22928736.233   -18400327.49249 -14051990.16249  22928737.4164   22928743.5704
  21600624.131    -7732359.79049  -6006382.83949  21600625.5064   21600631.3724
 96  7 10  3 31 30.0010000  0  6 14 25 29  1 21 15
  24197813.914   -10793389.57249  -8393649.43449  24197815.1294   24197821.3434
  21940929.408   -20906362.53849 -16038069.10749  21940931.2214   21940935.5924
  25185749.819    -2779325.00649  -2154734.52949  25185750.1014   25185757.5074
  21942429.019   -20213768.94149 -15710286.30649  21942429.8594   21942434.5344
  22942506.680   -18327958.24949 -13995598.55849  22942508.4584   22942514.4024
  21591904.249    -7778186.54449  -6042091.99549  21591905.1064   21591910.8714
 96  7 10  3 32  0.0010000  0  6 14 25 29  1 21 15
  24182003.857   -10876471.65049  -8458388.66949  24182004.5344   24182011.1464
  21929878.082   -20964439.91949 -16083324.17449  21929879.7714   21929883.7934
  25169472.704    -2864852.72749  -2221379.36049  25169476.4234   25169482.6754
  21954754.705   -20148995.89449 -15659813.80249  21954755.6594   21954760.4854
  22956325.520   -18255344.34949 -13939016.32149  22956326.4644   22956332.7004
  21583291.797    -7823445.53949  -6077358.74249  21583292.4084   21583298.2124
 96  7 10  3 32 30.0010000  0  6 14 25 29  1 21 15
  24166201.730   -10959506.75749  -8523091.31549  24166204.4894   24166210.7464
  21918917.202   -21022040.97549 -16128208.07949  21918918.2964   21918922.8044
  25153233.070    -2950197.52249  -2287881.69149  25153234.8124   25153241.5684
  21967123.438   -20084002.31749 -15609169.45649  21967123.4724   21967128.0514
  22970191.349   -18182475.38749 -13882235.32549  22970193.4884   22970198.9474
  21574788.669    -7868129.25249  -6112177.21549  21574789.6484   21574795.0934
 96  7 10  3 33  0.0010000  0  6 14 25 29  1 21 15
  24150402.998   -11042534.05749  -8587787.87449  24150404.5654   24150410.8964
  21908043.489   -21079182.49349 -16172733.90149  21908044.3044   21908048.9534
  25137020.977    -3035388.26249  -2354263.97849  25137023.4754   25137030.2074
  21979529.491   -20018800.56349 -15558362.89249  21979530.8354   21979535.7664
  22984105.182   -18109365.79349 -13825266.82949  22984105.6634   22984110.5384
  21566390.205    -7912258.19749  -6146563.40749  21566391.8844   21566397.4984
 96  7 10  3 33 30.0010000  0  6 14 25 29  1 21 15
  24134606.679   -11125540.44249  -8652468.13449  24134608.7684   24134614.7704
  21897260.001   -21135847.58549 -16216888.48749  21897261.6374   21897265.9394
  25120840.545    -3120420.76849  -2420522.94749  25120842.4154   25120849.0824
  21991981.073   -19953367.12749 -15507375.79949  21991982.3834   21991987.3124
  22998069.823   -18035977.20149 -13768080.92449  22998070.8974   22998076.3864
  21558102.936    -7955810.01249  -6180499.88049  21558104.3274   21558109.7144
 96  7 10  3 34  0.0010000  0  6 14 25 29  1 21 15
  24118819.394   -11208511.48849  -8717120.84249  24118820.7364   24118826.0324
  21886567.257   -21192038.26649 -16260673.40349  21886568.6614   21886573.4134
  25104690.047    -3205294.85449  -2486658.47649  25104691.1734   25104697.0354
  22004477.841   -19887697.02149 -15456204.29149  22004479.1394   22004484.1324
  23012088.063   -17962311.30849 -13710678.95049  23012088.9124   23012094.5584
  21549924.600    -7998788.04849  -6213989.25349  21549926.0834   21549931.4714
 96  7 10  3 34 30.0010000  0  6 14 25 29  1 21 15
  24103039.136   -11291425.51449  -8781729.13749  24103042.6404   24103048.3024
  21875963.780   -21247757.49149 -16304090.94949  21875965.5574   21875970.3054
  25088569.896    -3290002.38249  -2552664.24749  25088570.9904   25088577.9374
  22017022.885   -19821773.62649 -15404835.41249  22017023.9044   22017028.9664
  23026159.848   -17888363.04049 -13653056.94749  23026160.8654   23026166.4424
  21541856.980    -8041186.77249  -6247027.21849  21541857.5704   21541863.2824
 96  7 10  3 35  0.0010000  0  6 14 25 29  1 21 15
  24087272.442   -11374289.52349  -8846298.45649  24087273.4534   24087279.4144
  21865447.860   -21303023.16649 -16347155.08349  21865448.4794   21865453.3984
  25072477.996    -3374564.16749  -2618556.44249  25072479.3644   25072487.3504
  22029613.906   -19755605.97349 -15353276.20649  22029614.9114   22029620.1834
  23040283.681   -17814139.79749 -13595220.67049  23040286.0974   23040290.3684
  21533897.790    -8083012.01249  -6279618.31449  21533898.6274   21533904.2954
 96  7 10  3 35 30.0010000  0  6 14 25 29  1 21 15
  24071513.977   -11457099.60249  -8910825.73049  24071515.7774   24071520.5974
  21855015.924   -21357841.37049 -16389870.53449  21855017.1834   21855021.8374
  25056414.484    -3458976.02249  -2684331.84349  25056417.0084   25056423.4584
  22042248.661   -19689208.82349 -15301538.16449  22042250.1144   22042254.9664
  23054461.389   -17739642.64349 -13537170.95049  23054461.9554   23054466.6864
  21526047.458    -8124265.95949  -6311764.23849  21526048.2574   21526053.9224
 96  7 10  3 36  0.0010000  0  6 14 25 29  1 21 15
  24055769.142   -11539832.94449  -8975293.23749  24055771.5654   24055778.0014
  21844673.420   -21412190.80349 -16432220.71749  21844675.0744   21844679.4974
  25040383.964    -3543224.43249  -2749979.88449  25040385.0854   25040391.3984
  22054926.776   -19622587.54949 -15249625.48649  22054927.9614   22054932.7144
  23068687.076   -17664875.88849 -13478911.14849  23068689.2374   23068694.9664
  21518308.507    -8164937.24349  -6343456.14549  21518308.9174   21518314.3324
 96  7 10  3 36 30.0010000  0  6 14 25 29  1 21 15
  24040040.692   -11622489.30249  -9039700.73949  24040042.8974   24040048.4114
  21834422.321   -21466063.33549 -16474199.28949  21834423.6024   21834427.9374
  25024380.419    -3627316.30849  -2815505.99949  25024382.9924   25024388.3374
  22067643.451   -19555760.55349 -15197552.50149  22067644.4114   22067649.1614
  23082971.676   -17589821.23449 -13420427.01249  23082971.7114   23082976.8244
  21510679.892    -8205023.41549  -6374692.11849  21510680.7254   21510686.1814
 96  7 10  3 37  0.0010000  0  6 14 25 29  1 21 15
  24024321.611   -11705092.34249  -9104066.69049  24024323.5914   24024329.8424
  21824260.066   -21519461.35049 -16515808.10549  21824261.7974   21824266.5634
  25008405.892    -3711265.96249  -2880921.26349  25008406.7364   25008414.6364
  22080392.409   -19488763.09649 -15145346.69749  22080393.6884   22080398.6734
  23097304.190   -17514492.86049 -13361729.58949  23097306.3954   23097311.3104
  21503160.521    -8244538.14149  -6405482.81249  21503161.2584   21503166.6164
 96  7 10  3 37 30.0010000  0  6 14 25 29  1 21 15
  24008616.468   -11787630.18449  -9168381.84249  24008617.0334   24008624.2774
  21814192.790   -21572367.22349 -16557033.43449  21814194.2364   21814198.7754
  24992461.739    -3795050.98049  -2946208.26949  24992462.7304   24992469.9934
  22093176.734   -19421585.17249 -15093000.26349  22093177.1964   22093182.1324
  23111693.066   -17438883.30749 -13302813.07549  23111694.2004   23111699.6024
  21495751.927    -8283467.06949  -6435817.03649  21495753.2384   21495758.9484
 96  7 10  3 38  0.0010000  0  6 14 25 29  1 21 15
  23992921.727   -11870109.28049  -9232651.22349  23992921.8774   23992927.7044
  21804219.559   -21624779.05549 -16597873.80149  21804220.4614   21804225.1784
  24976549.419    -3878680.77749  -3011374.32749  24976549.1774   24976555.5444
  22105995.100   -19354220.95949 -15040508.67349  22105996.0344   22106001.2474
  23126134.425   -17362995.31449 -13243679.58449  23126135.2434   23126140.4374
  21488456.103    -8321809.35249  -6465694.13349  21488457.0414   21488462.6874
 96  7 10  3 38 30.0010000  0  6 14 25 29  1 21 15
  23977234.530   -11952541.41049  -9296883.99149  23977235.2974   23977240.7354
  21794340.247   -21676691.85449 -16638325.30449  21794342.0984   21794346.3244
  24960666.227    -3962142.87449  -3076409.69049  24960666.9644   24960673.9264
  22118853.617   -19286648.45049 -14987854.77149  22118854.7484   22118859.8714
  23140632.793   -17286816.78649 -13184319.70549  23140631.2554   23140637.3514
  21481273.748    -8359552.25449  -6495104.17749  21481274.7064   21481280.7184
 96  7 10  3 39  0.0010000  0  6 14 25 29  1 21 15
  23961551.550   -12034952.43349  -9361100.32349  23961552.4184   23961559.6184
  21784551.717   -21728130.44749 -16678407.30049  21784553.4624   21784558.3004
  24944811.744    -4045456.63349  -3141329.49249  24944813.5094   24944819.3874
  22131749.787   -19218877.66249 -14935046.37049  22131751.0194   22131756.2844
  23155173.550   -17210390.46749 -13124766.75049  23155175.2734   23155180.4244
  21474202.521    -8396708.93349  -6524057.43749  21474204.2104   21474209.6464
 96  7 10  3 39 30.0010000  0  6 14 25 29  1 21 15
  23945873.898   -12117338.63849  -9425297.29749  23945875.1874   23945881.3624
  21774853.163   -21779097.40249 -16718121.78149  21774854.5814   21774859.4094
  24928984.420    -4128629.10449  -3206139.17949  24928987.0614   24928991.4814
  22144685.529   -19150901.96849 -14882078.30449  22144686.3794   22144691.6044
  23169763.695   -17133723.99749 -13065026.64449  23169764.3204   23169770.0244
  21467244.082    -8433280.85949  -6552555.03149  21467244.8094   21467250.3104
 96  7 10  3 40  0.0010000  0  6 14 25 29  1 21 15
  23930202.550   -12199691.56849  -9489468.37549  23930204.1274   23930209.9824
  21765245.937   -21829581.19449 -16757459.77649  21765247.8474   21765252.8354
  24913181.822    -4211666.62349  -3270843.71449  24913183.3594   24913190.6314
  22157659.141   -19082723.95349 -14828952.58349  22157660.3104   22157665.2104
  23184400.211   -17056817.52549 -13005099.53549  23184399.2604   23184404.7974
  21460395.816    -8469265.86249  -6580595.29349  21460396.8654   21460402.7344
 96  7 10  3 40 30.0010000  0  6 14 25 29  1 21 15
  23914539.689   -12282004.53349  -9553608.30149  23914540.1954   23914545.7084
  21755729.836   -21879591.08749 -16796428.49249  21755731.0164   21755736.0464
  24897405.909    -4294566.70349  -3335441.11849  24897408.7664   24897416.3384
  22170669.959   -19014352.22849 -14775675.92149  22170670.9324   22170676.2384
  23199077.269   -16979683.06249 -12944994.77249  23199077.2264   23199082.7734
  21453659.634    -8504665.14949  -6608179.15149  21453660.5874   21453666.2794
 96  7 10  3 41  0.0010000  0  6 14 25 29  1 21 15
  23898890.456   -12364240.85949  -9617688.50149  23898890.6444   23898897.5664
  21746306.737   -21929109.65749 -16835014.36349  21746308.1034   21746312.9014
  24881661.851    -4377311.08849  -3399917.21749  24881662.3674   24881670.1004
  22183721.651   -18945763.34949 -14722230.04549  22183723.1514   22183728.0004
  23213801.463   -16902304.46449 -12884699.77949  23213801.7524   23213807.5954
  21447038.924    -8539458.28949  -6635290.67849  21447039.8424   21447045.1524
 96  7 10  3 41 30.0010000  0  6 14 25 29  1 21 15
  23883255.115   -12446402.10249  -9681710.20949  23883256.8634   23883263.6034
  21736976.799   -21978136.20749 -16873216.83949  21736978.6574   21736983.3094
  24865942.814    -4459912.31249  -3464281.70849  24865944.3664   24865951.9024
  22196816.486   -18876952.05049 -14668610.86049  22196817.5674   22196822.1484
  23228573.288   -16824678.80349 -12824212.26949  23228573.5404   23228579.5974
  21440531.490    -8573655.53349  -6661937.87949  21440532.1184   21440537.6844
 96  7 10  3 42  0.0010000  0  6 14 25 29  1 21 15
  23867630.636   -12528512.17149  -9745692.05649  23867631.5644   23867637.2544
  21727739.200   -22026681.24049 -16911044.11049  21727740.6614   21727745.3094
  24850249.183    -4542387.64449  -3528548.12349  24850249.6004   24850256.1824
  22209951.716   -18807926.78749 -14614824.94349  22209952.6354   22209957.5054
  23243388.845   -16746820.69549 -12763543.64049  23243389.6374   23243395.2534
  21434134.316    -8607268.22349  -6688129.57949  21434135.6554   21434141.3064
 96  7 10  3 42 30.0010000  0  6 14 25 29  1 21 15
  23852016.937   -12610562.48049  -9809627.31149  23852018.7624   23852022.8394
  21718595.260   -22074731.61549 -16948485.93949  21718597.2134   21718601.9014
  24834580.259    -4624714.74249  -3592699.02349  24834582.6464   24834589.2474
  22223128.902   -18738680.03449 -14560866.44449  22223129.8204   22223134.6674
  23258250.852   -16668714.07749 -12702681.34949  23258253.3194   23258258.4114
  21427852.840    -8640281.80049  -6713854.44149  21427853.7534   21427859.1244
 96  7 10  3 43  0.0010000  0  6 14 25 29  1 21 15
  23836413.418   -12692556.67449  -9873518.84649  23836415.3404   23836420.2364
  21709548.707   -22122269.98149 -16985528.80049  21709550.8094   21709555.3264
  24818943.043    -4706894.11249  -3656734.82649  24818945.5434   24818951.4154
  22236346.829   -18669216.94849 -14506739.37149  22236348.3694   22236353.2354
  23273163.762   -16590348.54149 -12641617.31549  23273165.3864   23273171.2444
  21421684.508    -8672694.22249  -6739110.87149  21421685.7724   21421691.5684
 96  7 10  3 43 30.0010000  0  6 14 25 29  1 21 15
  23820820.816   -12774497.48749  -9937368.79149  23820821.4804   23820827.1504
  21700602.384   -22169286.23049 -17022164.81649  21700603.9114   21700608.5624
  24803335.688    -4788919.27249  -3720650.45049  24803336.5774   24803342.2704
  22249602.614   -18599557.84249 -14452459.55249  22249604.0754   22249608.9394
  23288127.889   -16511720.89449 -12580349.04449  23288128.1714   23288133.5824
  21415631.603    -8704505.89049  -6763899.18049  21415632.2564   21415637.9294
 96  7 10  3 44  0.0010000  0  6 14 25 29  1 21 15
  23805240.519   -12856369.98849 -10001165.50949  23805241.2954   23805247.8464
  21691754.215   -22215782.87849 -17058395.94449  21691755.9064   21691760.5434
  24787759.446    -4870758.22649  -3784420.96949  24787762.3064   24787768.6624
  22262890.056   -18529733.03449 -14398050.61449  22262891.3194   22262895.9844
  23303137.901   -16432829.33549 -12518875.11749  23303139.9204   23303145.5764
  21409693.324    -8735710.55249  -6788214.49549  21409694.4004   21409699.8964
 96  7 10  3 44 30.0010000  0  6 14 25 29  1 21 15
  23789677.677   -12938156.11949 -10064894.93049  23789679.3414   23789683.9284
  21683002.771   -22261769.92749 -17094229.98949  21683005.0774   21683009.5804
  24772224.830    -4952392.57249  -3848032.05049  24772227.8844   24772235.3954
  22276209.219   -18459740.45349 -14343510.94749  22276210.2674   22276214.9864
  23318202.517   -16353668.55549 -12457191.41149  23318204.2874   23318209.8954
  21403871.502    -8766300.76049  -6812051.01949  21403872.8604   21403878.6604
 96  7 10  3 45  0.0010000  0  6 14 25 29  1 21 15
  23774129.730   -13019859.87749 -10128560.16649  23774131.3364   23774136.8754
  21674348.208   -22307254.92249 -17129672.81949  21674349.3524   21674354.1394
  24756730.540    -5033821.89749  -3911483.36049  24756731.5484   24756738.8364
  22289561.409   -18389573.58749 -14288835.46949  22289562.7284   22289567.4624
  23333317.003   -16274237.59849 -12395297.16349  23333319.7954   23333324.4794
  21398167.177    -8796278.36449  -6835410.19249  21398168.4694   21398174.1624
 96  7 10  3 45 30.0010000  0  6 14 25 29  1 21 15
  23758596.609   -13101488.08849 -10192166.56749  23758596.8144   23758602.6604
  21665786.227   -22352245.35949 -17164730.27949  21665787.9914   21665792.5654
  24741274.818    -5115049.24649  -3974777.32849  24741276.0404   24741282.4224
  22302947.894   -18319228.64149 -14234021.23049  22302948.7254   22302953.5644
  23348486.196   -16194532.28849 -12333189.13849  23348486.8864   23348492.1384
  21392579.507    -8825643.57649  -6858292.17749  21392580.4084   21392585.8954
 96  7 10  3 46  0.0010000  0  6 14 25 29  1 21 15
  23743077.171   -13183047.01249 -10255718.95149  23743078.0114   23743082.7364
  21657319.272   -22396746.17249 -17199406.22149  21657319.7444   21657324.4644
  24725851.981    -5196090.05149  -4037925.92549  24725852.9774   24725861.1944
  22316369.122   -18248699.53549 -14179063.48849  22316370.2494   22316374.6204
  23363706.015   -16114549.86849 -12270865.19849  23363706.2494   23363713.2544
  21387108.002    -8854395.59549  -6880696.34849  21387109.2274   21387114.6754
 96  7 10  3 46 30.0010000  0  6 14 25 29  1 21 15
  23727563.124   -13264565.46749 -10319239.78449  23727564.0244   23727570.7984
  21648944.122   -22440752.93649 -17233697.18349  21648945.0534   21648950.0454
  24710457.967    -5276986.33649  -4100961.92649  24710459.4474   24710466.2584
  22329828.452   -18177971.63349 -14123950.83449  22329829.1774   22329833.9044
  23378975.646   -16034298.28149 -12208331.50549  23378978.8104   23378983.9964
  21381751.515    -8882542.98049  -6902629.37349  21381752.7244   21381758.4074
 96  7 10  3 47  0.0010000  0  6 14 25 29  1 21 15
  23712057.175   -13346051.90649 -10382735.68849  23712058.6744   23712064.3054
  21640669.106   -22484243.51949 -17267585.92749  21640669.6594   21640674.4354
  24695089.824    -5357746.76349  -4163892.07649  24695090.9214   24695097.6344
  22343321.984   -18107055.88349 -14068691.80949  22343323.9704   22343328.7814
  23394303.013   -15953771.65549 -12145583.50049  23394301.5044   23394306.6854
  21376511.027    -8910085.12349  -6924090.78649  21376511.8674   21376517.3474
 96  7 10  3 47 30.0010000  0  6 14 25 29  1 21 15
  23696560.852   -13427488.08949 -10446192.42449  23696561.6234   23696567.6864
  21632493.344   -22527203.19449 -17301060.97749  21632494.3524   21632499.3624
  24679747.608    -5438371.04549  -4226716.12249  24679748.9944   24679755.1624
  22356853.438   -18035953.56049 -14013287.39849  22356854.1344   22356859.0914
  23409675.730   -15872974.08649 -12082624.37049  23409677.5604   23409681.7434
  21371388.004    -8937006.49549  -6945068.47649  21371388.8194   21371394.4134
 96  7 10  3 48  0.0010000  0  6 14 25 29  1 21 15
  23681073.331   -13508874.44749 -10509610.35249  23681075.0364   23681080.2894
  21624416.399   -22569645.01749 -17334132.50749  21624418.0454   21624422.8184
  24664430.480    -5518861.18949  -4289435.66449  24664431.6494   24664439.8014
  22370416.922   -17964677.46849 -13957747.58849  22370417.7914   22370422.3214
  23425096.756   -15791936.92249 -12019478.52749  23425098.3964   23425103.0914
  21366382.055    -8963313.80149  -6965567.67349  21366382.7184   21366388.1654
